Date StartTime U_cm/s V_cm/s W_cm/s Ustd_cm/s Vstd_cm/s Wstd_cm/s Uvar_(cm/s)^2 Vvar_(cm/s)^2 Wvar_(cm/s)^2 KE_(m/s)^2 TurbulentKE_(m/s)^2 HorizWindSpeed_cm/s FrictionSpeec_cm/s DragCoef SpeedOfSound_m/s SonicTemperature_C Pressure_mb 
10/10/2013  00:00:00      -83.178      -24.939       -2.798       38.303       21.326       18.876     1467.119      454.807      356.318        0.491        0.114       86.836       14.480        0.028      336.744        8.253      854.215
10/10/2013  00:01:00      -73.243      -62.382        3.943       41.799       36.488       24.338     1747.176     1331.347      592.325        0.647        0.184       96.208       25.439        0.070      336.703        8.184      854.221
10/10/2013  00:02:00     -103.359      -44.736        4.528       47.935       35.985       24.766     2297.808     1294.886      613.371        0.845        0.210      112.625       26.222        0.054      336.659        8.110      854.233
10/10/2013  00:03:00     -119.849      -21.469       -5.406       42.600       30.165       21.998     1814.759      909.950      483.904        0.903        0.160      121.756       22.584        0.034      336.619        8.044      854.259
10/10/2013  00:04:00     -126.044      -25.273       -6.506       39.106       37.365       21.083     1529.268     1396.143      444.487        0.997        0.168      128.553       19.757        0.024      336.651        8.097      854.292
10/10/2013  00:05:00     -142.476      -49.430       -6.078       41.920       31.825       20.004     1757.284     1012.851      400.171        1.297        0.159      150.806       21.629        0.021      336.664        8.117      854.324
10/10/2013  00:06:00     -131.200      -31.288        2.762       56.873       33.097       28.889     3234.578     1095.379      834.546        1.168        0.258      134.879       31.482        0.054      336.682        8.149      854.345
10/10/2013  00:07:00     -123.650      -34.302        5.177       43.642       34.702       26.212     1904.620     1204.206      687.094        1.014        0.190      128.320       24.459        0.036      336.639        8.078      854.378
10/10/2013  00:08:00     -122.580      -26.875       -0.977       51.745       49.968       28.029     2677.566     2496.758      785.611        1.085        0.298      125.491       25.009        0.040      336.787        8.323      854.404
10/10/2013  00:09:00     -109.686      -32.130        0.454       47.047       34.033       25.605     2213.392     1158.226      655.621        0.854        0.201      114.295       21.541        0.036      336.693        8.166      854.431
10/10/2013  00:10:00     -119.880      -57.387        2.541       52.082       33.741       21.676     2712.499     1138.461      469.831        1.099        0.216      132.908       25.062        0.036      336.705        8.186      854.441
10/10/2013  00:11:00     -127.818      -35.028        5.609       44.397       34.670       20.927     1971.121     1202.011      437.937        1.060        0.181      132.531       17.058        0.017      336.693        8.167      854.441
10/10/2013  00:12:00     -130.097      -19.307       -1.750       38.372       31.084       22.560     1472.424      966.198      508.946        1.012        0.147      131.522       24.355        0.034      336.728        8.226      854.437
10/10/2013  00:13:00     -114.889      -27.091       -6.921       42.599       21.653       17.499     1814.653      468.854      306.231        0.829        0.129      118.040       15.601        0.017      336.677        8.140      854.415
10/10/2013  00:14:00     -125.421      -24.777      -13.528       28.306       21.365       14.923      801.256      456.478      222.690        0.900        0.074      127.845        8.241        0.004      336.682        8.149      854.389
10/10/2013  00:15:00     -136.846      -71.499        3.356       39.738       30.368       19.539     1579.135      922.198      381.789        1.337        0.144      154.398       19.975        0.017      336.641        8.081      854.350
10/10/2013  00:16:00     -138.698      -56.140       -6.071       64.125       47.806       21.871     4112.075     2285.425      478.359        1.465        0.344      149.629       20.606        0.019      336.705        8.188      854.336
10/10/2013  00:17:00     -138.260      -38.610        3.494       48.156       40.031       23.512     2319.043     1602.517      552.837        1.255        0.224      143.550       23.514        0.027      336.658        8.108      854.327
10/10/2013  00:18:00     -147.644      -66.483       -1.569       50.937       47.366       30.811     2594.564     2243.560      949.341        1.600        0.289      161.922       29.294        0.033      336.783        8.315      854.319
10/10/2013  00:19:00     -161.543      -47.945        0.314       49.314       39.913       23.339     2431.903     1593.024      544.729        1.648        0.228      168.508       25.898        0.024      336.734        8.234      854.309
10/10/2013  00:20:00     -102.459      -28.569       -2.854       53.266       31.806       16.783     2837.302     1011.636      281.684        0.773        0.207      106.367       18.640        0.031      336.618        8.043      854.303
10/10/2013  00:21:00     -157.097       -5.270      -10.655       34.284       26.330       18.517     1175.385      693.270      342.882        1.352        0.111      157.185       13.536        0.007      336.574        7.968      854.309
10/10/2013  00:22:00     -206.778       -0.145      -20.279       27.876       25.983       15.680      777.047      675.112      245.864        2.243        0.085      206.778       11.042        0.003      336.613        8.032      854.314
10/10/2013  00:23:00     -128.478      -50.792      -13.406       46.749       44.987       23.340     2185.499     2023.860      544.768        1.201        0.238      138.154       28.662        0.043      336.506        7.853      854.306
10/10/2013  00:24:00     -151.162      -37.421       -7.197       41.136       44.734       25.171     1692.211     2001.090      633.561        1.431        0.216      155.725       22.663        0.021      336.450        7.759      854.309
10/10/2013  00:25:00     -114.700      -19.098       -5.917       56.380       38.969       22.214     3178.683     1518.602      493.469        0.937        0.260      116.279       26.761        0.053      336.355        7.601      854.324
10/10/2013  00:26:00     -163.278       -0.554       -9.325       36.812       34.563       22.414     1355.105     1194.633      502.381        1.490        0.153      163.279       21.695        0.018      336.414        7.698      854.348
10/10/2013  00:27:00      -98.314      -39.715       -5.863       45.529       27.560       17.936     2072.901      759.555      321.711        0.722        0.158      106.033       19.097        0.032      336.469        7.792      854.363
10/10/2013  00:28:00      -98.965      -25.694       -9.284       27.125       39.129       19.761      735.767     1531.081      390.483        0.660        0.133      102.246       14.534        0.020      336.468        7.791      854.359
10/10/2013  00:29:00     -152.643      -24.029      -12.308       38.676       25.406       18.454     1495.870      645.460      340.557        1.325        0.124      154.523       16.750        0.012      336.531        7.897      854.351
10/10/2013  00:30:00      -83.343      -53.998        3.290       56.284       27.842       24.551     3167.910      775.157      602.727        0.721        0.227       99.307       26.890        0.073      336.491        7.829      854.329
10/10/2013  00:31:00     -139.726      -53.040      -11.005       55.765       31.700       28.051     3109.743     1004.909      786.832        1.368        0.245      149.454       31.648        0.045      336.599        8.011      854.319
10/10/2013  00:32:00      -91.254      -40.069      -10.860       32.005       32.594       18.299     1024.318     1062.396      334.840        0.624        0.121       99.664       16.824        0.028      336.535        7.903      854.321
10/10/2013  00:33:00      -87.509      -18.157        4.509       39.551       34.458       17.346     1564.298     1187.332      300.882        0.553        0.153       89.373       16.171        0.033      336.445        7.751      854.312
10/10/2013  00:34:00      -91.395      -36.580        2.309       44.669       36.962       27.248     1995.319     1366.161      742.456        0.690        0.205       98.443       23.607        0.058      336.405        7.685      854.293
10/10/2013  00:35:00     -100.198      -24.091       -6.213       29.792       25.493       16.443      887.575      649.914      270.358        0.623        0.090      103.054       16.306        0.025      336.441        7.745      854.280
10/10/2013  00:36:00     -134.625      -23.601       -9.311       33.958       20.262       17.952     1153.152      410.534      322.258        1.033        0.094      136.679       17.400        0.016      336.369        7.623      854.276
10/10/2013  00:37:00     -117.182      -19.352       -9.042       24.337       19.352       12.682      592.286      374.512      160.821        0.766        0.056      118.770       10.090        0.007      336.342        7.579      854.265
10/10/2013  00:38:00     -101.830      -29.456       -2.686       43.926       25.298       18.950     1929.479      639.991      359.116        0.709        0.146      106.005       21.428        0.041      336.288        7.490      854.259
10/10/2013  00:39:00     -113.263       -8.048      -12.953       29.033       26.051       12.396      842.915      678.677      153.660        0.737        0.084      113.548       10.721        0.009      336.252        7.429      854.254
10/10/2013  00:40:00     -144.823      -16.072      -10.113       34.838       19.798       19.432     1213.657      391.976      377.597        1.166        0.099      145.712       16.486        0.013      336.167        7.286      854.246
10/10/2013  00:41:00     -146.598      -28.123      -10.026       35.160       21.953       14.792     1236.213      481.935      218.816        1.216        0.097      149.271       16.236        0.012      336.123        7.213      854.254
10/10/2013  00:42:00      -94.334      -33.715        0.464       36.550       30.505       18.820     1335.908      930.534      354.205        0.633        0.131      100.178       18.140        0.033      336.115        7.200      854.255
10/10/2013  00:43:00      -83.714      -19.998        4.397       49.352       28.037       24.052     2435.638      786.086      578.476        0.561        0.190       86.070       25.740        0.089      336.136        7.236      854.250
10/10/2013  00:44:00     -110.053      -55.610       -4.549       33.679       21.440       14.653     1134.287      459.664      214.720        0.852        0.090      123.305       11.510        0.009      336.173        7.296      854.247
10/10/2013  00:45:00      -97.072      -35.735       -3.908       30.791       27.152       19.827      948.114      737.239      393.094        0.640        0.104      103.441       12.983        0.016      336.160        7.275      854.258
10/10/2013  00:46:00     -113.535      -20.147      -14.420       20.565       27.966       16.421      422.939      782.109      269.661        0.749        0.074      115.309       10.693        0.009      336.116        7.202      854.262
10/10/2013  00:47:00     -103.993      -33.547       -3.089       45.862       26.163       18.359     2103.282      684.504      337.071        0.754        0.156      109.270       18.451        0.029      336.068        7.122      854.256
10/10/2013  00:48:00     -119.072      -62.247        3.342       64.719       44.433       28.231     4188.573     1974.333      796.977        1.251        0.348      134.360       30.464        0.051      336.181        7.310      854.244
10/10/2013  00:49:00     -154.891      -80.197       -6.333       54.313       42.472       28.129     2949.868     1803.882      791.258        1.800        0.277      174.421       23.929        0.019      336.245        7.416      854.239
10/10/2013  00:50:00      -82.238      -48.197       -8.227       49.379       32.094       22.618     2438.291     1030.052      511.563        0.657        0.199       95.321       25.799        0.073      336.102        7.177      854.228
10/10/2013  00:51:00      -97.062      -43.246        3.072       45.482       37.584       24.724     2068.633     1412.526      611.256        0.770        0.205      106.260       18.208        0.029      336.025        7.048      854.226
10/10/2013  00:52:00     -107.493      -34.769        4.002       61.476       34.871       22.673     3779.296     1215.980      514.049        0.914        0.275      112.976       25.379        0.050      336.007        7.020      854.236
10/10/2013  00:53:00     -123.153      -52.972        0.370       39.874       21.391       19.125     1589.906      457.580      365.748        1.019        0.121      134.062       16.349        0.015      336.045        7.084      854.246
10/10/2013  00:54:00      -99.918      -34.364       -0.759       35.072       37.329       19.072     1230.075     1393.457      363.752        0.708        0.149      105.662       17.153        0.026      336.027        7.052      854.256
10/10/2013  00:55:00     -140.579      -34.212       -8.272       61.118       34.443       30.864     3735.354     1186.344      952.564        1.344        0.294      144.682       35.088        0.059      336.009        7.022      854.249
10/10/2013  00:56:00     -145.768      -22.580       -9.837       27.994       29.315       19.053      783.661      859.353      363.013        1.193        0.100      147.507       17.950        0.015      335.946        6.919      854.243
10/10/2013  00:57:00     -165.009      -54.270       -8.156       33.164       40.804       21.943     1099.820     1664.941      481.507        1.674        0.162      173.705       15.877        0.008      335.978        6.971      854.248
10/10/2013  00:58:00     -189.857      -63.956       -9.560       43.271       47.763       26.523     1872.383     2281.303      703.450        2.254        0.243      200.339       23.312        0.014      336.145        7.248      854.250
10/10/2013  00:59:00     -163.536      -47.970       -6.587       47.673       44.549       25.442     2272.742     1984.651      647.315        1.700        0.245      170.426       23.844        0.020      336.198        7.337      854.251
10/10/2013  01:00:00     -168.840        0.027      -10.157       51.567       48.515       22.833     2659.158     2353.744      521.365        1.707        0.277      168.840       25.103        0.022      336.018        7.037      854.253
10/10/2013  01:01:00     -178.960      -37.986       -8.429       51.686       38.679       27.699     2671.436     1496.073      767.237        1.924        0.247      182.947       27.022        0.022      335.906        6.849      854.266
10/10/2013  01:02:00     -198.571      -54.797      -14.457       46.500       49.124       29.387     2162.219     2413.148      863.599        2.404        0.272      205.993       25.497        0.015      335.901        6.841      854.261
10/10/2013  01:03:00     -166.817      -24.267      -14.711       55.949       35.570       31.253     3130.335     1265.229      976.742        1.700        0.269      168.573       29.447        0.031      335.887        6.819      854.248
10/10/2013  01:04:00     -184.617      -37.055      -18.696       43.952       45.297       29.275     1931.813     2051.799      857.006        2.032        0.242      188.299       26.974        0.021      335.879        6.805      854.249
10/10/2013  01:05:00     -154.331      -27.810       -4.797       68.711       43.065       32.026     4721.162     1854.563     1025.675        1.611        0.380      156.817       32.435        0.043      335.817        6.703      854.256
10/10/2013  01:06:00     -151.302        3.080      -11.438       47.412       41.271       29.546     2247.886     1703.334      872.984        1.393        0.241      151.334       21.099        0.019      335.862        6.778      854.270
10/10/2013  01:07:00     -138.331      -31.445      -10.495       65.655       43.194       26.172     4310.638     1865.736      684.956        1.355        0.343      141.860       25.028        0.031      335.964        6.949      854.267
10/10/2013  01:08:00     -110.914      -12.366      -12.131       27.107       24.005       18.471      734.789      576.225      341.191        0.713        0.083      111.602       11.382        0.010      335.886        6.818      854.271
10/10/2013  01:09:00     -114.722       12.845      -17.745       25.345       31.887       20.508      642.349     1016.759      420.579        0.786        0.104      115.439       11.618        0.010      335.936        6.901      854.286
10/10/2013  01:10:00      -91.888      -32.465       -1.620       26.837       26.049       22.917      720.245      678.553      525.210        0.571        0.096       97.454       18.815        0.037      335.885        6.817      854.299
10/10/2013  01:11:00      -75.388      -11.276      -11.776       29.498       25.050       17.079      870.154      627.522      291.691        0.387        0.089       76.226       13.849        0.033      335.901        6.842      854.299
10/10/2013  01:12:00      -74.912      -21.184       -2.253       23.045       23.136       17.815      531.061      535.257      317.388        0.372        0.069       77.850       15.134        0.038      335.945        6.916      854.295
10/10/2013  01:13:00      -77.403      -21.196        0.276       31.592       13.269       17.061      998.049      176.067      291.084        0.395        0.073       80.253       18.737        0.055      335.832        6.727      854.303
10/10/2013  01:14:00      -84.156      -25.418      -10.306       18.374       22.938        9.914      337.621      526.157       98.289        0.440        0.048       87.911        6.756        0.006      335.943        6.913      854.310
10/10/2013  01:15:00      -46.540      -56.814        3.615       43.394       22.350       16.607     1883.016      499.535      275.788        0.403        0.133       73.442       13.111        0.032      336.090        7.158      854.288
10/10/2013  01:16:00      -60.369      -51.789       -8.542       38.131       23.626       15.289     1453.962      558.186      233.743        0.432        0.112       79.539        8.142        0.010      336.206        7.353      854.259
10/10/2013  01:17:00      -22.244      -28.412       15.237       42.173       28.021       18.445     1778.543      785.175      340.203        0.222        0.145       36.084       21.921        0.369      336.218        7.370      854.232
10/10/2013  01:18:00      -44.227      -42.281       -1.171       53.070       34.787       25.661     2816.473     1210.158      658.477        0.421        0.234       61.185       21.741        0.126      336.236        7.401      854.225
10/10/2013  01:19:00     -174.818      -69.764      -16.908       39.521       40.625       27.680     1561.943     1650.376      766.190        1.985        0.199      188.224       23.314        0.015      336.255        7.432      854.224
10/10/2013  01:20:00      -62.107      -44.980       12.848       75.177       35.839       35.663     5651.619     1284.415     1271.885        0.713        0.410       76.684       38.865        0.257      336.217        7.369      854.222
10/10/2013  01:21:00     -114.196      -45.792       -1.104       37.647       30.355       21.275     1417.329      921.424      452.622        0.896        0.140      123.036       18.677        0.023      336.184        7.316      854.226
10/10/2013  01:22:00      -28.317      -26.036       13.945       49.854       42.522       30.263     2485.408     1808.102      915.865        0.344        0.260       38.467       31.329        0.663      336.163        7.281      854.235
10/10/2013  01:23:00     -132.169      -65.688       -6.362       79.075       59.141       39.940     6252.795     3497.611     1595.176        1.658        0.567      147.592       39.672        0.072      336.237        7.403      854.247
10/10/2013  01:24:00     -128.812      -75.919       -2.834       61.311       52.740       43.025     3759.003     2781.505     1851.179        1.538        0.420      149.521       39.615        0.070      336.227        7.386      854.239
10/10/2013  01:25:00     -165.890     -113.272       -8.366       74.248       52.156       38.968     5512.740     2720.288     1518.495        2.508        0.488      200.874       33.754        0.028      336.306        7.516      854.232
10/10/2013  01:26:00      -54.299      -43.347        8.272       98.280       59.471       43.336     9658.927     3536.805     1878.044        0.998        0.754       69.479       48.626        0.490      336.327        7.554      854.228
10/10/2013  01:27:00     -129.099      -74.997        5.667       99.026       68.759       42.128     9806.231     4727.782     1774.751        1.931        0.815      149.302       52.414        0.123      336.395        7.667      854.240
10/10/2013  01:28:00     -104.543      -57.463        2.571       68.110       57.709       37.790     4639.014     3330.338     1428.058        1.182        0.470      119.295       36.137        0.092      336.399        7.673      854.267
10/10/2013  01:29:00      -82.708      -40.294        5.304       74.806       42.403       26.055     5595.887     1798.036      678.869        0.828        0.404       92.001       29.208        0.101      336.303        7.512      854.289
10/10/2013  01:30:00     -154.831      -35.316      -11.721       51.616       46.426       25.856     2664.167     2155.347      668.535        1.542        0.274      158.808       23.100        0.021      336.288        7.488      854.291
10/10/2013  01:31:00     -148.637      -56.410        2.210       67.967       61.113       35.504     4619.564     3734.765     1260.515        1.745        0.481      158.981       35.818        0.051      336.220        7.375      854.297
10/10/2013  01:32:00     -146.728      -44.837        0.200      106.817       53.075       44.662    11409.955     2816.944     1994.680        1.988        0.811      153.426       50.714        0.109      336.187        7.318      854.307
10/10/2013  01:33:00     -176.163      -53.338       -7.427       91.417       46.808       31.882     8357.099     2190.951     1016.441        2.275        0.578      184.061       34.564        0.035      336.138        7.237      854.337
10/10/2013  01:34:00     -207.129      -64.702      -17.161       67.621       55.088       34.084     4572.553     3034.665     1161.738        2.807        0.438      216.999       30.196        0.019      336.144        7.245      854.356
10/10/2013  01:35:00     -161.340      -35.900      -15.334       37.844       49.357       35.408     1432.134     2436.124     1253.736        1.634        0.256      165.285       22.299        0.018      336.149        7.255      854.376
10/10/2013  01:36:00     -168.976        1.128      -24.356       40.921       26.193       19.880     1674.523      686.060      395.234        1.595        0.138      168.980       14.348        0.007      336.122        7.210      854.393
10/10/2013  01:37:00     -172.407       18.472      -24.167       42.030       39.256       21.774     1766.542     1540.998      474.090        1.721        0.189      173.394       15.981        0.008      336.035        7.065      854.418
10/10/2013  01:38:00     -154.519       20.662      -23.986       59.171       49.250       25.477     3501.238     2425.517      649.075        1.573        0.329      155.895       21.470        0.019      336.077        7.135      854.449
10/10/2013  01:39:00     -202.544       44.382      -34.820       48.398       73.116       32.589     2342.333     5345.986     1062.034        2.648        0.438      207.350       21.369        0.011      336.112        7.192      854.465
10/10/2013  01:40:00     -174.021      -41.258      -12.850       66.886       51.201       31.556     4473.715     2621.533      995.758        2.012        0.405      178.845       37.607        0.044      336.078        7.137      854.483
10/10/2013  01:41:00     -210.287      -64.760      -23.438       55.427       60.532       40.916     3072.144     3664.101     1674.147        2.869        0.421      220.033       29.303        0.018      336.081        7.140      854.502
10/10/2013  01:42:00     -235.658       -9.836      -20.575       58.064       48.022       43.434     3371.446     2306.128     1886.541        3.181        0.378      235.864       33.435        0.020      336.070        7.120      854.528
10/10/2013  01:43:00     -123.191       -2.064      -15.074       60.500       36.706       24.269     3660.258     1347.323      588.992        1.050        0.280      123.208       23.947        0.038      336.021        7.043      854.548
10/10/2013  01:44:00     -166.990       -2.930       -6.401       72.346       48.279       32.713     5233.994     2330.852     1070.149        1.828        0.432      167.016       28.670        0.029      335.963        6.945      854.560
10/10/2013  01:45:00     -139.961       15.716       -9.960       47.715       38.605       23.125     2276.712     1490.326      534.775        1.212        0.215      140.841       22.035        0.024      335.936        6.900      854.556
10/10/2013  01:46:00     -162.261      -15.180      -21.050       35.444       47.470       28.114     1256.258     2253.356      790.387        1.565        0.215      162.970       21.237        0.017      335.942        6.912      854.553
10/10/2013  01:47:00     -168.425        5.176      -25.013       44.304       42.334       25.419     1962.885     1792.151      646.145        1.671        0.220      168.505        8.889        0.003      335.914        6.864      854.569
10/10/2013  01:48:00     -116.745        0.149       -4.586       42.528       42.052       26.662     1808.646     1768.336      710.843        0.897        0.214      116.746       23.173        0.039      335.891        6.828      854.590
10/10/2013  01:49:00      -93.984       65.286       -4.067       63.462       61.206       27.721     4027.462     3746.204      768.427        1.083        0.427      114.435       27.281        0.057      335.943        6.913      854.617
10/10/2013  01:50:00     -114.926       72.360      -21.143       93.928       83.293       37.144     8822.542     6937.799     1379.663        1.801        0.857      135.809       48.386        0.127      335.979        6.972      854.637
10/10/2013  01:51:00     -112.912      124.699      -21.425       63.222       87.399       48.687     3997.003     7638.669     2370.441        2.138        0.700      168.223       15.910        0.009      336.015        7.032      854.651
10/10/2013  01:52:00     -134.461      192.698      -25.995       76.569      111.495       47.288     5862.766    12431.124     2236.112        3.820        1.027      234.973       43.918        0.035      336.032        7.059      854.658
10/10/2013  01:53:00     -152.374      187.618      -28.997       72.172      129.927       49.523     5208.738    16881.112     2452.571        4.190        1.227      241.699       58.411        0.058      336.062        7.110      854.683
10/10/2013  01:54:00     -164.022      137.632      -26.463       78.923      107.218       42.062     6228.897    11495.657     1769.209        3.302        0.975      214.116       46.626        0.047      336.020        7.037      854.693
10/10/2013  01:55:00     -150.370       93.524      -25.392       86.554       62.263       40.621     7491.586     3876.711     1650.096        2.251        0.651      177.081       28.417        0.026      336.018        7.037      854.704
10/10/2013  01:56:00     -198.846      211.627      -38.949      107.388      108.775       64.687    11532.102    11831.950     4184.373        5.669        1.377      290.389       63.743        0.048      336.069        7.119      854.713
10/10/2013  01:57:00     -127.051      156.202      -31.948       71.842       71.251       43.013     5161.298     5076.722     1850.105        2.682        0.604      201.348       38.155        0.036      336.068        7.120      854.704
10/10/2013  01:58:00     -107.409      132.462      -15.799       65.846       84.756       45.553     4335.704     7183.611     2075.117        2.146        0.680      170.537       34.800        0.042      336.050        7.090      854.697
10/10/2013  01:59:00     -143.000      161.562      -26.500       69.568       90.094       50.020     4839.702     8116.883     2502.020        3.135        0.773      215.757       56.358        0.068      336.061        7.108      854.695
10/10/2013  02:00:00     -152.611      153.168      -37.887       90.675      121.173       48.459     8221.925    14682.798     2348.313        3.671        1.263      216.219       50.268        0.054      336.168        7.287      854.697
10/10/2013  02:01:00     -176.476      197.799      -35.033       91.443       84.748       56.365     8361.850     7182.261     3177.056        4.510        0.936      265.081       58.579        0.049      336.192        7.325      854.684
10/10/2013  02:02:00     -128.958      170.451      -12.630       62.865      109.092       42.358     3952.018    11900.958     1794.199        3.174        0.882      213.737       45.134        0.045      336.165        7.282      854.687
10/10/2013  02:03:00     -119.775      159.368      -23.735       82.476       80.083       44.195     6802.265     6413.284     1953.168        2.773        0.758      199.359       41.638        0.044      336.174        7.296      854.702
10/10/2013  02:04:00      -79.282      103.037       -1.894       59.993       67.010       39.420     3599.169     4490.392     1553.933        1.327        0.482      130.009       37.913        0.085      336.174        7.297      854.718
10/10/2013  02:05:00     -127.824      114.331       -9.964       58.934       66.619       46.560     3473.214     4438.119     2167.826        1.979        0.504      171.495       39.301        0.053      336.138        7.236      854.742
10/10/2013  02:06:00     -156.566      132.349      -27.315       57.088       63.264       41.680     3258.983     4002.290     1737.261        2.588        0.450      205.010       41.217        0.040      336.116        7.200      854.758
10/10/2013  02:07:00     -134.032      133.810      -18.400       91.148       71.062       45.489     8307.963     5049.878     2069.225        2.581        0.771      189.393       45.760        0.058      336.082        7.142      854.773
10/10/2013  02:08:00     -201.325      348.466      -47.187       70.464      113.283       56.113     4965.210    12833.144     3148.724        9.256        1.047      402.443       48.947        0.015      335.988        6.986      854.788
10/10/2013  02:09:00     -201.710      155.415      -41.288       87.999       85.257       58.308     7743.839     7268.821     3399.839        4.248        0.921      254.639       50.360        0.039      335.966        6.947      854.801
10/10/2013  02:10:00     -177.920      220.505      -41.067       69.303       96.240       42.561     4802.850     9262.146     1811.407        4.892        0.794      283.334       36.578        0.017      335.942        6.907      854.815
10/10/2013  02:11:00     -187.397      163.737      -32.632       92.062       88.451       53.498     8475.410     7823.591     2862.075        4.107        0.958      248.852       44.734        0.032      335.977        6.965      854.827
10/10/2013  02:12:00     -166.555      113.725      -20.633       70.120       63.401       36.436     4916.768     4019.656     1327.610        2.568        0.513      201.678       37.172        0.034      335.999        7.004      854.863
10/10/2013  02:13:00     -148.346      128.556      -13.366       96.781       67.600       56.356     9366.558     4569.759     3175.992        2.791        0.856      196.299       43.799        0.050      335.995        6.996      854.905
10/10/2013  02:14:00     -149.371      184.769      -32.525       76.509       75.137       44.827     5853.627     5645.574     2009.429        3.551        0.675      237.595       45.497        0.037      336.051        7.091      854.927
10/10/2013  02:15:00     -131.617      212.765      -21.869       57.185      116.845       48.659     3270.142    13652.827     2367.715        4.118        0.965      250.183       39.914        0.025      336.025        7.047      854.937
10/10/2013  02:16:00     -159.737      177.386      -34.334       62.083       90.159       41.140     3854.302     8128.603     1692.462        3.592        0.684      238.709       38.393        0.026      335.999        7.004      854.955
10/10/2013  02:17:00     -165.280       79.379      -15.865       63.054       74.588       37.518     3975.866     5563.404     1407.569        2.241        0.547      183.354       32.464        0.031      336.007        7.019      854.976
10/10/2013  02:18:00     -162.189      163.323      -36.963       74.643       89.866       51.169     5571.531     8075.888     2618.295        3.530        0.813      230.173       55.948        0.059      336.021        7.042      854.991
10/10/2013  02:19:00     -213.528      151.154      -40.400       92.766       74.779       49.736     8605.579     5591.871     2473.676        4.337        0.834      261.614       49.163        0.035      335.999        7.003      854.984
10/10/2013  02:20:00     -199.198      201.980      -50.610       76.942       67.314       37.345     5920.082     4531.162     1394.683        4.744        0.592      283.683       38.381        0.018      336.013        7.025      854.985
10/10/2013  02:21:00     -175.536      226.593      -42.423       57.507       87.920       45.627     3307.067     7729.897     2081.841        4.854        0.656      286.631       42.053        0.022      336.011        7.024      854.980
10/10/2013  02:22:00     -151.153      139.053      -28.143       80.172       59.843       39.252     6427.588     3581.166     1540.738        2.726        0.577      205.386       33.783        0.027      336.005        7.015      854.972
10/10/2013  02:23:00     -134.117      163.358      -18.716       88.837       70.244       50.461     7892.010     4934.250     2546.305        3.019        0.769      211.361       51.764        0.060      335.989        6.987      854.969
10/10/2013  02:24:00     -141.117      167.126      -31.006       60.809       70.294       47.668     3697.692     4941.194     2272.270        2.986        0.546      218.736       44.138        0.041      336.020        7.041      854.989
10/10/2013  02:25:00     -163.766      194.816      -36.297       66.839       73.301       44.177     4467.506     5373.000     1951.572        3.894        0.590      254.504       37.486        0.022      336.060        7.103      854.999
10/10/2013  02:26:00     -165.786      218.891      -39.508       62.023       67.647       46.509     3846.842     4576.156     2163.097        4.377        0.529      274.588       36.727        0.018      336.103        7.176      855.008
10/10/2013  02:27:00     -130.145      144.828      -28.571       54.220       59.599       29.795     2939.810     3551.982      887.754        2.305        0.369      194.712       25.699        0.017      336.085        7.148      855.021
10/10/2013  02:28:00     -143.341      187.799      -26.593       46.234       87.024       38.841     2137.551     7573.221     1508.635        3.387        0.561      236.252       32.689        0.019      336.091        7.157      855.042
10/10/2013  02:29:00     -134.392      126.570      -24.886       67.433       71.659       44.770     4547.193     5135.014     2004.324        2.319        0.584      184.611       43.881        0.056      336.132        7.228      855.052
10/10/2013  02:30:00     -146.762      179.702      -34.348       68.403       67.191       43.619     4678.949     4514.690     1902.577        3.305        0.555      232.017       40.987        0.031      336.177        7.300      855.041
10/10/2013  02:31:00     -137.932      153.666      -29.208       72.270       73.366       40.615     5222.982     5382.508     1649.538        2.787        0.613      206.491       34.256        0.028      336.182        7.312      855.040
10/10/2013  02:32:00      -95.293      145.880      -23.709       52.914       66.624       36.400     2799.849     4438.783     1324.962        1.974        0.428      174.246       30.703        0.031      336.180        7.308      855.051
10/10/2013  02:33:00     -117.698      187.372      -23.111       71.952       82.671       44.309     5177.071     6834.564     1963.260        3.173        0.699      221.272       44.362        0.040      336.172        7.293      855.058
10/10/2013  02:34:00     -120.941      154.590      -34.050       69.807       60.801       40.571     4872.969     3696.742     1645.973        2.495        0.511      196.277       38.745        0.039      336.170        7.289      855.057
10/10/2013  02:35:00     -146.078      195.669      -34.793       73.250       79.986       44.290     5365.542     6397.772     1961.627        3.728        0.686      244.182       42.741        0.031      336.191        7.325      855.056
10/10/2013  02:36:00      -84.849      231.407      -23.334       44.350       67.684       38.410     1966.938     4581.088     1475.313        3.466        0.401      246.472       35.488        0.021      336.137        7.233      855.069
10/10/2013  02:37:00      -70.107      135.667      -12.323       60.579       76.485       43.767     3669.802     5850.002     1915.521        1.745        0.572      152.711       43.055        0.079      336.095        7.165      855.079
10/10/2013  02:38:00     -118.137      167.908      -25.415       85.144       87.170       42.534     7249.573     7598.678     1809.148        2.972        0.833      205.304       48.290        0.055      336.256        7.432      855.078
10/10/2013  02:39:00     -119.628      187.433      -39.671       80.881       69.711       39.995     6541.664     4859.577     1599.633        3.201        0.650      222.355       47.985        0.047      336.308        7.519      855.072
10/10/2013  02:40:00      -76.204      187.072      -20.558       52.961       87.555       36.710     2804.866     7665.821     1347.588        2.652        0.591      201.997       36.023        0.032      336.226        7.384      855.065
10/10/2013  02:41:00      -93.786      203.672      -27.154       58.517       69.592       40.549     3424.202     4843.037     1644.199        3.046        0.496      224.228       39.936        0.032      336.172        7.293      855.060
10/10/2013  02:42:00      -83.751      148.472      -20.806       60.274       78.735       39.264     3632.919     6199.236     1541.657        2.043        0.569      170.464       43.214        0.064      336.170        7.289      855.063
10/10/2013  02:43:00      -85.518      138.571      -18.336       51.203       59.020       32.743     2621.760     3483.304     1072.092        1.701        0.359      162.835       31.099        0.036      336.184        7.314      855.052
10/10/2013  02:44:00      -67.571      154.371       -7.156       50.004       90.057       40.204     2500.367     8110.289     1616.337        2.033        0.611      168.512       43.951        0.068      336.156        7.267      855.040
10/10/2013  02:45:00     -108.426      194.946      -32.524       56.747       59.751       41.244     3220.202     3570.212     1701.049        2.965        0.425      223.069       34.126        0.023      336.163        7.277      855.023
10/10/2013  02:46:00      -85.207      239.423      -17.215       60.953       85.975       43.215     3715.256     7391.742     1867.558        3.892        0.649      254.132       35.065        0.019      336.144        7.246      855.011
10/10/2013  02:47:00     -101.210      165.492      -20.089       55.340       76.890       34.048     3062.545     5912.097     1159.270        2.408        0.507      193.987       29.291        0.023      336.133        7.226      855.009
10/10/2013  02:48:00     -145.619      166.546      -34.840       48.024       58.797       34.760     2306.295     3457.031     1208.289        2.856        0.349      221.229       25.023        0.013      336.125        7.215      855.008
10/10/2013  02:49:00     -101.542      119.113      -18.903       71.887       73.751       38.356     5167.724     5439.181     1471.196        1.846        0.604      156.520       33.402        0.046      336.093        7.163      855.012
10/10/2013  02:50:00     -124.813      149.459      -27.308       89.048       65.377       43.894     7929.630     4274.172     1926.686        2.639        0.707      194.721       49.018        0.063      336.031        7.057      855.012
10/10/2013  02:51:00     -159.562      121.737      -22.160       77.183       76.557       49.854     5957.280     5861.017     2485.413        2.753        0.715      200.699       38.794        0.037      336.013        7.028      855.011
10/10/2013  02:52:00     -156.071      157.844      -39.801       66.166       63.580       39.087     4378.004     4042.366     1527.796        3.040        0.497      221.975       39.218        0.031      336.064        7.112      855.020
10/10/2013  02:53:00     -117.605       38.856       -6.618       69.983       64.717       31.790     4897.638     4188.336     1010.613        1.274        0.505      123.857       18.407        0.022      336.073        7.130      855.028
10/10/2013  02:54:00     -142.629        5.496      -15.264       67.346       54.927       34.178     4535.528     3016.924     1168.162        1.466        0.436      142.735       29.768        0.043      336.038        7.071      855.029
10/10/2013  02:55:00      -98.540       63.217      -16.561       44.868       51.958       37.452     2013.179     2699.609     1402.628        1.005        0.306      117.075       22.431        0.037      336.039        7.074      855.036
10/10/2013  02:56:00     -107.154      -17.277       -5.776       33.982       61.107       24.225     1154.754     3734.123      586.856        0.864        0.274      108.538       20.370        0.035      336.041        7.077      855.045
10/10/2013  02:57:00      -62.976       22.768        1.297       48.118       72.188       31.054     2315.345     5211.178      964.325        0.649        0.425       66.966       28.089        0.176      336.038        7.070      855.047
10/10/2013  02:58:00     -118.619      -49.547      -19.144       29.379       33.351       19.657      863.124     1112.274      386.381        0.963        0.118      128.551        4.895        0.001      335.933        6.897      855.057
10/10/2013  02:59:00     -115.110      -37.896       -3.933       51.953       35.394       24.140     2699.085     1252.755      582.749        0.962        0.227      121.188       20.927        0.030      335.964        6.947      855.041
10/10/2013  03:00:00     -110.663      -16.437      -19.537       56.077       51.878       25.322     3144.586     2691.307      641.186        0.969        0.324      111.877        9.142        0.007      335.908        6.856      855.013
10/10/2013  03:01:00      -43.941      -56.635        8.975       53.163       43.886       38.500     2826.314     1925.966     1482.269        0.573        0.312       71.682       40.542        0.320      335.887        6.819      854.982
10/10/2013  03:02:00     -112.366      -77.495       -0.370       44.240       44.810       32.532     1957.168     2007.894     1058.321        1.183        0.251      136.497       28.741        0.044      335.801        6.677      854.962
10/10/2013  03:03:00     -100.439      -98.300        0.459       81.651       59.269       39.117     6666.814     3512.814     1530.125        1.573        0.585      140.538       40.890        0.085      335.843        6.746      854.950
10/10/2013  03:04:00     -127.716      -70.242        4.881       78.949       45.673       37.987     6232.892     2086.014     1443.033        1.551        0.488      145.758       28.226        0.038      335.804        6.680      854.944
10/10/2013  03:05:00     -134.438      -75.784       -1.897       56.721       44.224       27.400     3217.267     1955.779      750.777        1.487        0.296      154.327       17.970        0.014      335.854        6.764      854.944
10/10/2013  03:06:00     -210.530      -52.534       -9.695       70.973       65.950       38.835     5037.215     4349.457     1508.171        2.903        0.545      216.986       35.312        0.026      335.825        6.713      854.962
10/10/2013  03:07:00     -167.557      -41.363       -5.533       56.593       51.985       32.269     3202.809     2702.459     1041.258        1.838        0.347      172.587       24.018        0.019      335.841        6.742      854.971
10/10/2013  03:08:00     -205.848      -37.561      -14.146       73.635       61.198       36.733     5422.170     3745.179     1349.319        2.725        0.526      209.246       40.761        0.038      335.833        6.727      854.977
10/10/2013  03:09:00     -165.749       84.033      -21.083       55.317       64.324       37.909     3059.994     4137.526     1437.089        2.180        0.432      185.834       32.362        0.030      335.866        6.784      854.981
10/10/2013  03:10:00     -138.354       65.285      -11.930       93.434       62.611       44.258     8729.825     3920.092     1958.731        1.907        0.730      152.984       47.984        0.098      335.949        6.921      854.978
10/10/2013  03:11:00     -108.386      103.130       -4.080       65.095       59.101       44.139     4237.317     3492.981     1948.286        1.604        0.484      149.610       41.528        0.077      336.020        7.039      854.958
10/10/2013  03:12:00     -163.788      174.442      -42.253       51.498       58.149       29.459     2652.027     3381.300      867.837        3.297        0.345      239.283       25.959        0.012      336.138        7.234      854.961
10/10/2013  03:13:00     -127.021      150.950      -32.142       36.676       50.692       30.460     1345.110     2569.699      927.825        2.240        0.242      197.282       20.241        0.011      336.067        7.118      854.957
10/10/2013  03:14:00     -159.772       87.513      -20.473       89.481       72.918       41.634     8006.770     5317.043     1733.361        2.433        0.753      182.169       45.840        0.063      336.020        7.039      854.957
10/10/2013  03:15:00     -133.451       51.987      -16.281       46.891       86.206       32.421     2198.728     7431.402     1051.112        1.573        0.534      143.220       24.781        0.030      335.975        6.966      854.952
10/10/2013  03:16:00      -83.706       34.070      -16.583       46.761       35.951       19.901     2186.579     1292.488      396.067        0.616        0.194       90.374       26.759        0.088      335.975        6.965      854.956
10/10/2013  03:17:00     -118.413       63.298      -28.689       46.633       57.957       26.158     2174.652     3359.013      684.218        1.253        0.311      134.270       20.298        0.023      335.979        6.974      854.969
10/10/2013  03:18:00     -133.575      101.617      -12.977       98.053       57.309       35.502     9614.365     3284.267     1260.392        2.124        0.708      167.834       35.608        0.045      335.981        6.973      854.984
10/10/2013  03:19:00     -129.078       25.953      -19.784       59.321       71.501       34.926     3519.022     5112.435     1219.819        1.379        0.493      131.662       34.059        0.067      335.955        6.932      855.002
10/10/2013  03:20:00      -87.719       93.786      -10.368       63.174       87.465       35.512     3991.012     7650.141     1261.121        1.475        0.645      128.415       42.411        0.109      335.870        6.789      855.032
10/10/2013  03:21:00     -142.019       91.467      -17.092       82.000       58.751       46.135     6724.031     3451.642     2128.442        2.056        0.615      168.925       30.958        0.034      335.827        6.719      855.046
10/10/2013  03:22:00      -71.525      185.411       -7.660       66.596       97.294       47.379     4435.023     9466.187     2244.781        2.785        0.807      198.729       43.966        0.049      335.809        6.687      855.050
10/10/2013  03:23:00     -132.396      121.867      -29.586       41.052       54.673       34.221     1685.247     2989.113     1171.060        1.955        0.292      179.945       28.930        0.026      335.730        6.558      855.054
10/10/2013  03:24:00      -85.600      139.993      -17.450       54.550       80.420       34.464     2975.736     6467.371     1187.788        1.893        0.532      164.089       31.752        0.037      335.681        6.475      855.062
10/10/2013  03:25:00     -135.613      153.818      -34.782       68.240       64.081       37.149     4656.751     4106.319     1380.029        2.670        0.507      205.063       35.819        0.031      335.679        6.471      855.072
10/10/2013  03:26:00      -85.901       80.238       -7.053       68.159       53.407       36.642     4645.685     2852.346     1342.627        1.135        0.442      117.547       34.554        0.086      335.686        6.485      855.087
10/10/2013  03:27:00     -116.420      162.905      -27.939       43.466       44.586       31.601     1889.311     1987.883      998.608        2.287        0.244      200.230       21.283        0.011      335.706        6.516      855.104
10/10/2013  03:28:00     -123.892      101.565      -24.291       62.337       55.434       34.179     3885.843     3072.980     1168.230        1.719        0.406      160.202       29.685        0.034      335.702        6.510      855.137
10/10/2013  03:29:00      -64.346       93.288      -16.944       39.787       40.753       25.963     1583.021     1660.838      674.091        0.852        0.196      113.327       28.262        0.062      335.714        6.532      855.159
10/10/2013  03:30:00      -55.267       72.201      -11.099       27.069       48.182       22.104      732.722     2321.544      488.570        0.597        0.177       90.926       16.638        0.033      335.606        6.351      855.190
10/10/2013  03:31:00      -44.594      -10.928      -14.612       26.326       25.454       20.461      693.077      647.903      418.648        0.204        0.088       45.913       18.525        0.163      335.687        6.487      855.220
10/10/2013  03:32:00      -27.754      -71.915       -3.014       37.162       31.218       17.499     1381.006      974.566      306.198        0.431        0.133       77.084       16.235        0.044      335.667        6.454      855.255
10/10/2013  03:33:00       -7.254       -1.153        9.407       28.044       14.843       18.106      786.465      220.317      327.839        0.074        0.067        7.345       21.832        8.835      335.573        6.296      855.275
10/10/2013  03:34:00       18.305       29.969       13.687       16.476       15.081       11.307      271.451      227.423      127.851        0.102        0.031       35.117        9.531        0.074      335.587        6.319      855.291
10/10/2013  03:35:00       35.115       55.988       22.172       20.529       20.130       13.174      421.427      405.216      173.555        0.293        0.050       66.089       10.059        0.023      335.659        6.440      855.310
10/10/2013  03:36:00       22.024       35.663       37.614       26.599       30.240       15.971      707.524      914.474      255.080        0.252        0.094       41.915       13.738        0.107      335.640        6.407      855.325
10/10/2013  03:37:00       35.835       40.948        9.606       22.735       10.640       16.697      516.881      113.215      278.794        0.198        0.045       54.414       11.242        0.043      335.708        6.523      855.338
10/10/2013  03:38:00       53.738       39.233        9.610       17.542       16.823       14.919      307.716      283.014      222.564        0.267        0.041       66.536        7.569        0.013      335.731        6.562      855.350
10/10/2013  03:39:00       34.135       43.174      -10.294       30.877       25.347       12.932      953.408      642.484      167.239        0.245        0.088       55.038        9.863        0.032      335.744        6.583      855.355
10/10/2013  03:40:00       -5.598       38.826       -9.635       11.038       17.449        8.135      121.829      304.475       66.175        0.106        0.025       39.228        5.810        0.022      335.706        6.518      855.355
10/10/2013  03:41:00      -66.945       74.320      -19.265       30.071       36.065       15.751      904.259     1300.668      248.089        0.641        0.123      100.025       19.354        0.037      335.693        6.496      855.364
10/10/2013  03:42:00      -58.955       60.301      -15.889       31.108       26.091       21.238      967.699      680.751      451.064        0.473        0.105       84.332       21.797        0.067      335.670        6.459      855.374
10/10/2013  03:43:00       -1.635       69.035       -4.541       28.721       39.769       21.928      824.899     1581.565      480.846        0.384        0.144       69.055       24.264        0.123      335.689        6.489      855.387
10/10/2013  03:44:00        9.949       39.099       -8.467       15.991       21.946       14.280      255.701      481.630      203.928        0.132        0.047       40.345       12.471        0.096      335.607        6.355      855.398
10/10/2013  03:45:00      -52.433      -34.796       -1.703       39.826       40.242       15.451     1586.144     1619.402      238.740        0.370        0.172       62.929       10.025        0.025      335.655        6.433      855.410
10/10/2013  03:46:00      -67.276      -23.693       -9.210       29.234       18.210       13.671      854.612      331.611      186.889        0.327        0.069       71.326       10.132        0.020      335.647        6.424      855.414
10/10/2013  03:47:00     -100.277      -20.905       -7.752       32.708       31.059       18.140     1069.838      964.685      329.061        0.646        0.118      102.433       12.963        0.016      335.585        6.317      855.429
10/10/2013  03:48:00     -116.113       -8.636       -2.091       66.386       24.289       24.457     4407.081      589.937      598.137        0.958        0.280      116.433       30.154        0.067      335.484        6.147      855.437
10/10/2013  03:49:00     -124.955      -11.143      -12.488       35.132       33.652       17.489     1234.287     1132.458      305.860        0.928        0.134      125.451       16.321        0.017      335.511        6.194      855.445
10/10/2013  03:50:00      -88.699      -39.235       -8.488       34.470       25.370       16.165     1188.156      643.633      261.319        0.579        0.105       96.990        9.727        0.010      335.543        6.247      855.437
10/10/2013  03:51:00      -63.185      -34.919       -1.816       37.403       20.899       13.475     1399.022      436.776      181.570        0.362        0.101       72.192       11.950        0.027      335.566        6.285      855.430
10/10/2013  03:52:00      -52.666      -43.040       -7.042       14.041       15.187        7.377      197.155      230.641       54.422        0.258        0.024       68.016        6.174        0.008      335.581        6.311      855.418
10/10/2013  03:53:00      -26.265      -69.632       -0.981       28.672       34.675       18.704      822.075     1202.346      349.839        0.396        0.119       74.421       11.770        0.025      335.806        6.686      855.406
10/10/2013  03:54:00      -39.501      -28.982        1.044       25.860       44.778       17.039      668.737     2005.063      290.343        0.268        0.148       48.993        4.642        0.009      335.942        6.912      855.383
10/10/2013  03:55:00     -105.821      -23.191       -8.362       25.377       16.818       16.318      643.971      282.851      266.267        0.650        0.060      108.332       13.454        0.015      335.688        6.489      855.372
10/10/2013  03:56:00      -80.787        9.009       -8.915       22.167       46.676       15.748      491.358     2178.608      248.013        0.480        0.146       81.288       20.975        0.067      335.589        6.323      855.360
10/10/2013  03:57:00      -86.063       70.592      -17.962       14.245       19.503       12.703      202.928      380.369      161.359        0.673        0.037      111.311        9.855        0.008      335.560        6.274      855.354
10/10/2013  03:58:00      -66.647       34.104      -10.087       25.377       28.625       16.303      643.973      819.369      265.788        0.372        0.086       74.866       14.360        0.037      335.687        6.487      855.341
10/10/2013  03:59:00      -61.037       -5.982       -6.692       21.966       21.626       12.687      482.498      467.684      160.961        0.246        0.056       61.329       10.080        0.027      335.508        6.188      855.332
10/10/2013  04:00:00      -88.641      -34.409      -10.062       11.290       11.479        9.263      127.455      131.775       85.801        0.474        0.017       95.085        4.592        0.002      335.418        6.038      855.332
10/10/2013  04:01:00      -99.456      -51.426       -9.041       24.470       21.201       15.215      598.773      449.475      231.499        0.695        0.064      111.965       10.826        0.009      335.499        6.173      855.329
10/10/2013  04:02:00      -90.340      -34.448        0.764       28.778       28.079       18.501      828.164      788.457      342.301        0.565        0.098       96.685       13.742        0.020      335.420        6.041      855.327
10/10/2013  04:03:00      -45.821      -43.650       12.308       33.253       21.169       19.283     1105.760      448.111      371.822        0.304        0.096       63.285       19.218        0.092      335.383        5.980      855.334
10/10/2013  04:04:00      -60.958      -48.963        3.972       30.278       20.738       16.611      916.781      430.068      275.914        0.388        0.081       78.187       17.008        0.047      335.459        6.107      855.335
10/10/2013  04:05:00      -36.141      -55.006       14.605       35.948       46.371       23.305     1292.223     2150.284      543.131        0.426        0.199       65.817       23.051        0.123      335.408        6.021      855.339
10/10/2013  04:06:00      -64.973      -75.546       -0.488       35.449       34.718       20.213     1256.644     1205.363      408.555        0.640        0.144       99.643       19.811        0.040      335.456        6.103      855.331
10/10/2013  04:07:00      -68.247     -129.120        2.822       37.285       37.308       23.459     1390.157     1391.858      550.321        1.233        0.167      146.046       19.078        0.017      335.626        6.385      855.310
10/10/2013  04:08:00      -60.991      -89.512        3.261       35.669       36.587       24.484     1272.279     1338.623      599.452        0.748        0.161      108.316       18.924        0.031      335.585        6.317      855.281
10/10/2013  04:09:00      -45.313     -131.646       -6.249       36.455       47.816       24.809     1328.951     2286.407      615.485        1.183        0.212      139.226        9.880        0.005      335.641        6.411      855.254
10/10/2013  04:10:00       -7.070      -84.789        4.080       52.121       57.328       22.226     2716.556     3286.517      493.979        0.688        0.325       85.083       21.322        0.063      335.626        6.385      855.230
10/10/2013  04:11:00      -41.015      -30.320        0.770       39.561       32.091       24.310     1565.085     1029.836      590.976        0.289        0.159       51.005       17.050        0.112      335.550        6.259      855.208
10/10/2013  04:12:00       25.876      -26.931       -7.766       18.565       22.774       16.412      344.659      518.667      269.346        0.129        0.057       37.348       13.043        0.122      335.453        6.097      855.196
10/10/2013  04:13:00       19.585       34.336        6.844       20.781       23.005       17.784      431.862      529.238      316.269        0.144        0.064       39.529        7.375        0.035      335.301        5.842      855.183
10/10/2013  04:14:00       -7.466       17.038       -3.476       14.452       14.226       11.125      208.856      202.373      123.765        0.045        0.027       18.602        5.922        0.101      335.223        5.713      855.177
10/10/2013  04:15:00      -48.343       13.870       -6.279       17.513       18.355        9.858      306.692      336.891       97.189        0.165        0.037       50.294        8.001        0.025      335.370        5.958      855.168
10/10/2013  04:16:00      -95.404      -24.181       -3.960       29.715       22.065       11.680      882.971      486.862      136.426        0.560        0.075       98.421        8.520        0.007      335.312        5.860      855.154
10/10/2013  04:17:00      -99.962      -45.938        2.710       23.271       18.937       15.152      541.536      358.627      229.577        0.662        0.056      110.013       14.006        0.016      335.275        5.800      855.145
10/10/2013  04:18:00      -90.609      -54.124       -4.458       24.005       21.175       17.519      576.257      448.366      306.920        0.625        0.067      105.543       11.296        0.011      335.265        5.783      855.153
10/10/2013  04:19:00      -88.047      -46.327        1.788       35.087       21.082       17.099     1231.131      444.443      292.368        0.593        0.098       99.491       17.007        0.029      335.235        5.733      855.174
10/10/2013  04:20:00      -94.259      -32.493       -4.370       28.108       21.589       10.953      790.082      466.068      119.975        0.567        0.069       99.702       11.102        0.012      335.141        5.578      855.205
10/10/2013  04:21:00      -97.462      -34.271       -0.954       33.710       26.735       18.111     1136.380      714.769      328.006        0.643        0.109      103.312       15.281        0.022      335.094        5.501      855.242
10/10/2013  04:22:00      -68.820       -2.438        0.949       35.799       18.693       16.525     1281.601      349.421      273.090        0.332        0.095       68.863       18.131        0.069      334.956        5.271      855.263
10/10/2013  04:23:00      -34.023      -14.434        2.871       24.662       16.812       13.993      608.231      282.633      195.798        0.123        0.054       36.958       14.155        0.147      334.936        5.238      855.282
10/10/2013  04:24:00       -2.362      -10.321       -1.011       18.487       10.230        9.972      341.776      104.644       99.442        0.033        0.027       10.588        8.408        0.631      334.867        5.123      855.274
10/10/2013  04:25:00      -17.452      -23.024        1.660       18.332       24.409       12.929      336.067      595.778      167.160        0.097        0.055       28.891       10.710        0.137      335.161        5.612      855.248
10/10/2013  04:26:00       -9.946        8.621       32.762       14.052       29.863       17.181      197.466      891.804      295.181        0.132        0.069       13.162       14.566        1.225      335.095        5.502      855.207
10/10/2013  04:27:00      -14.902       11.220       33.157       16.459       22.464       23.965      270.907      504.628      574.319        0.140        0.067       18.653       19.309        1.072      335.073        5.467      855.169
10/10/2013  04:28:00      -33.633       14.273        3.177       22.614       11.920        9.942      511.383      142.079       98.847        0.105        0.038       36.536        7.242        0.039      335.241        5.742      855.130
10/10/2013  04:29:00      -21.887        3.994        1.249       22.341       19.960       17.079      499.127      398.413      291.677        0.084        0.059       22.249       10.580        0.226      335.206        5.685      855.103
10/10/2013  04:30:00      -19.853      -24.859       -0.806       32.601       26.141       15.372     1062.851      683.376      236.294        0.150        0.099       31.814        8.604        0.073      335.202        5.680      855.085
10/10/2013  04:31:00      -67.738      -77.746        5.185       59.389       51.607       27.800     3527.014     2663.293      772.859        0.881        0.348      103.116       31.184        0.091      335.226        5.719      855.068
10/10/2013  04:32:00      -64.645     -108.017        3.743       39.786       49.477       26.763     1582.960     2447.983      716.271        1.030        0.237      125.883       22.309        0.031      335.276        5.800      855.059
10/10/2013  04:33:00      -59.556     -104.182       -9.831       38.197       33.505       19.881     1459.025     1122.556      395.249        0.874        0.149      120.004       10.404        0.008      335.268        5.789      855.053
10/10/2013  04:34:00       -9.722      -49.170       13.232       39.786       39.869       28.122     1582.891     1589.504      790.873        0.332        0.198       50.122       28.915        0.333      335.261        5.776      855.044
10/10/2013  04:35:00      -36.192      -82.770        1.257       40.407       33.469       25.686     1632.698     1120.205      659.795        0.579        0.171       90.336       12.113        0.018      335.301        5.843      855.036
10/10/2013  04:36:00      -25.842      -47.288       12.073       39.696       39.487       21.769     1575.743     1559.209      473.875        0.333        0.180       53.889       18.818        0.122      335.277        5.803      855.038
10/10/2013  04:37:00      -27.999      -28.077       17.285       46.068       31.260       19.089     2122.290      977.158      364.392        0.267        0.173       39.652       10.787        0.074      335.218        5.704      855.044
10/10/2013  04:38:00      -81.492      -57.473       12.838       51.483       37.759       31.623     2650.473     1425.757     1000.018        0.759        0.254       99.720       26.354        0.070      335.121        5.545      855.065
10/10/2013  04:39:00      -35.989      -22.669        9.810       40.915       27.316       21.421     1674.006      746.177      458.842        0.239        0.144       42.533       23.169        0.297      335.090        5.493      855.095
10/10/2013  04:40:00      -91.702      -50.162       -1.143       54.648       30.273       21.425     2986.388      916.428      459.020        0.764        0.218      104.525       23.330        0.050      335.132        5.563      855.131
10/10/2013  04:41:00     -135.107      -47.847        5.651       49.273       39.833       25.579     2427.861     1586.668      654.305        1.262        0.233      143.329       28.791        0.040      335.026        5.387      855.167
10/10/2013  04:42:00     -158.636      -53.677       -7.866       33.484       26.516       20.469     1121.190      703.089      418.980        1.518        0.112      167.472       17.242        0.011      335.023        5.383      855.203
10/10/2013  04:43:00     -125.006      -60.650        5.368       57.318       55.002       28.034     3285.385     3025.206      785.928        1.321        0.355      138.942       25.682        0.034      335.042        5.413      855.227
10/10/2013  04:44:00     -165.071      -29.098        0.789       50.165       44.522       28.526     2516.574     1982.216      813.738        1.670        0.266      167.616       26.456        0.025      334.950        5.260      855.244
10/10/2013  04:45:00     -167.096      -47.850        6.518       77.646       58.550       35.183     6028.978     3428.094     1237.843        2.047        0.535      173.812       34.311        0.039      334.845        5.085      855.227
10/10/2013  04:46:00     -181.594      -62.532       -2.908       50.545       44.380       31.608     2554.762     1969.546      999.053        2.121        0.276      192.059       23.447        0.015      334.783        4.981      855.212
10/10/2013  04:47:00     -125.509      -42.086        6.251       60.957       40.928       28.749     3715.813     1675.095      826.502        1.189        0.311      132.378       30.748        0.054      334.685        4.819      855.195
10/10/2013  04:48:00      -90.422      -41.520       -0.729       66.257       29.718       25.222     4390.050      883.172      636.141        0.790        0.295       99.499       33.958        0.116      334.702        4.848      855.191
10/10/2013  04:49:00     -125.962      -53.253       -3.088       45.353       38.526       22.645     2056.869     1484.247      512.817        1.138        0.203      136.756       24.263        0.031      334.600        4.679      855.191
10/10/2013  04:50:00     -106.120      -16.915        1.730       59.470       45.624       34.429     3536.649     2081.555     1185.323        0.918        0.340      107.460       37.827        0.124      334.418        4.379      855.190
10/10/2013  04:51:00      -99.133        8.607       -7.535       60.444       46.036       30.387     3653.526     2119.273      923.347        0.833        0.335       99.505       29.581        0.088      334.323        4.219      855.168
10/10/2013  04:52:00      -92.246      -12.395       -4.228       30.783       38.804       24.346      947.620     1505.737      592.732        0.586        0.152       93.075       19.624        0.044      334.327        4.226      855.136
10/10/2013  04:53:00      -92.410       25.158      -13.236       33.961       26.396       23.515     1153.316      696.739      552.970        0.587        0.120       95.774       16.975        0.031      334.332        4.235      855.114
10/10/2013  04:54:00      -97.958      -34.084      -17.867       28.552       44.666       22.521      815.218     1995.040      507.212        0.720        0.166      103.719       10.410        0.010      334.409        4.363      855.101
10/10/2013  04:55:00     -153.298      -47.599      -12.054       31.918       30.874       24.273     1018.740      953.176      589.166        1.424        0.128      160.518       19.950        0.015      334.311        4.202      855.118
10/10/2013  04:56:00     -156.694      -43.256      -10.151       29.846       25.444       20.809      890.784      647.403      433.032        1.425        0.099      162.554       16.983        0.011      334.352        4.267      855.139
10/10/2013  04:57:00      -83.636      -65.256        0.950       59.828       37.647       29.302     3579.351     1417.265      858.579        0.855        0.293      106.082       33.988        0.103      334.419        4.381      855.171
10/10/2013  04:58:00     -109.697      -32.753       -1.351       48.026       33.810       20.210     2306.477     1143.088      408.451        0.848        0.193      114.482       20.837        0.033      334.353        4.271      855.221
10/10/2013  04:59:00     -112.143      -22.621       -4.984       40.523       34.295       23.890     1642.090     1176.141      570.753        0.825        0.169      114.402       20.017        0.031      334.231        4.067      855.251
10/10/2013  05:00:00      -98.270      -11.797        5.525       44.971       39.876       30.066     2022.428     1590.129      903.965        0.717        0.226       98.975       29.629        0.090      334.187        3.995      855.267
10/10/2013  05:01:00     -126.057       -3.470       -9.794       38.410       46.342       23.594     1475.365     2147.569      556.673        1.009        0.209      126.105       20.609        0.027      334.194        4.006      855.282
10/10/2013  05:02:00     -129.531      -21.989       -2.438       41.309       31.238       23.351     1706.397      975.804      545.251        1.025        0.161      131.384       19.658        0.022      334.281        4.150      855.283
10/10/2013  05:03:00     -135.928      -28.575       -8.182       64.579       30.042       29.261     4170.415      902.516      856.232        1.264        0.296      138.899       34.893        0.063      334.296        4.176      855.285
10/10/2013  05:04:00     -117.675      -16.876      -14.185       50.391       41.248       29.228     2539.302     1701.363      854.287        0.971        0.255      118.878       26.746        0.051      334.328        4.228      855.303
10/10/2013  05:05:00     -130.775      -15.109      -17.072       32.670       44.477       23.536     1067.327     1978.208      553.954        1.061        0.180      131.644       20.441        0.024      334.342        4.251      855.318
10/10/2013  05:06:00     -106.091      -36.421      -18.603       35.431       36.800       24.157     1255.373     1354.243      583.539        0.806        0.160      112.169       17.285        0.024      334.405        4.356      855.329
10/10/2013  05:07:00      -91.474      -57.214       -6.530       37.716       43.325       23.599     1422.485     1877.055      556.903        0.777        0.193      107.893       18.548        0.030      334.307        4.194      855.344
10/10/2013  05:08:00      -83.006      -17.807        1.503       46.639       39.207       29.230     2175.216     1537.195      854.375        0.589        0.228       84.895       24.866        0.086      334.333        4.237      855.378
10/10/2013  05:09:00      -92.040      -32.276       -2.222       43.957       39.660       24.622     1932.218     1572.878      606.249        0.681        0.206       97.535       22.759        0.054      334.288        4.162      855.403
10/10/2013  05:10:00      -67.370      -46.236        0.231       39.178       33.684       22.189     1534.885     1134.584      492.356        0.492        0.158       81.709       18.665        0.052      334.253        4.104      855.419
10/10/2013  05:11:00      -69.572      -57.193       -8.707       43.173       34.708       23.082     1863.948     1204.638      532.795        0.589        0.180       90.062       18.285        0.041      334.278        4.146      855.430
10/10/2013  05:12:00      -41.128      -38.783       -5.075       32.732       24.606       20.972     1071.381      605.471      439.821        0.267        0.106       56.530       21.016        0.138      334.267        4.127      855.417
10/10/2013  05:13:00      -11.768      -29.049        5.944       60.935       19.943       17.441     3713.091      397.723      304.193        0.272        0.221       31.342       28.357        0.819      334.338        4.246      855.404
10/10/2013  05:14:00      -89.757      -37.204       -6.541       25.735       29.530       19.601      662.312      872.050      384.203        0.570        0.096       97.162       15.303        0.025      334.250        4.100      855.423
10/10/2013  05:15:00     -126.529      -21.313      -10.460       30.541       25.346       17.213      932.756      642.401      296.285        0.922        0.094      128.312       14.973        0.014      334.245        4.090      855.449
10/10/2013  05:16:00     -134.539       -0.519       -7.587       32.447       20.365       20.032     1052.792      414.718      401.264        1.001        0.093      134.540       20.897        0.024      334.178        3.979      855.479
10/10/2013  05:17:00     -117.164      -17.077       -7.967       23.674       22.438       18.071      560.458      503.484      326.561        0.774        0.070      118.402       12.879        0.012      334.196        4.008      855.503
10/10/2013  05:18:00     -100.883        3.475       -4.953       28.549       25.623       21.316      815.053      656.550      454.377        0.607        0.096      100.942       16.899        0.028      334.212        4.034      855.534
10/10/2013  05:19:00      -99.813        4.301       -6.184       24.468       25.175       21.590      598.703      633.787      466.139        0.586        0.085       99.905       19.181        0.037      334.208        4.028      855.566
10/10/2013  05:20:00     -135.076       16.604       -9.399       17.165       14.076        9.185      294.631      198.145       84.362        0.959        0.029      136.093        7.745        0.003      334.245        4.091      855.574
10/10/2013  05:21:00     -103.331      -12.603      -14.034       19.945       18.144       12.964      397.822      329.213      168.070        0.596        0.045      104.096       11.292        0.012      334.226        4.058      855.581
10/10/2013  05:22:00     -102.224       -6.339      -11.278       33.830       23.651       14.244     1144.465      559.365      202.902        0.626        0.095      102.420       14.839        0.021      334.253        4.104      855.585
10/10/2013  05:23:00     -100.314      -29.850       -7.424       21.551       31.298       14.913      464.438      979.556      222.406        0.634        0.083      104.661       13.018        0.015      334.281        4.152      855.582
10/10/2013  05:24:00      -95.597      -49.798      -10.744       19.872       17.701       12.308      394.895      313.331      151.480        0.630        0.043      107.790       10.902        0.010      334.394        4.339      855.574
10/10/2013  05:25:00      -83.139      -43.113       -4.105       18.174       24.985       15.178      330.312      624.271      230.378        0.499        0.059       93.653        5.956        0.004      334.470        4.462      855.571
10/10/2013  05:26:00      -76.011      -40.163       -2.963       16.946       21.580       12.589      287.177      465.717      158.488        0.416        0.046       85.969        7.686        0.008      334.438        4.413      855.573
10/10/2013  05:27:00     -105.608       -7.121      -11.890       20.066       18.750       14.331      402.637      351.558      205.369        0.615        0.048      105.848       12.980        0.015      334.315        4.206      855.592
10/10/2013  05:28:00     -106.076       -8.986      -11.294       22.291       25.873       12.236      496.902      669.391      149.724        0.639        0.066      106.455       10.094        0.009      334.197        4.010      855.616
10/10/2013  05:29:00      -87.241      -23.106      -10.202       28.583       29.538       16.539      816.992      872.493      273.536        0.511        0.098       90.249       14.620        0.026      334.173        3.971      855.640
10/10/2013  05:30:00     -137.420      -18.303      -22.479       29.511       36.678       19.684      870.899     1345.310      387.459        1.116        0.130      138.633       15.184        0.012      334.169        3.963      855.670
10/10/2013  05:31:00     -105.607      -22.275       -8.276       33.004       34.727       23.319     1089.231     1205.960      543.791        0.728        0.142      107.931       18.575        0.030      334.115        3.874      855.704
10/10/2013  05:32:00     -150.392      -27.184      -26.115       32.231       17.921       16.575     1038.840      321.173      274.715        1.284        0.082      152.829       14.760        0.009      334.081        3.818      855.737
10/10/2013  05:33:00     -149.158       -9.304      -15.671       40.842       28.715       24.352     1668.032      824.571      593.041        1.283        0.154      149.448       23.636        0.025      334.044        3.756      855.772
10/10/2013  05:34:00     -150.894       26.568      -17.176       51.780       38.645       29.118     2681.165     1493.459      847.840        1.440        0.251      153.215       24.462        0.025      334.110        3.865      855.806
10/10/2013  05:35:00     -159.776        3.356      -20.351       55.116       66.440       22.033     3037.774     4414.215      485.439        1.694        0.397      159.811       20.048        0.016      334.122        3.885      855.842
10/10/2013  05:36:00     -121.198      -44.677       -4.035       35.122       48.567       26.642     1233.589     2358.727      709.796        1.050        0.215      129.171       18.497        0.021      334.092        3.836      855.863
10/10/2013  05:37:00      -79.082        2.465       -6.990       47.055       37.858       28.129     2214.142     1433.211      791.253        0.537        0.222       79.120       26.268        0.110      334.157        3.944      855.853
10/10/2013  05:38:00     -140.502       45.148      -16.151       41.882       27.583       24.751     1754.117      760.796      612.594        1.258        0.156      147.578       14.680        0.010      334.202        4.019      855.830
10/10/2013  05:39:00      -77.119       34.319      -14.087       20.136       27.432       19.491      405.467      752.522      379.902        0.443        0.077       84.410       14.935        0.031      334.361        4.283      855.792
10/10/2013  05:40:00      -28.017       46.979       -3.000       37.560       23.825       16.985     1410.739      567.614      288.482        0.263        0.113       54.699       19.855        0.132      334.497        4.510      855.743
10/10/2013  05:41:00       11.134       62.262       -8.732       10.718       12.671       11.788      114.871      160.563      138.956        0.225        0.021       63.250        8.600        0.018      334.258        4.114      855.699
10/10/2013  05:42:00       43.961       33.881        0.678       23.739       28.871       19.514      563.522      833.536      380.777        0.243        0.089       55.502       16.507        0.088      334.279        4.147      855.659
10/10/2013  05:43:00       40.497       52.454       -0.186       22.822       37.565       22.678      520.827     1411.154      514.278        0.342        0.122       66.268       21.172        0.102      334.399        4.347      855.622
10/10/2013  05:44:00       35.162       72.149       -3.087       24.042       38.324       21.632      578.019     1468.756      467.938        0.448        0.126       80.261       22.506        0.079      334.475        4.471      855.611
10/10/2013  05:45:00       24.796       88.831       -8.295       33.332       37.538       23.600     1111.045     1409.085      556.978        0.583        0.154       92.227       19.564        0.045      334.566        4.623      855.599
10/10/2013  05:46:00       19.633       97.304       -6.807       51.943       31.467       29.264     2698.073      990.162      856.397        0.722        0.227       99.265       23.522        0.056      334.623        4.716      855.586
10/10/2013  05:47:00       52.763       64.372      -10.574       35.761       33.282       18.685     1278.818     1107.721      349.138        0.489        0.137       83.233       19.159        0.053      334.595        4.671      855.568
10/10/2013  05:48:00       40.175       68.038        7.126       35.880       41.851       27.767     1287.388     1751.543      770.993        0.505        0.190       79.014       24.575        0.097      334.703        4.852      855.568
10/10/2013  05:49:00        3.526       37.199        0.111       19.252       19.255       16.291      370.651      370.746      265.410        0.120        0.050       37.366       13.844        0.137      334.750        4.929      855.565
10/10/2013  05:50:00       53.500       28.798        9.322       23.401       18.186       21.406      547.625      330.719      458.230        0.256        0.067       60.758       12.056        0.039      334.711        4.864      855.565
10/10/2013  05:51:00       44.693       46.700       -4.342       20.724       14.052       11.842      429.477      197.470      140.222        0.248        0.038       64.640        9.305        0.021      334.753        4.935      855.563
10/10/2013  05:52:00       69.500       47.102       12.891       16.590       16.801       13.819      275.218      282.273      190.975        0.398        0.037       83.957        5.669        0.005      334.710        4.861      855.547
10/10/2013  05:53:00       47.843       27.614       18.875        9.908       13.636       13.790       98.171      185.942      190.153        0.194        0.024       55.241        6.787        0.015      334.760        4.945      855.533
10/10/2013  05:54:00       43.578       11.024        5.338       30.075       11.881       13.576      904.516      141.155      184.297        0.164        0.061       44.951       11.908        0.070      334.853        5.099      855.521
10/10/2013  05:55:00        0.456       33.515       43.921       18.873       20.094       17.767      356.197      403.782      315.669        0.206        0.054       33.518       13.190        0.155      334.829        5.062      855.523
10/10/2013  05:56:00        4.577       36.754       60.205       30.884       35.587       31.492      953.804     1266.424      991.720        0.410        0.161       37.038       27.453        0.549      334.996        5.337      855.549
10/10/2013  05:57:00       50.185       38.069       54.073       49.301       44.443       34.505     2430.560     1975.156     1190.587        0.624        0.280       62.990       28.648        0.207      334.836        5.072      855.605
10/10/2013  05:58:00       65.929       11.631       30.641       47.259       37.319       28.391     2233.406     1392.675      806.058        0.493        0.222       66.947       24.740        0.137      334.649        4.760      855.658
10/10/2013  05:59:00       72.254       23.704       15.864       39.146       29.410       23.818     1532.384      864.965      567.291        0.450        0.148       76.043       17.444        0.053      334.704        4.852      855.701
10/10/2013  06:00:00       50.528       16.764       15.466       49.677       20.037       24.706     2467.830      401.469      610.363        0.328        0.174       53.236       19.557        0.135      334.608        4.692      855.727
10/10/2013  06:01:00       15.544       19.710        6.902       22.311       15.171       14.935      497.790      230.164      223.046        0.081        0.048       25.102       10.824        0.186      334.644        4.754      855.742
10/10/2013  06:02:00      -11.104        7.426       -8.838       16.573       19.704       12.203      274.669      388.241      148.923        0.053        0.041       13.358       12.484        0.873      334.785        4.987      855.766
10/10/2013  06:03:00      -34.639       -6.695       -4.620       21.183        8.823       10.261      448.728       77.838      105.282        0.095        0.032       35.280       12.026        0.116      334.697        4.841      855.797
10/10/2013  06:04:00      -47.135       14.072      -10.742       39.441       40.357       28.498     1555.620     1628.670      812.162        0.327        0.200       49.191       19.739        0.161      334.959        5.276      855.824
10/10/2013  06:05:00      -32.415       23.354       -6.185       24.024       57.315       16.427      577.169     3285.050      269.859        0.288        0.207       39.952       21.665        0.294      335.010        5.361      855.843
10/10/2013  06:06:00      -48.985        1.443       -7.616       36.104       43.348       23.728     1303.498     1879.052      563.008        0.310        0.187       49.006       25.299        0.267      335.047        5.421      855.851
10/10/2013  06:07:00      -34.363       21.298       -4.395       37.279       32.005       15.032     1389.758     1024.290      225.966        0.215        0.132       40.427       13.458        0.111      334.975        5.302      855.867
10/10/2013  06:08:00      -26.930      -16.147        2.501       37.671       15.903       13.923     1419.069      252.904      193.842        0.143        0.093       31.400       13.184        0.176      334.827        5.056      855.871
10/10/2013  06:09:00      -17.772      -28.248        2.106       25.209       18.807       15.630      635.499      353.705      244.298        0.118        0.062       33.373       13.348        0.160      334.966        5.286      855.890
10/10/2013  06:10:00       -8.693      -47.827        2.884       46.403       31.865       19.956     2153.192     1015.358      398.236        0.297        0.178       48.610       21.364        0.193      334.911        5.195      855.925
10/10/2013  06:11:00      -42.476      -46.069        0.694       36.048       37.928       21.811     1299.437     1438.546      475.728        0.357        0.161       62.663       18.644        0.089      334.875        5.136      855.962
10/10/2013  06:12:00     -103.611      -82.331       -1.334       41.952       48.186       24.659     1759.958     2321.928      608.043        1.110        0.234      132.339       16.057        0.015      334.659        4.777      855.994
10/10/2013  06:13:00      -86.305      -71.579        4.277       47.116       49.817       26.532     2219.955     2481.701      703.967        0.900        0.270      112.125       26.215        0.055      334.621        4.714      856.036
10/10/2013  06:14:00      -71.532      -86.251       -1.156       43.345       46.167       28.884     1878.793     2131.368      834.272        0.870        0.242      112.053       19.574        0.031      334.693        4.834      856.063
10/10/2013  06:15:00      -70.859      -74.918        3.591       46.044       43.868       27.636     2120.086     1924.441      763.773        0.773        0.240      103.119       23.811        0.053      334.771        4.964      856.074
10/10/2013  06:16:00      -89.056      -78.809       -7.453       30.237       25.025       19.656      914.283      626.249      386.364        0.806        0.096      118.919       18.213        0.023      334.739        4.910      856.074
10/10/2013  06:17:00      -40.053      -71.478      -15.546       35.687       20.085       11.386     1273.549      403.397      129.630        0.438        0.090       81.935       13.723        0.028      334.744        4.917      856.059
10/10/2013  06:18:00        8.797        3.568       16.896       18.032       29.449       29.045      325.146      867.259      843.589        0.121        0.102        9.493       25.991        7.496      334.771        4.962      856.052
10/10/2013  06:19:00      -14.962       29.976        6.079       13.318       17.478       14.691      177.375      305.467      215.826        0.093        0.035       33.502       10.312        0.095      334.742        4.915      856.062
10/10/2013  06:20:00       -9.659       27.009        1.079        9.809       14.343       13.085       96.216      205.715      171.213        0.065        0.024       28.685       11.981        0.174      334.712        4.865      856.085
10/10/2013  06:21:00       -4.903       15.729        8.333        9.723        9.824       10.250       94.546       96.512      105.053        0.032        0.015       16.476        5.755        0.122      334.725        4.887      856.097
10/10/2013  06:22:00      -21.097        6.109        2.628       15.301        8.432        9.868      234.110       71.104       97.371        0.045        0.020       21.963        7.768        0.125      334.749        4.928      856.115
10/10/2013  06:23:00      -28.454      -33.766        0.155       27.910       28.086       19.085      778.973      788.802      364.229        0.194        0.097       44.156       14.475        0.107      334.765        4.953      856.140
10/10/2013  06:24:00      -54.958      -60.646        3.556       47.596       35.159       24.357     2265.388     1236.154      593.241        0.540        0.205       81.843       25.150        0.094      334.693        4.833      856.170
10/10/2013  06:25:00     -127.460      -72.438       -1.214       36.716       25.299       21.970     1348.074      640.060      482.678        1.198        0.124      146.606       20.065        0.019      334.698        4.842      856.188
10/10/2013  06:26:00     -126.223      -72.785       -6.648       41.220       35.498       19.530     1699.066     1260.079      381.411        1.231        0.167      145.705        5.276        0.001      334.611        4.697      856.184
10/10/2013  06:27:00      -70.487      -41.561       -7.407       45.557       20.148       15.262     2075.470      405.939      232.930        0.473        0.136       81.828       16.780        0.042      334.674        4.803      856.181
10/10/2013  06:28:00      -73.585      -35.099       -3.640       30.277       20.674       14.843      916.708      427.433      220.318        0.411        0.078       81.527       12.482        0.023      334.678        4.809      856.182
10/10/2013  06:29:00      -86.760      -13.496       -8.398       28.590       31.337       14.966      817.408      982.031      223.987        0.490        0.101       87.803       13.445        0.023      334.558        4.609      856.181
10/10/2013  06:30:00     -115.315        3.113      -14.917       32.766       23.796       14.499     1073.583      566.231      210.210        0.769        0.093      115.357       14.570        0.016      334.527        4.559      856.183
10/10/2013  06:31:00     -155.420       15.566      -16.996       51.097       26.690       18.933     2610.890      712.349      358.460        1.418        0.184      156.197       18.533        0.014      334.493        4.502      856.182
10/10/2013  06:32:00     -152.211      -23.593      -11.968       32.683       31.528       24.462     1068.153      993.986      598.388        1.326        0.133      154.029       21.307        0.019      334.403        4.353      856.163
10/10/2013  06:33:00     -112.559      -34.448       -6.338       44.237       26.726       16.868     1956.875      714.300      284.513        0.843        0.148      117.712       14.170        0.014      334.458        4.444      856.165
10/10/2013  06:34:00     -110.133      -15.623       -2.489       42.101       23.652       21.411     1772.531      559.415      458.433        0.758        0.140      111.235       24.167        0.047      334.355        4.273      856.178
10/10/2013  06:35:00     -147.002       -3.285      -12.756       33.579       38.373       20.429     1127.530     1472.525      417.347        1.240        0.151      147.039       19.476        0.018      334.186        3.991      856.193
10/10/2013  06:36:00     -114.431      -35.179       -3.625       37.034       27.646       21.035     1371.550      764.324      442.470        0.846        0.129      119.717       14.522        0.015      334.197        4.010      856.198
10/10/2013  06:37:00      -99.425      -10.363       -9.785       40.074       26.520       14.229     1605.959      703.309      202.455        0.630        0.126       99.964       12.262        0.015      334.302        4.186      856.198
10/10/2013  06:38:00     -130.636        3.130      -13.934       23.402       25.800       16.152      547.630      665.643      260.871        0.937        0.074      130.674       13.261        0.010      334.263        4.120      856.197
10/10/2013  06:39:00      -68.768        6.845       -7.310       32.701       27.550       16.646     1069.381      759.005      277.078        0.347        0.105       69.108       16.269        0.055      334.254        4.106      856.198
10/10/2013  06:40:00      -60.376      -13.435       -7.409       20.378       18.572       14.432      415.245      344.923      208.270        0.242        0.048       61.852       13.050        0.045      334.274        4.139      856.213
10/10/2013  06:41:00      -66.228      -16.622       -6.351       23.550       23.315       17.318      554.592      543.578      299.916        0.305        0.070       68.282       14.725        0.047      334.377        4.310      856.218
10/10/2013  06:42:00      -60.682      -22.871       -4.267       20.305       19.974       10.820      412.306      398.967      117.082        0.258        0.046       64.849        8.227        0.016      334.386        4.325      856.215
10/10/2013  06:43:00      -83.150       -4.365       -6.862       15.107       10.435       12.045      228.213      108.899      145.089        0.373        0.024       83.265        8.218        0.010      334.281        4.151      856.220
10/10/2013  06:44:00      -84.146      -27.025       -9.942       16.249       14.764        9.062      264.040      217.984       82.126        0.424        0.028       88.379        6.157        0.005      334.398        4.346      856.217
10/10/2013  06:45:00      -82.019      -30.393       -7.363       15.574       17.213       11.828      242.564      296.273      139.905        0.419        0.034       87.469        5.140        0.003      334.443        4.418      856.213
10/10/2013  06:46:00      -52.450      -25.761       -4.825       22.785       12.883       13.195      519.134      165.970      174.099        0.215        0.043       58.435       12.574        0.046      334.539        4.579      856.206
10/10/2013  06:47:00      -30.602      -12.505       -3.845       17.463        9.928        8.151      304.964       98.566       66.441        0.079        0.023       33.058        6.916        0.044      334.505        4.523      856.193
10/10/2013  06:48:00      -20.878       -4.304       -1.147        7.007        6.126        6.173       49.098       37.528       38.101        0.029        0.006       21.317        3.892        0.033      334.554        4.605      856.189
10/10/2013  06:49:00      -13.346       14.066        3.933        9.512       13.939        6.345       90.473      194.300       40.253        0.036        0.016       19.390        3.518        0.033      334.594        4.670      856.179
10/10/2013  06:50:00       25.832       52.829       -2.724       11.066       10.614        9.720      122.447      112.649       94.480        0.190        0.016       58.807        8.150        0.019      334.459        4.446      856.183
10/10/2013  06:51:00       38.538       52.781       -4.144        8.518       15.837        9.340       72.562      250.810       87.236        0.235        0.021       65.353        9.997        0.023      334.452        4.435      856.177
10/10/2013  06:52:00       33.232       30.405       -6.020       10.997       16.142       12.119      120.933      260.572      146.873        0.130        0.026       45.042        9.345        0.043      334.445        4.423      856.172
10/10/2013  06:53:00       10.199       21.790       -5.821       18.296       19.148       11.338      334.748      366.641      128.547        0.072        0.041       24.059       12.242        0.259      334.378        4.312      856.172
10/10/2013  06:54:00       10.630       59.045       -7.633       14.298       15.969       11.402      204.433      255.004      130.005        0.212        0.029       59.995        7.031        0.014      334.296        4.176      856.191
10/10/2013  06:55:00      -19.334       67.408        2.677       27.953       54.713       23.553      781.365     2993.510      554.731        0.463        0.216       70.126       22.671        0.105      334.285        4.156      856.214
10/10/2013  06:56:00      -66.179        8.244       -3.975       30.199       19.898       14.845      911.962      395.918      220.363        0.300        0.076       66.690       12.899        0.037      334.304        4.189      856.228
10/10/2013  06:57:00     -119.494       -5.520       -8.320       27.838       28.724       17.269      774.968      825.091      298.207        0.814        0.095      119.622        9.769        0.007      334.211        4.032      856.227
10/10/2013  06:58:00      -63.465      -51.821       -7.813       26.682       27.239       21.746      711.933      741.942      472.869        0.435        0.096       81.935       15.071        0.034      334.254        4.106      856.226
10/10/2013  06:59:00      -72.258      -32.663       -9.239       37.665       25.100       16.819     1418.646      629.996      282.871        0.435        0.117       79.298       11.956        0.023      334.298        4.177      856.220
10/10/2013  07:00:00     -106.526      -42.166      -11.292       17.082       19.159       14.268      291.793      367.071      203.582        0.706        0.043      114.568       10.726        0.009      334.327        4.228      856.233
10/10/2013  07:01:00     -109.467      -40.363       -4.534       23.368       31.645       21.958      546.047     1001.391      482.157        0.783        0.101      116.672       16.248        0.019      334.337        4.243      856.256
10/10/2013  07:02:00      -99.264      -11.754       -8.215       21.882       19.598       16.525      478.822      384.089      273.059        0.560        0.057       99.958       13.404        0.018      334.307        4.195      856.273
10/10/2013  07:03:00      -60.434       -6.466       -5.785       11.916       16.565       10.740      142.000      274.400      115.357        0.213        0.027       60.779        7.533        0.015      334.330        4.230      856.272
10/10/2013  07:04:00      -42.942      -19.460       -8.051       17.597       15.505       12.162      309.653      240.405      147.922        0.149        0.035       47.145        8.632        0.034      334.456        4.440      856.261
10/10/2013  07:05:00      -48.763      -20.220       -6.837       32.559       19.019       13.776     1060.060      361.736      189.781        0.222        0.081       52.789       10.930        0.043      334.415        4.372      856.258
10/10/2013  07:06:00      -56.519      -68.939        2.368       50.609       35.626       25.590     2561.301     1269.196      654.834        0.622        0.224       89.146       25.045        0.079      334.433        4.402      856.255
10/10/2013  07:07:00      -74.445      -54.687       -9.722       45.708       55.401       29.694     2089.187     3069.291      881.739        0.733        0.302       92.373       33.763        0.134      334.303        4.187      856.262
10/10/2013  07:08:00      -79.665      -48.582       -2.858       34.365       30.401       34.055     1180.950      924.230     1159.714        0.599        0.163       93.310       18.017        0.037      334.331        4.233      856.281
10/10/2013  07:09:00      -55.989      -49.540        4.279       53.493       29.360       19.719     2861.490      862.027      388.831        0.486        0.206       74.760       21.258        0.081      334.387        4.326      856.296
10/10/2013  07:10:00      -62.459      -39.444        6.885       27.544       25.505       18.799      758.660      650.496      353.387        0.363        0.088       73.871       14.154        0.037      334.369        4.297      856.309
10/10/2013  07:11:00      -70.944      -34.135       10.148       52.209       42.347       29.722     2725.737     1793.254      883.419        0.585        0.270       78.729       30.991        0.155      334.271        4.134      856.320
10/10/2013  07:12:00      -76.995      -72.333       -0.363       48.487       36.851       22.241     2350.965     1358.019      494.661        0.768        0.210      105.642       23.740        0.050      334.327        4.227      856.304
10/10/2013  07:13:00      -91.132     -116.287       -2.389       45.253       41.176       23.749     2047.848     1695.451      564.032        1.307        0.215      147.742       19.898        0.018      334.267        4.129      856.295
10/10/2013  07:14:00      -73.296     -104.118        8.244       46.691       49.509       27.248     2180.020     2451.118      742.457        1.083        0.269      127.329       28.789        0.051      334.293        4.171      856.282
10/10/2013  07:15:00      -40.128      -40.201       11.262       45.750       33.160       20.032     2093.027     1099.577      401.267        0.347        0.180       56.802       17.323        0.093      334.353        4.269      856.280
10/10/2013  07:16:00      -18.124      -32.752        4.992       25.669       24.152       17.414      658.882      583.325      303.242        0.149        0.077       37.432       14.538        0.151      334.461        4.448      856.271
10/10/2013  07:17:00      -16.737      -49.381        8.000       32.203       45.854       27.642     1037.058     2102.635      764.086        0.334        0.195       52.140       23.722        0.207      334.542        4.582      856.262
10/10/2013  07:18:00        4.337      -39.716        9.750       35.178       35.054       23.161     1237.486     1228.778      536.422        0.235        0.150       39.953       15.964        0.160      334.614        4.702      856.257
10/10/2013  07:19:00      -21.338      -35.841       13.140       42.944       28.703       20.357     1844.205      823.845      414.405        0.250        0.154       41.712       24.770        0.353      334.611        4.697      856.248
10/10/2013  07:20:00      -42.702      -39.708        7.378       44.522       26.370       20.328     1982.197      695.395      413.238        0.327        0.155       58.311       21.697        0.138      334.533        4.568      856.254
10/10/2013  07:21:00      -57.823      -49.858       10.232       42.861       28.376       23.502     1837.054      805.219      552.358        0.456        0.160       76.350       23.344        0.093      334.535        4.573      856.260
10/10/2013  07:22:00      -33.786      -57.078        8.613       40.679       29.542       24.469     1654.756      872.757      598.722        0.380        0.156       66.328       22.903        0.119      334.560        4.613      856.269
10/10/2013  07:23:00      -71.606      -69.695        0.353       33.848       26.239       19.557     1145.669      688.485      382.465        0.610        0.111       99.924       19.070        0.036      334.568        4.627      856.286
10/10/2013  07:24:00      -45.186      -40.278        5.146       33.886       29.223       17.338     1148.275      854.001      300.611        0.300        0.115       60.532       14.020        0.054      334.553        4.602      856.295
10/10/2013  07:25:00      -14.121       -6.711       11.000       36.140       15.496       16.959     1306.090      240.128      287.616        0.110        0.092       15.635        9.839        0.396      334.619        4.711      856.296
10/10/2013  07:26:00        2.651        2.903       19.269       16.447        6.090        7.563      270.496       37.091       57.199        0.038        0.018        3.931        3.732        0.901      334.677        4.807      856.300
10/10/2013  07:27:00       14.750       25.499       10.338       14.344       12.590       13.022      205.748      158.517      169.578        0.075        0.027       29.458        9.410        0.102      334.618        4.708      856.300
10/10/2013  07:28:00       41.417       34.632        9.302       18.955       16.876       15.094      359.291      284.786      227.824        0.194        0.044       53.988        5.806        0.012      334.576        4.641      856.305
10/10/2013  07:29:00       38.078       44.228       19.626       17.882       17.777       16.724      319.760      316.013      279.698        0.235        0.046       58.362       11.735        0.040      334.627        4.725      856.314
10/10/2013  07:30:00       61.053       46.229        3.716       16.618       11.631       12.431      276.169      135.289      154.537        0.322        0.028       76.581        7.699        0.010      334.568        4.626      856.319
10/10/2013  07:31:00       77.207       49.645        4.525       12.338       12.166       13.190      152.233      148.003      173.980        0.446        0.024       91.791        4.684        0.003      334.547        4.591      856.323
10/10/2013  07:32:00       97.034       52.315        2.955       16.437       15.105       13.412      270.174      228.154      179.886        0.642        0.034      110.238        7.350        0.004      334.534        4.568      856.321
10/10/2013  07:33:00       78.912       46.278        0.497       29.508       15.438       20.988      870.730      238.321      440.509        0.496        0.077       91.481       15.167        0.027      334.472        4.467      856.342
10/10/2013  07:34:00       26.476       24.220       -0.379       14.652       20.813       14.631      214.669      433.192      214.064        0.107        0.043       35.883       12.682        0.125      334.411        4.367      856.365
10/10/2013  07:35:00        7.713       55.008       -7.299        9.631       32.367       11.812       92.753     1047.608      139.520        0.221        0.064       55.546       16.413        0.087      334.390        4.330      856.376
10/10/2013  07:36:00       -4.342       57.964       -0.311       13.424       25.255        9.779      180.215      637.825       95.633        0.215        0.046       58.126        7.417        0.016      334.396        4.343      856.392
10/10/2013  07:37:00       -6.474       22.659       -1.223       17.802       19.833       11.727      316.898      393.353      137.533        0.070        0.042       23.566        9.599        0.166      334.429        4.397      856.401
10/10/2013  07:38:00      -24.869       32.687       -3.979       12.325       19.202       12.663      151.908      368.730      160.360        0.119        0.034       41.072        7.329        0.032      334.476        4.472      856.400
10/10/2013  07:39:00      -13.612        7.433        7.436       15.652       12.951        8.460      244.985      167.721       71.571        0.039        0.024       15.509        9.719        0.393      334.556        4.605      856.407
10/10/2013  07:40:00       -5.451        9.305        6.335        9.090        9.207        8.719       82.632       84.765       76.022        0.020        0.012       10.784        6.452        0.358      334.529        4.562      856.418
10/10/2013  07:41:00        1.491       10.220        5.591        5.492       11.089        8.103       30.164      122.976       65.656        0.018        0.011       10.328        7.381        0.511      334.504        4.521      856.420
10/10/2013  07:42:00       26.108       30.033        2.390        9.006       11.417       12.377       81.111      130.356      153.199        0.098        0.018       39.795        7.931        0.040      334.445        4.424      856.424
10/10/2013  07:43:00       13.102       22.309       -2.443        8.223        7.063        4.159       67.614       49.887       17.301        0.041        0.007       25.872        3.967        0.024      334.453        4.434      856.420
10/10/2013  07:44:00       -1.021       14.525       -5.046        5.048        7.496        5.203       25.479       56.187       27.069        0.017        0.005       14.560        4.562        0.098      334.524        4.556      856.427
10/10/2013  07:45:00       -2.628        0.661        4.012        9.634        4.459        5.844       92.815       19.886       34.147        0.009        0.007        2.710        4.110        2.300      334.665        4.789      856.423
10/10/2013  07:46:00      -20.608       -8.886       -0.512       17.255       13.491        9.328      297.751      182.000       87.010        0.054        0.028       22.442        7.555        0.113      334.640        4.743      856.420
10/10/2013  07:47:00      -32.418       -5.083       -0.301       12.838       14.022       10.293      164.814      196.605      105.945        0.077        0.023       32.814        9.615        0.086      334.606        4.690      856.430
10/10/2013  07:48:00      -59.343       13.653       -1.280       16.766       15.885        7.807      281.109      252.342       60.947        0.215        0.030       60.894        7.403        0.015      334.509        4.526      856.434
10/10/2013  07:49:00      -58.410       12.281       -5.080        9.515        6.815        7.030       90.531       46.438       49.418        0.189        0.009       59.687        3.740        0.004      334.469        4.462      856.453
10/10/2013  07:50:00      -54.719        5.097       -4.585       13.566       12.448        6.908      184.042      154.964       47.722        0.171        0.019       54.956        5.196        0.009      334.552        4.598      856.470
10/10/2013  07:51:00      -62.418       -6.306       -5.931       10.923       10.088        8.279      119.313      101.775       68.549        0.213        0.014       62.736        6.097        0.009      334.566        4.623      856.470
10/10/2013  07:52:00      -65.825      -14.119       -9.105       11.197       10.918        8.620      125.383      119.213       74.303        0.247        0.016       67.323        7.176        0.011      334.637        4.741      856.481
10/10/2013  07:53:00      -80.117      -15.945       -9.863       14.166       10.627       10.309      200.681      112.933      106.286        0.359        0.021       81.688        6.655        0.007      334.612        4.699      856.476
10/10/2013  07:54:00      -71.006      -27.975      -12.416       18.803       18.858       11.300      353.538      355.631      127.686        0.341        0.042       76.318        4.205        0.003      334.637        4.739      856.483
10/10/2013  07:55:00      -78.863      -42.876       -5.243       31.710       26.533       14.948     1005.502      704.021      223.436        0.501        0.097       89.765        4.783        0.003      334.686        4.822      856.487
10/10/2013  07:56:00      -86.471      -14.126       -4.735       21.094       21.755       11.567      444.962      473.278      133.793        0.438        0.053       87.617        6.064        0.005      334.646        4.756      856.493
10/10/2013  07:57:00      -58.389      -33.474        1.509       63.236       30.350       24.327     3998.784      921.115      591.789        0.502        0.276       67.304       27.905        0.172      334.662        4.782      856.513
10/10/2013  07:58:00     -115.963      -48.786       -8.917       23.342       25.597       14.965      544.863      655.204      223.951        0.867        0.071      125.807        4.224        0.001      334.688        4.824      856.528
10/10/2013  07:59:00     -123.262      -43.027       -8.856       25.883       18.179       13.836      669.924      330.492      191.445        0.916        0.060      130.556       13.760        0.011      334.623        4.718      856.545
10/10/2013  08:00:00     -115.410      -44.505      -15.941       20.186       16.918       10.493      407.463      286.215      110.097        0.818        0.040      123.693        8.879        0.005      334.642        4.747      856.541
10/10/2013  08:01:00      -44.117       -6.368        2.971       35.396       23.482       16.950     1252.863      551.413      287.290        0.204        0.105       44.574       21.502        0.233      334.719        4.876      856.529
10/10/2013  08:02:00      -75.981        1.285       -9.515       28.713       26.967       17.019      824.461      727.236      289.658        0.385        0.092       75.992       14.758        0.038      334.576        4.640      856.521
10/10/2013  08:03:00      -77.612       -6.499       -8.640       40.822       24.220       16.148     1666.419      586.595      260.770        0.433        0.126       77.883        6.687        0.007      334.618        4.709      856.520
10/10/2013  08:04:00      -82.286      -21.273       -6.057       30.936       25.131       16.232      957.039      631.584      263.484        0.456        0.093       84.991       14.112        0.028      334.702        4.848      856.535
10/10/2013  08:05:00      -55.647      -13.233       -2.363       33.307       19.956       16.190     1109.376      398.237      262.103        0.252        0.088       57.199       12.287        0.046      334.776        4.971      856.538
10/10/2013  08:06:00      -28.746      -24.247       -0.997       29.606       22.568       18.049      876.530      509.323      325.760        0.156        0.086       37.606       15.368        0.167      334.790        4.994      856.548
10/10/2013  08:07:00      -61.359        4.880      -10.327       27.754       24.875       13.337      770.259      618.780      177.883        0.273        0.078       61.553        9.951        0.026      334.712        4.866      856.549
10/10/2013  08:08:00     -108.416       36.866      -16.469       24.005       20.187       14.456      576.218      407.528      208.982        0.729        0.060      114.513        8.862        0.006      334.691        4.830      856.561
10/10/2013  08:09:00      -73.336       36.674      -12.059       22.092       22.414       14.721      488.042      502.395      216.714        0.404        0.060       81.995       10.798        0.017      334.692        4.832      856.561
10/10/2013  08:10:00      -68.335       32.468      -10.035       24.627       20.259       16.576      606.508      410.408      274.765        0.356        0.065       75.656       15.878        0.044      334.754        4.935      856.575
10/10/2013  08:11:00      -91.003        4.135      -12.083       27.454       23.504       16.885      753.726      552.429      285.093        0.502        0.080       91.097       16.955        0.035      334.786        4.988      856.580
10/10/2013  08:12:00      -84.360      -14.202      -11.300       21.587       25.698       14.399      466.007      660.362      207.322        0.439        0.067       85.548       12.121        0.020      334.826        5.054      856.588
10/10/2013  08:13:00      -82.167      -49.867      -13.207       40.106       32.023       24.796     1608.486     1025.480      614.835        0.633        0.162       96.116       12.808        0.018      334.909        5.194      856.588
10/10/2013  08:14:00     -107.984      -39.534      -20.302       28.003       30.407       22.479      784.147      924.584      505.327        0.792        0.111      114.993       15.760        0.019      334.790        4.994      856.597
10/10/2013  08:15:00      -63.436       -9.755       -7.095       26.410       32.038       21.523      697.512     1026.436      463.259        0.318        0.109       64.181        4.925        0.006      334.825        5.053      856.602
10/10/2013  08:16:00      -65.940      -36.066      -10.035       27.831       21.030       19.142      774.581      442.251      366.435        0.367        0.079       75.159       14.167        0.036      334.841        5.079      856.607
10/10/2013  08:17:00      -64.669      -22.427       -8.200       28.326       28.733       18.883      802.386      825.571      356.583        0.337        0.099       68.447        9.669        0.020      334.896        5.171      856.604
10/10/2013  08:18:00      -55.002      -27.951        1.828       36.035       28.646       23.125     1298.538      820.576      534.748        0.323        0.133       61.697        9.693        0.025      334.993        5.332      856.599
10/10/2013  08:19:00      -34.285      -40.062        3.570       37.771       24.648       24.929     1426.678      607.504      621.442        0.272        0.133       52.730       15.011        0.081      335.001        5.345      856.599
10/10/2013  08:20:00      -95.913      -35.473       -9.845       42.643       27.232       14.664     1818.384      741.584      215.038        0.666        0.139      102.263       17.071        0.028      334.926        5.222      856.621
10/10/2013  08:21:00      -99.405      -15.207      -10.229       15.808       21.730       11.217      249.890      472.179      125.817        0.553        0.042      100.561        5.791        0.003      334.834        5.069      856.648
10/10/2013  08:22:00      -24.014       -5.737        0.515       28.481       15.182       13.936      811.158      230.482      194.200        0.092        0.062       24.690       17.879        0.524      334.890        5.159      856.682
10/10/2013  08:23:00      -73.691        7.923       -3.888       21.582       40.124       22.042      465.793     1609.911      485.832        0.403        0.128       74.116       18.744        0.064      334.897        5.174      856.690
10/10/2013  08:24:00      -63.280        4.754       -9.227       17.509       13.897       12.056      306.563      193.139      145.342        0.238        0.032       63.459        7.483        0.014      334.940        5.242      856.700
10/10/2013  08:25:00      -47.248       -6.698       -4.342       11.846       10.264        8.025      140.331      105.356       64.396        0.130        0.016       47.721        3.680        0.006      334.978        5.306      856.688
10/10/2013  08:26:00      -63.496      -17.234       -4.701       18.858       13.839       11.057      355.639      191.518      122.268        0.251        0.033       65.793        7.693        0.014      335.009        5.359      856.677
10/10/2013  08:27:00      -32.536       10.194        6.338       22.523       20.616       13.486      507.306      425.029      181.861        0.116        0.056       34.096       15.305        0.201      335.090        5.494      856.669
10/10/2013  08:28:00       -9.122       28.801        0.533       12.948       22.710       17.246      167.661      515.766      297.441        0.095        0.049       30.211       16.044        0.282      335.244        5.749      856.666
10/10/2013  08:29:00       -6.288       32.140        4.777       16.555       28.419       14.379      274.067      807.628      206.746        0.119        0.064       32.750       11.991        0.134      335.318        5.871      856.670
10/10/2013  08:30:00        0.660       68.201       -3.621       11.527       22.812       11.190      132.870      520.385      125.220        0.272        0.039       68.204       10.111        0.022      335.122        5.547      856.684
10/10/2013  08:31:00       -2.980       26.501        1.068       15.551       29.394       15.713      241.844      863.996      246.886        0.103        0.068       26.668       15.003        0.317      335.282        5.812      856.699
10/10/2013  08:32:00      -20.586       -1.963        5.153       17.240       19.705       16.714      297.205      388.282      279.344        0.071        0.048       20.680       13.590        0.432      335.334        5.898      856.714
10/10/2013  08:33:00      -33.151        4.365        4.635       16.449       11.870        7.463      270.558      140.888       55.692        0.080        0.023       33.437        5.630        0.028      335.222        5.711      856.726
10/10/2013  08:34:00      -13.170       40.951       -6.428       20.147       18.756       14.526      405.921      351.790      210.996        0.143        0.048       43.017        3.867        0.008      335.270        5.790      856.739
10/10/2013  08:35:00       -5.137       55.212       -5.278       17.418       22.906       14.408      303.388      524.691      207.578        0.207        0.052       55.451       10.579        0.036      335.359        5.940      856.740
10/10/2013  08:36:00        4.907       55.866        0.783       18.706       28.640       20.504      349.913      820.277      420.395        0.237        0.080       56.082       19.670        0.123      335.392        5.994      856.735
10/10/2013  08:37:00        0.816       49.036       -3.628       18.852       22.534       15.844      355.388      507.787      251.034        0.177        0.056       49.043       15.340        0.098      335.409        6.022      856.733
10/10/2013  08:38:00       39.891       45.521        2.861       24.853       27.223       17.473      617.658      741.100      305.310        0.267        0.083       60.526       17.499        0.084      335.320        5.874      856.731
10/10/2013  08:39:00       30.530       21.504       -2.987       23.063       19.373       11.707      531.906      375.323      137.059        0.122        0.052       37.343        9.403        0.063      335.357        5.938      856.735
10/10/2013  08:40:00       12.182       37.571       -1.131       21.499       14.621       16.099      462.186      213.777      259.183        0.125        0.047       39.497       15.374        0.152      335.461        6.109      856.745
10/10/2013  08:41:00       22.901       62.943       -8.510       12.649       24.428       11.072      160.007      596.717      122.590        0.272        0.044       66.980       11.220        0.028      335.435        6.066      856.755
10/10/2013  08:42:00       -9.796       62.741       -6.401       17.671       18.022       13.251      312.262      324.805      175.593        0.244        0.041       63.501        9.687        0.023      335.427        6.053      856.776
10/10/2013  08:43:00       10.025       56.944        2.838       31.293       22.539       17.314      979.226      507.998      299.790        0.257        0.089       57.820       10.536        0.033      335.583        6.312      856.791
10/10/2013  08:44:00       12.281       41.416       -6.932       26.772       18.847       15.478      716.752      355.198      239.583        0.161        0.066       43.198        8.010        0.034      335.588        6.323      856.811
10/10/2013  08:45:00       -8.859       30.716       -8.208       15.171       19.093       14.615      230.146      364.524      213.611        0.095        0.040       31.968        7.284        0.052      335.547        6.253      856.821
10/10/2013  08:46:00       23.718       31.459       -1.688       29.295       22.815       17.574      858.212      520.518      308.842        0.162        0.084       39.398       12.905        0.107      335.518        6.206      856.833
10/10/2013  08:47:00       13.768       18.264        7.496       15.596       22.750       18.044      243.244      517.540      325.587        0.083        0.054       22.873       17.333        0.574      335.572        6.295      856.837
10/10/2013  08:48:00       31.093       35.506        3.953       12.499       15.341       20.111      156.220      235.334      404.440        0.152        0.040       47.196       12.517        0.070      335.485        6.151      856.833
10/10/2013  08:49:00       24.616        5.029       15.693       19.471       26.249       27.015      379.105      688.996      729.797        0.134        0.090       25.124       16.107        0.411      335.725        6.550      856.840
10/10/2013  08:50:00       58.748       49.436       24.678       17.739       16.899       10.344      314.676      285.567      106.998        0.361        0.035       76.781        5.056        0.004      335.503        6.180      856.833
10/10/2013  08:51:00        7.349       26.897       35.971       14.750       16.763        7.216      217.573      281.009       52.069        0.131        0.028       27.883        6.261        0.050      335.769        6.624      856.841
10/10/2013  08:52:00       13.366       42.564       26.829       23.862       19.872       20.170      569.390      394.891      406.825        0.204        0.069       44.614       10.499        0.055      335.853        6.763      856.837
10/10/2013  08:53:00       24.192       32.580       13.850       28.106       19.335       26.610      789.963      373.860      708.105        0.185        0.094       40.580       17.863        0.194      335.885        6.817      856.848
10/10/2013  08:54:00        5.006       10.959       -6.722       28.103       18.818       12.853      789.752      354.111      165.200        0.075        0.065       12.048        8.389        0.485      335.763        6.613      856.857
10/10/2013  08:55:00      -35.836       19.317        2.626       16.743       16.134       15.824      280.328      260.307      250.392        0.123        0.040       40.711       12.622        0.096      335.744        6.582      856.875
10/10/2013  08:56:00      -63.063        0.669        4.927       13.933       17.125       21.785      194.131      293.273      474.592        0.248        0.048       63.067        8.763        0.019      335.772        6.629      856.891
10/10/2013  08:57:00      -49.768      -36.549       -7.565       31.332       31.010       15.978      981.719      961.593      255.302        0.303        0.110       61.747       13.806        0.050      335.812        6.695      856.907
10/10/2013  08:58:00      -10.821      -39.959       -0.455       24.993       33.280       18.554      624.667     1107.544      344.262        0.189        0.104       41.398       13.627        0.108      335.800        6.675      856.907
10/10/2013  08:59:00      -27.432      -38.131       -9.262       14.869       28.723       15.628      221.080      824.997      244.248        0.179        0.065       46.973        7.702        0.027      335.643        6.414      856.905
10/10/2013  09:00:00      -48.061      -38.899       -6.435       26.798       25.196       12.922      718.146      634.862      166.984        0.269        0.076       61.830        6.635        0.012      335.701        6.510      856.893
10/10/2013  09:01:00      -95.561     -108.843       -3.667       45.866       42.001       32.308     2103.659     1764.125     1043.817        1.295        0.246      144.840       32.558        0.051      335.680        6.475      856.888
10/10/2013  09:02:00      -74.549      -87.650       -1.694       32.848       27.788       17.597     1078.963      772.170      309.667        0.770        0.108      115.066       16.638        0.021      335.697        6.504      856.885
10/10/2013  09:03:00      -34.231      -76.809        2.063       26.583       30.022       22.602      706.644      901.350      510.855        0.460        0.106       84.092       17.476        0.043      335.852        6.761      856.887
10/10/2013  09:04:00      -49.371      -42.738        4.412       40.297       28.598       17.563     1623.840      817.864      308.476        0.352        0.138       65.300       19.013        0.085      335.940        6.908      856.893
10/10/2013  09:05:00      -43.448      -25.153       11.735       48.239       32.157       27.269     2327.041     1034.100      743.622        0.338        0.205       50.204       25.055        0.249      335.970        6.959      856.892
10/10/2013  09:06:00      -74.713      -52.868       -4.001       31.836       31.934       20.557     1013.527     1019.780      422.582        0.542        0.123       91.526       18.625        0.041      335.841        6.743      856.901
10/10/2013  09:07:00      -59.682      -58.269       10.100       59.644       37.720       31.672     3557.372     1422.798     1003.115        0.652        0.299       83.410       28.114        0.114      335.840        6.741      856.917
10/10/2013  09:08:00      -76.542      -86.770        6.180       55.965       44.977       28.917     3132.057     2022.907      836.173        0.971        0.300      115.705       27.423        0.056      335.863        6.780      856.934
10/10/2013  09:09:00      -59.955      -53.746      -12.114       25.406       37.469       13.241      645.440     1403.939      175.312        0.443        0.111       80.519       10.357        0.017      335.683        6.481      856.960
10/10/2013  09:10:00      -21.265      -78.201        3.625       37.171       39.487       23.774     1381.689     1559.260      565.197        0.504        0.175       81.041       18.343        0.051      335.834        6.732      856.978
10/10/2013  09:11:00      -37.103      -29.326        0.247       19.570       26.029       12.760      382.989      677.496      162.813        0.173        0.061       47.293       11.672        0.061      335.787        6.654      856.999
10/10/2013  09:12:00      -48.280      -64.697      -13.173       15.807       16.332       17.912      249.861      266.733      320.825        0.376        0.042       80.726       11.842        0.022      335.707        6.521      857.024
10/10/2013  09:13:00       -8.379      -15.170       -2.487       21.840       16.150       17.536      476.999      260.826      307.526        0.068        0.052       17.330       15.502        0.800      335.880        6.809      857.031
10/10/2013  09:14:00      -29.320       -9.515        7.332       21.035       13.234       12.835      442.470      175.126      164.727        0.089        0.039       30.825        7.579        0.060      335.977        6.968      857.031
10/10/2013  09:15:00      -71.999      -28.976        0.171       28.657       23.050       18.156      821.211      531.324      329.633        0.385        0.084       77.611       11.890        0.023      335.998        7.004      857.026
10/10/2013  09:16:00      -47.287      -22.640       -3.081       25.333       15.307       13.607      641.774      234.299      185.162        0.191        0.053       52.428       11.946        0.052      336.054        7.098      857.043
10/10/2013  09:17:00      -53.997      -25.029        0.335       20.769       15.152       12.241      431.355      229.573      149.854        0.218        0.041       59.516       12.202        0.042      336.063        7.112      857.064
10/10/2013  09:18:00     -113.199      -37.353       -6.428       53.771       25.155       16.603     2891.366      632.776      275.656        0.902        0.190      119.203       20.789        0.030      336.089        7.156      857.082
10/10/2013  09:19:00     -153.387      -25.688      -10.055       27.644       38.457       20.764      764.200     1478.937      431.133        1.348        0.134      155.523       10.781        0.005      336.088        7.156      857.098
10/10/2013  09:20:00     -137.371      -48.733        1.603       44.867       40.824       23.437     2013.065     1666.568      549.296        1.274        0.211      145.759       25.330        0.030      335.925        6.881      857.113
10/10/2013  09:21:00     -113.548      -42.280       -3.879       20.428       22.227       17.862      417.318      494.041      319.067        0.796        0.062      121.164        9.012        0.006      335.899        6.839      857.119
10/10/2013  09:22:00      -60.601      -25.818       -1.136       33.930       18.269       17.778     1151.255      333.767      316.056        0.307        0.090       65.871       19.452        0.087      335.988        6.988      857.117
10/10/2013  09:23:00      -18.427      -59.466       -7.237       20.752       24.491       12.800      430.641      599.798      163.852        0.256        0.060       62.256        6.590        0.011      335.988        6.988      857.111
10/10/2013  09:24:00      -12.739      -14.961       -0.117       19.892       14.685       14.373      395.680      215.656      206.570        0.060        0.041       19.650        9.131        0.216      336.197        7.336      857.115
10/10/2013  09:25:00      -46.857       62.926      -11.596       25.813       57.019       18.449      666.309     3251.114      340.358        0.527        0.213       78.455       17.371        0.049      336.120        7.207      857.133
10/10/2013  09:26:00      -42.143       98.635      -10.712       41.628       38.473       26.428     1732.878     1480.156      698.455        0.776        0.196      107.261       22.030        0.042      336.103        7.180      857.152
10/10/2013  09:27:00       -2.087      124.018       -8.890       22.584       47.898       24.282      510.041     2294.210      589.640        0.943        0.170      124.036       24.183        0.038      336.153        7.264      857.182
10/10/2013  09:28:00      -29.542      131.272       -1.961       41.844       68.766       30.677     1750.923     4728.818      941.055        1.276        0.371      134.555       30.659        0.052      336.347        7.588      857.231
10/10/2013  09:29:00      -64.535      130.469      -11.420       50.420       48.626       26.539     2542.196     2364.477      704.319        1.346        0.281      145.557       35.277        0.059      336.165        7.284      857.279
10/10/2013  09:30:00      -60.891       78.437        1.202       44.833       53.659       27.721     2010.037     2879.326      768.448        0.776        0.283       99.298       15.566        0.025      336.246        7.418      857.315
10/10/2013  09:31:00      -21.613       86.322        1.064       44.277       36.558       27.340     1960.472     1336.453      747.472        0.598        0.202       88.987       24.991        0.079      336.487        7.822      857.325
10/10/2013  09:32:00       10.826       71.586       -1.121       29.246       51.885       25.612      855.328     2692.084      655.984        0.472        0.210       72.400       27.229        0.141      336.397        7.672      857.328
10/10/2013  09:33:00       -9.775       98.350       -6.857       27.872       46.775       24.698      776.836     2187.936      609.974        0.669        0.179       98.835       24.130        0.060      336.295        7.501      857.332
10/10/2013  09:34:00       -0.412       43.943        7.424       37.440       31.757       27.505     1401.733     1008.515      756.507        0.258        0.158       43.945       21.409        0.237      336.473        7.799      857.341
10/10/2013  09:35:00      -55.456       51.644       -5.773       28.635       27.526       26.470      819.985      757.702      700.635        0.403        0.114       75.779       22.234        0.086      336.295        7.502      857.354
10/10/2013  09:36:00      -54.351        5.055      -10.268       13.799       24.107       12.674      190.418      581.158      160.634        0.201        0.047       54.586       14.420        0.070      336.175        7.300      857.354
10/10/2013  09:37:00      -71.170        9.735      -11.215       24.779       19.449       17.137      613.980      378.258      293.674        0.329        0.064       71.833        8.364        0.014      336.287        7.488      857.350
10/10/2013  09:38:00       -1.390       24.057       11.967       22.336       70.880       29.908      498.881     5023.942      894.494        0.357        0.321       24.097       29.861        1.536      336.514        7.866      857.335
10/10/2013  09:39:00       26.618       85.563        6.483       42.653       66.415       35.263     1819.241     4410.907     1243.470        0.777        0.374       89.607       38.293        0.183      336.510        7.860      857.333
10/10/2013  09:40:00      -34.409       95.908       -1.815       39.347       64.624       32.713     1548.181     4176.215     1070.118        0.859        0.340      101.894       37.612        0.136      336.611        8.029      857.347
10/10/2013  09:41:00       -7.051      112.278      -19.053       39.001       42.300       25.919     1521.112     1789.317      671.789        0.850        0.199      112.499       23.031        0.042      336.497        7.839      857.353
10/10/2013  09:42:00      -30.906      130.474      -21.249       34.808       36.313       29.424     1211.612     1318.624      865.795        1.091        0.170      134.085       25.257        0.035      336.564        7.949      857.362
10/10/2013  09:43:00      -33.267       63.573       -7.543       32.114       44.938       19.704     1031.305     2019.401      388.264        0.432        0.172       71.751       20.386        0.081      336.797        8.339      857.375
10/10/2013  09:44:00      -37.579       29.541       10.392       39.048       56.258       20.466     1524.771     3164.960      418.838        0.375        0.255       47.800       19.151        0.161      336.936        8.573      857.381
10/10/2013  09:45:00      -68.495       -8.920       -0.739       48.808       21.103       24.304     2382.251      445.316      590.686        0.409        0.171       69.074       19.727        0.082      336.603        8.016      857.401
10/10/2013  09:46:00      -68.464        7.609       -4.457       24.212       38.728       20.499      586.201     1499.834      420.215        0.364        0.125       68.885       12.276        0.032      336.689        8.161      857.411
10/10/2013  09:47:00      -28.916        6.570        2.974       24.601       15.215       15.662      605.221      231.486      245.298        0.098        0.054       29.653       11.769        0.158      336.891        8.498      857.425
10/10/2013  09:48:00      -37.211      -63.524        1.700       19.420       26.398       20.493      377.132      696.833      419.974        0.346        0.075       73.620       18.253        0.061      336.791        8.330      857.419
10/10/2013  09:49:00        7.849       35.623        9.550       23.925       53.823       29.648      572.396     2896.950      879.012        0.288        0.217       36.478       34.641        0.902      337.312        9.201      857.420
10/10/2013  09:50:00       31.154       63.254      -10.765       24.125       44.788       26.867      582.003     2005.938      721.823        0.420        0.165       70.509       20.523        0.085      336.927        8.558      857.438
10/10/2013  09:51:00       13.920       82.903       -6.025       29.262       38.260       23.025      856.253     1463.811      530.137        0.498        0.143       84.064       21.415        0.065      336.991        8.664      857.447
10/10/2013  09:52:00      -36.872       57.464        3.885       34.815       32.580       24.906     1212.115     1061.477      620.311        0.378        0.145       68.276       24.078        0.124      337.105        8.855      857.442
10/10/2013  09:53:00      -22.171       66.352       -2.759       32.176       41.055       24.823     1035.326     1685.510      616.160        0.412        0.167       69.958       22.576        0.104      336.864        8.453      857.446
10/10/2013  09:54:00       -1.274       63.003       13.576       33.813       37.453       23.538     1143.347     1402.693      554.046        0.363        0.155       63.016       20.500        0.106      337.121        8.882      857.440
10/10/2013  09:55:00     -107.596       70.372      -29.241       28.078       27.827       18.118      788.391      774.351      328.272        0.964        0.095      128.565       13.186        0.011      336.657        8.106      857.455
10/10/2013  09:56:00      -47.921       94.722      -32.087       41.556       25.567       18.849     1726.868      653.653      355.283        0.752        0.137      106.154       16.758        0.025      336.664        8.119      857.468
10/10/2013  09:57:00      -45.670       76.481      -16.195       25.544       29.968       23.053      652.510      898.100      531.451        0.514        0.104       89.079       14.596        0.027      336.761        8.282      857.474
10/10/2013  09:58:00      -44.530      -23.166       -3.242       34.547       14.658       17.913     1193.487      214.847      320.864        0.213        0.086       50.195       21.977        0.192      336.855        8.436      857.462
10/10/2013  09:59:00      -22.994      -18.583        0.747       19.653       26.921       12.678      386.246      724.720      160.725        0.107        0.064       29.564       15.238        0.266      336.978        8.643      857.452
10/10/2013  10:00:00       -6.579       83.875        0.395       26.701       32.851       26.840      712.920     1079.217      720.371        0.480        0.126       84.133       21.540        0.066      337.368        9.294      857.475
10/10/2013  10:01:00      -23.070       53.197        1.191       32.200       42.659       28.355     1036.867     1819.793      804.016        0.351        0.183       57.984       24.045        0.172      337.404        9.356      857.507
10/10/2013  10:02:00      -25.021       40.012      -16.305       18.188       31.590       21.313      330.813      997.916      454.262        0.214        0.089       47.191       19.820        0.176      337.052        8.767      857.524
10/10/2013  10:03:00       -5.718       11.098        8.579       17.645       17.869       18.098      311.332      319.308      327.542        0.059        0.048       12.485        7.810        0.391      337.657        9.779      857.526
10/10/2013  10:04:00       -2.593        7.688       12.850       13.372       12.078       20.358      178.805      145.880      414.452        0.048        0.037        8.113        8.931        1.212      337.953       10.276      857.529
10/10/2013  10:05:00      -15.457        0.297        0.844       14.769       21.251       18.873      218.123      451.613      356.176        0.063        0.051       15.460       10.555        0.466      337.790       10.004      857.535
10/10/2013  10:06:00      -18.085        4.277      -10.002       20.029       27.757       18.659      401.176      770.460      348.159        0.098        0.076       18.584       15.153        0.665      337.697        9.846      857.542
10/10/2013  10:07:00       16.866       52.939       -2.642       32.177       22.685       19.119     1035.331      514.613      365.550        0.250        0.096       55.561       12.162        0.048      337.790       10.002      857.552
10/10/2013  10:08:00       65.050       36.739       16.776       58.515       27.779       30.920     3423.995      771.650      956.028        0.551        0.258       74.708       28.233        0.143      337.493        9.504      857.565
10/10/2013  10:09:00       30.671       37.804        3.383       41.784       31.351       32.258     1745.913      982.906     1040.574        0.307        0.188       48.681       22.892        0.221      337.460        9.450      857.582
10/10/2013  10:10:00      -10.915      -43.141      -21.141       47.711       29.546       22.858     2276.375      872.963      522.482        0.305        0.184       44.500       26.044        0.343      337.268        9.127      857.582
10/10/2013  10:11:00       10.969        3.589       12.899       15.925       12.369       20.249      253.594      152.993      410.042        0.056        0.041       11.541       11.575        1.006      338.027       10.401      857.571
10/10/2013  10:12:00       22.633       38.928       51.331       48.194       33.767       24.282     2322.692     1140.193      589.629        0.436        0.203       45.030       15.662        0.121      338.064       10.461      857.555
10/10/2013  10:13:00       43.015       20.420       -3.578       49.350       40.538       31.931     2435.401     1643.289     1019.596        0.369        0.255       47.616       17.056        0.128      337.643        9.755      857.530
10/10/2013  10:14:00       85.565       40.319       35.940       67.722       50.522       42.590     4586.321     2552.458     1813.888        0.959        0.448       94.588       29.550        0.098      337.591        9.670      857.513
10/10/2013  10:15:00       27.513      104.742       -4.023       35.502       55.808       35.490     1260.359     3114.477     1259.570        0.869        0.282      108.296       35.903        0.110      337.629        9.731      857.495
10/10/2013  10:16:00       -4.880       80.652       -2.395       35.003       50.528       28.235     1225.240     2553.065      797.241        0.555        0.229       80.800       26.914        0.111      337.672        9.804      857.479
10/10/2013  10:17:00      -37.331      101.464       -2.907       34.891       61.986       27.619     1217.394     3842.246      762.788        0.876        0.291      108.114       28.813        0.071      337.580        9.650      857.478
10/10/2013  10:18:00      -59.919      113.878      -16.220       33.927       43.685       32.364     1151.046     1908.348     1047.453        1.046        0.205      128.680       23.677        0.034      337.521        9.552      857.470
10/10/2013  10:19:00      -34.553       95.489       -7.985       21.524       46.042       22.847      463.291     2119.848      522.002        0.674        0.155      101.549       22.406        0.049      337.583        9.655      857.474
10/10/2013  10:20:00      -33.306       47.040       -5.441       28.003       32.828       23.862      784.189     1077.680      569.416        0.289        0.122       57.638       16.067        0.078      337.571        9.633      857.460
10/10/2013  10:21:00       -8.199       38.013        7.252       26.904       46.789       25.762      723.841     2189.230      663.685        0.257        0.179       38.887       12.834        0.109      337.659        9.784      857.448
10/10/2013  10:22:00      -18.070       33.162       -3.981       25.349       35.280       21.574      642.563     1244.656      465.433        0.190        0.118       37.765       16.720        0.196      337.815       10.044      857.436
10/10/2013  10:23:00      -45.805       59.133        0.521       50.414       51.387       31.915     2541.551     2640.601     1018.541        0.590        0.310       74.799       36.340        0.236      338.047       10.434      857.438
10/10/2013  10:24:00      -27.680       48.539       -3.612       42.803       32.263       29.665     1832.091     1040.880      879.992        0.344        0.188       55.877       30.060        0.289      337.695        9.844      857.471
10/10/2013  10:25:00       12.187       13.290       11.262       21.982       24.894       15.988      483.189      619.717      255.626        0.090        0.068       18.032        5.391        0.089      337.985       10.329      857.490
10/10/2013  10:26:00      -17.339       43.912        3.701       23.203       29.307       21.795      538.366      858.872      475.021        0.206        0.094       47.211       15.680        0.110      338.122       10.558      857.491
10/10/2013  10:27:00       43.927       65.828        9.445       64.675       36.804       35.349     4182.867     1354.523     1249.558        0.657        0.339       79.139       18.607        0.055      338.033       10.411      857.490
10/10/2013  10:28:00       44.505      102.654        1.003       57.419       65.377       39.378     3296.902     4274.147     1550.604        1.082        0.456      111.887       37.994        0.115      337.772        9.972      857.506
10/10/2013  10:29:00       57.777       39.996        2.850       56.600       38.247       31.942     3203.533     1462.821     1020.304        0.532        0.284       70.270       37.591        0.286      337.677        9.813      857.544
10/10/2013  10:30:00       -0.352       26.351       25.942       36.683       26.610       22.061     1345.624      708.083      486.708        0.195        0.127       26.353       16.904        0.411      338.111       10.541      857.569
10/10/2013  10:31:00      -17.684        9.835       58.101       18.663       42.877       19.537      348.291     1838.472      381.709        0.318        0.128       20.235       17.968        0.789      338.581       11.330      857.548
10/10/2013  10:32:00       49.923       42.357       41.128       58.123       36.867       37.530     3378.234     1359.180     1408.480        0.606        0.307       65.471       36.948        0.318      338.129       10.572      857.514
10/10/2013  10:33:00      -28.270      -61.451       -7.776       43.707       27.789       26.875     1910.344      772.231      722.269        0.402        0.170       67.642       14.826        0.048      337.994       10.346      857.484
10/10/2013  10:34:00        0.238        6.092       61.932       24.321       61.514       25.324      591.508     3783.967      641.330        0.444        0.251        6.097       34.321       31.691      338.294       10.848      857.491
10/10/2013  10:35:00       27.683      -25.726       39.830       39.171       58.051       34.331     1534.342     3369.894     1178.647        0.455        0.304       37.791       29.357        0.603      338.053       10.443      857.506
10/10/2013  10:36:00       57.567       54.573       60.401       68.488       49.465       42.004     4690.609     2446.814     1764.376        0.942        0.445       79.324       35.437        0.200      338.160       10.623      857.502
10/10/2013  10:37:00      132.971      107.584       44.658       47.426       35.083       50.779     2249.189     1230.792     2578.461        1.865        0.303      171.043       21.333        0.016      337.718        9.880      857.479
10/10/2013  10:38:00      137.320       60.537       32.866       50.030       42.475       50.998     2502.959     1804.146     2600.824        1.525        0.345      150.072       26.286        0.031      337.686        9.827      857.447
10/10/2013  10:39:00       15.733       16.818       78.470       49.505       72.605       37.870     2450.746     5271.459     1434.169        0.792        0.458       23.029       32.105        1.943      338.450       11.109      857.411
10/10/2013  10:40:00      136.613       97.670       17.632       89.625       48.037       62.673     8032.637     2307.523     3927.938        2.139        0.713      167.936       56.446        0.113      337.762        9.953      857.428
10/10/2013  10:41:00       24.451       15.510       12.866       63.421       47.632       31.583     4022.169     2268.786      997.484        0.414        0.364       28.955       28.850        0.993      338.198       10.686      857.442
10/10/2013  10:42:00       58.318        7.341       20.519       44.324       41.764       31.207     1964.605     1744.266      973.894        0.428        0.234       58.779       21.716        0.137      338.129       10.571      857.458
10/10/2013  10:43:00       30.705      -17.920       51.007       44.029       56.426       42.666     1938.582     3183.947     1820.404        0.540        0.347       35.552       45.397        1.630      338.330       10.908      857.456
10/10/2013  10:44:00       29.444       -5.531       23.770       35.555       34.894       30.040     1264.170     1217.598      902.373        0.242        0.169       29.959       28.685        0.917      338.612       11.381      857.454
10/10/2013  10:45:00        0.209       10.115       65.341       36.167       57.044       33.993     1308.023     3253.993     1155.555        0.504        0.286       10.117       25.892        6.550      338.833       11.755      857.434
10/10/2013  10:46:00       15.970        2.100       77.856       38.863       89.557       52.863     1510.328     8020.407     2794.481        0.932        0.616       16.108       56.571       12.334      338.638       11.426      857.431
10/10/2013  10:47:00       72.583       93.949       74.540       81.744       49.324       55.991     6682.046     2432.847     3135.037        1.595        0.612      118.721       53.770        0.205      338.168       10.637      857.423
10/10/2013  10:48:00      230.775      108.778       25.510       76.367       64.948       44.496     5831.944     4218.252     1979.920        3.888        0.602      255.126       31.937        0.016      337.713        9.871      857.426
10/10/2013  10:49:00      163.664      124.147       72.624       55.056       38.799       50.953     3031.157     1505.363     2596.197        2.730        0.357      205.422       41.337        0.040      337.833       10.072      857.433
10/10/2013  10:50:00       78.028       63.161       76.625       73.604       55.606       55.310     5417.556     3092.055     3059.187        1.376        0.578      100.388       46.809        0.217      338.056       10.449      857.451
10/10/2013  10:51:00       93.304       46.379       28.759       78.706       65.792       54.840     6194.689     4328.575     3007.471        1.260        0.677      104.195       44.167        0.180      337.859       10.118      857.454
10/10/2013  10:52:00        2.852       82.653       94.289       31.216       44.988       38.751      974.439     2023.947     1501.603        1.011        0.225       82.703       31.547        0.146      338.172       10.643      857.447
10/10/2013  10:53:00       80.400       90.190       60.243       67.609       80.511       71.098     4570.947     6481.985     5054.943        1.716        0.805      120.824       69.497        0.331      337.916       10.212      857.460
10/10/2013  10:54:00       64.434      114.558      102.139       55.365       69.306       72.353     3065.296     4803.323     5234.907        2.040        0.655      131.435       62.225        0.224      338.065       10.463      857.451
10/10/2013  10:55:00       59.590      117.379      103.016       71.407       68.729       65.669     5098.921     4723.706     4312.441        2.104        0.707      131.638       64.230        0.238      338.037       10.414      857.456
10/10/2013  10:56:00       78.995       63.761        3.341       79.952       60.971       44.665     6392.341     3717.482     1994.955        1.121        0.605      101.517       13.794        0.018      337.841       10.087      857.465
10/10/2013  10:57:00      -15.560       29.596       -5.835       19.866       25.938       22.378      394.676      672.782      500.784        0.136        0.078       33.437       15.826        0.224      338.367       10.970      857.453
10/10/2013  10:58:00       32.934       48.688       28.320       43.895       43.212       43.749     1926.743     1867.236     1913.932        0.498        0.285       58.781       11.003        0.035      338.351       10.944      857.453
10/10/2013  10:59:00      110.135     -103.034        5.554       90.603      114.718       58.611     8208.927    13160.199     3435.256        2.379        1.240      150.817       72.404        0.230      338.304       10.862      857.453
10/10/2013  11:00:00       89.379      -46.344       36.101       98.183      114.930       86.033     9639.935    13208.845     7401.620        2.084        1.513      100.679       96.614        0.921      338.537       11.256      857.456
10/10/2013  11:01:00       83.431      -28.466       32.098       76.055       88.809       48.284     5784.371     7886.962     2331.362        1.240        0.800       88.154       50.835        0.333      338.240       10.756      857.466
10/10/2013  11:02:00       -3.800      -54.607      -15.468       20.922       37.094       20.954      437.710     1375.985      439.060        0.274        0.113       54.739       14.593        0.071      337.883       10.158      857.458
10/10/2013  11:03:00       38.827     -145.982       -4.499       58.746       53.054       34.911     3451.108     2814.723     1218.785        1.516        0.374      151.057       29.295        0.038      338.269       10.805      857.441
10/10/2013  11:04:00       51.018     -108.162       26.740       62.618       85.812       70.241     3921.010     7363.663     4933.738        1.561        0.811      119.590       59.794        0.250      338.481       11.161      857.420
10/10/2013  11:05:00       44.583       22.484       79.457       58.747       88.446       57.236     3451.179     7822.644     3275.971        1.168        0.727       49.932       53.962        1.168      338.692       11.515      857.413
10/10/2013  11:06:00       97.022       72.537       81.282       74.455       67.745       62.900     5543.587     4589.346     3956.427        1.768        0.704      121.140       53.631        0.196      338.225       10.729      857.414
10/10/2013  11:07:00      139.187       61.773       20.269       56.709       53.542       41.089     3215.924     2866.746     1688.270        1.568        0.389      152.278       28.623        0.035      338.292       10.844      857.416
10/10/2013  11:08:00       52.284       61.791       62.276       47.867       62.487       52.984     2291.278     3904.644     2807.266        0.971        0.450       80.943       38.073        0.221      338.693       11.518      857.391
10/10/2013  11:09:00      107.339       94.062       71.146       60.362       86.534       62.513     3643.627     7488.211     3907.935        2.023        0.752      142.721       59.419        0.173      337.848       10.098      857.370
10/10/2013  11:10:00       32.105       56.774       66.773       56.494       70.767       49.380     3191.540     5008.012     2438.432        0.967        0.532       65.223       46.223        0.502      338.342       10.929      857.344
10/10/2013  11:11:00       97.452      107.955       96.711       63.801       69.763       47.914     4070.622     4866.889     2295.776        2.087        0.562      145.434       45.277        0.097      338.080       10.487      857.315
10/10/2013  11:12:00       89.611       64.678       36.775       71.281       38.571       33.787     5080.963     1487.688     1141.562        1.064        0.386      110.514       13.816        0.016      338.071       10.474      857.310
10/10/2013  11:13:00       41.077       97.132       88.338       60.852       47.539       44.389     3702.913     2259.911     1970.426        1.343        0.397      105.461       43.453        0.170      338.425       11.067      857.287
10/10/2013  11:14:00       31.360       85.836      109.188       36.775       69.578       54.809     1352.380     4841.115     3004.062        1.473        0.460       91.385       53.206        0.339      338.074       10.476      857.294
10/10/2013  11:15:00       10.966        4.391       40.439       22.274       23.710       24.251      496.137      562.144      588.101        0.171        0.082       11.812       18.673        2.499      338.572       11.314      857.326
10/10/2013  11:16:00       23.614      -40.745      -11.851       23.775       30.790       23.174      565.247      948.036      537.055        0.220        0.103       47.093       12.642        0.072      338.171       10.640      857.336
10/10/2013  11:17:00      -12.444        1.566       -5.754       16.822       29.420       14.064      282.971      865.563      197.786        0.077        0.067       12.542        3.972        0.100      338.292       10.844      857.346
10/10/2013  11:18:00      -32.555      -10.421       -6.123       28.666       30.955       21.827      821.767      958.219      476.425        0.173        0.113       34.182        4.154        0.015      338.522       11.231      857.339
10/10/2013  11:19:00      -62.756      -36.207       -7.839       34.056       15.463       11.587     1159.835      239.117      134.258        0.342        0.077       72.451        7.942        0.012      338.161       10.625      857.328
10/10/2013  11:20:00      -17.470      -13.840       10.422       49.719       32.483       32.936     2471.946     1055.120     1084.793        0.261        0.231       22.288       18.592        0.696      338.732       11.585      857.308
10/10/2013  11:21:00       47.070       35.636       44.599       43.703       33.444       31.328     1909.975     1118.496      981.443        0.474        0.200       59.038       22.312        0.143      338.682       11.498      857.269
10/10/2013  11:22:00       80.121     -113.710      -18.050       85.661       95.417       35.332     7337.762     9104.446     1248.334        1.868        0.885      139.102       46.472        0.112      338.409       11.040      857.241
10/10/2013  11:23:00       28.021      -55.364       41.785       50.979       82.726       57.168     2598.835     6843.554     3268.126        0.915        0.636       62.052       40.655        0.429      338.792       11.686      857.204
10/10/2013  11:24:00       62.404       87.423      101.066       89.031       67.598       48.593     7926.540     4569.517     2361.250        1.830        0.743      107.411       48.318        0.202      338.611       11.379      857.183
10/10/2013  11:25:00      125.744       99.688       25.412       71.010       48.173       45.220     5042.485     2320.590     2044.811        1.790        0.470      160.466       17.188        0.011      338.208       10.702      857.162
10/10/2013  11:26:00      113.234       55.148       12.205       48.039       38.495       34.746     2307.755     1481.889     1207.264        1.050        0.250      125.950       21.362        0.029      338.390       11.010      857.133
10/10/2013  11:27:00       73.968      -19.632       31.418       73.975      102.905       45.288     5472.299    10589.474     2051.005        1.247        0.906       76.529       52.720        0.475      338.675       11.486      857.124
10/10/2013  11:28:00      103.586     -102.697       16.382      107.198      129.002       78.429    11491.418    16641.585     6151.072        2.791        1.714      145.865       78.404        0.289      338.873       11.819      857.099
10/10/2013  11:29:00       91.118      -57.683       65.945       75.159       89.640       74.934     5648.844     8035.405     5615.084        1.764        0.965      107.842       69.979        0.421      338.940       11.933      857.127
10/10/2013  11:30:00       90.205     -144.843       -6.239       46.271       66.972       35.795     2141.021     4485.273     1281.274        1.853        0.395      170.635       36.570        0.046      338.450       11.110      857.164
10/10/2013  11:31:00       49.666      -62.085       25.427       42.960       61.062       40.878     1845.578     3728.590     1671.019        0.711        0.362       79.507       43.066        0.293      338.759       11.629      857.173
10/10/2013  11:32:00       72.463      -99.467       -5.757       44.961       51.760       35.604     2021.482     2679.071     1267.663        1.057        0.298      123.063       34.399        0.078      338.586       11.338      857.185
10/10/2013  11:33:00       22.852      -33.814       24.818       30.541       73.123       40.960      932.753     5347.037     1677.716        0.512        0.398       40.812       50.039        1.503      338.840       11.765      857.169
10/10/2013  11:34:00        9.209      -29.466       30.785       33.709       51.551       30.928     1136.304     2657.544      956.553        0.332        0.238       30.872       24.704        0.640      339.121       12.239      857.173
10/10/2013  11:35:00       48.550      -59.155        7.210       57.210       65.102       51.226     3273.031     4238.264     2624.073        0.802        0.507       76.527       53.690        0.492      338.902       11.869      857.168
10/10/2013  11:36:00       17.183      -26.483       53.926       40.143       64.086       43.584     1611.479     4107.042     1899.537        0.576        0.381       31.569       31.534        0.998      339.180       12.338      857.133
10/10/2013  11:37:00       33.554       22.719       62.736       54.053       76.296       53.277     2921.691     5821.150     2838.427        0.858        0.579       40.522       54.002        1.776      339.006       12.043      857.124
10/10/2013  11:38:00       20.068       -8.371        4.362       51.945       65.392       45.206     2698.320     4276.155     2043.597        0.475        0.451       21.744       38.819        3.187      338.942       11.937      857.101
10/10/2013  11:39:00       38.551       -7.763       65.398       61.762      101.954       41.067     3814.578    10394.680     1686.534        1.086        0.795       39.325       47.533        1.461      339.081       12.170      857.077
10/10/2013  11:40:00       32.785       11.958       51.734       40.607       74.407       38.597     1648.903     5536.421     1489.755        0.628        0.434       34.898       27.207        0.608      339.072       12.155      857.057
10/10/2013  11:41:00       56.344      -98.589        8.026       37.761       49.341       25.688     1425.875     2434.551      659.875        0.874        0.226      113.553       21.307        0.035      338.579       11.327      857.037
10/10/2013  11:42:00       82.801       41.616       37.980       49.175       49.002       36.082     2418.136     2401.176     1301.940        0.807        0.306       92.671       26.269        0.080      338.738       11.594      857.041
10/10/2013  11:43:00       97.912      -35.115       43.099       76.669      106.868       54.319     5878.059    11420.755     2950.604        1.646        1.012      104.019       63.109        0.368      338.814       11.721      857.038
10/10/2013  11:44:00      149.520      -78.010       30.353      116.418      110.845       63.383    13553.046    12286.580     4017.374        2.960        1.493      168.647       65.590        0.151      338.885       11.839      857.031
10/10/2013  11:45:00       76.590     -109.911      -20.577       61.741       54.671       36.037     3811.945     2988.864     1298.681        1.323        0.405      133.964       32.116        0.057      338.612       11.382      857.050
10/10/2013  11:46:00       18.666       -9.633       47.373       53.958       52.943       38.864     2911.427     2802.997     1510.394        0.495        0.361       21.005       31.556        2.257      339.386       12.684      857.029
10/10/2013  11:47:00       16.747       31.190       77.226       61.366       67.744       45.498     3765.740     4589.301     2070.053        0.882        0.521       35.402       33.423        0.891      339.392       12.694      857.012
10/10/2013  11:48:00       44.922      -48.313       23.990       75.180       58.572       38.325     5652.093     3430.695     1468.831        0.774        0.528       65.971       22.505        0.116      339.087       12.179      857.019
10/10/2013  11:49:00       50.594       27.455       40.458       56.208       50.702       41.970     3159.322     2570.729     1761.489        0.622        0.375       57.564       21.897        0.145      339.369       12.657      857.014
10/10/2013  11:50:00       71.177     -141.339      -11.862       94.037      118.747       58.930     8842.932    14100.791     3472.760        2.579        1.321      158.249       56.151        0.126      339.170       12.319      857.003
10/10/2013  11:51:00      123.183     -162.726      -22.378      118.551       86.892       52.754    14054.403     7550.299     2782.966        3.327        1.219      204.093       65.169        0.102      338.789       11.676      857.022
10/10/2013  11:52:00       35.828      -34.777       46.949       47.197       84.159       60.602     2227.570     7082.758     3672.634        0.884        0.649       49.931       47.890        0.920      339.356       12.631      857.035
10/10/2013  11:53:00       83.269      -49.418        4.509       49.738       49.728       28.473     2473.916     2472.848      810.738        0.758        0.288       96.829       25.534        0.070      338.731       11.582      857.065
10/10/2013  11:54:00       20.833     -113.820      -14.853       44.809       52.323       30.877     2007.875     2737.657      953.411        0.965        0.285      115.711       17.851        0.024      339.125       12.245      857.076
10/10/2013  11:55:00       58.037      -70.324        1.046       53.303       77.028       50.939     2841.258     5933.366     2594.806        0.984        0.568       91.180       39.563        0.188      339.149       12.284      857.069
10/10/2013  11:56:00       -4.201      -13.763       31.043       33.063       59.918       33.156     1093.134     3590.154     1099.339        0.348        0.289       14.390       30.550        4.507      339.403       12.714      857.062
10/10/2013  11:57:00      -48.909      -67.626       -4.329       58.240       39.624       36.356     3391.859     1570.048     1321.745        0.663        0.314       83.459       24.062        0.083      339.168       12.316      857.061
10/10/2013  11:58:00      -96.988      -45.769       -5.657       44.046       29.078       29.715     1940.061      845.531      882.952        0.760        0.183      107.245       21.842        0.041      339.162       12.307      857.056
10/10/2013  11:59:00      -84.819      -62.264        4.595       50.315       41.555       27.860     2531.563     1726.794      776.185        0.806        0.252      105.219       25.009        0.056      339.214       12.393      857.042
10/10/2013  12:00:00      -88.052      -91.340        1.744       60.615       35.161       30.322     3674.239     1236.329      919.413        1.096        0.291      126.870       21.020        0.027      339.105       12.211      857.034
10/10/2013  12:01:00      -63.545     -111.692       -4.952       30.356       54.616       29.345      921.503     2982.934      861.152        1.065        0.238      128.503       24.860        0.037      338.854       11.790      857.034
10/10/2013  12:02:00      -54.130      -16.929       -7.853       33.720       28.058       19.387     1137.016      787.275      375.866        0.279        0.115       56.715       17.614        0.096      339.085       12.177      857.015
10/10/2013  12:03:00      -80.436      -79.572      -13.199       49.368       43.262       24.756     2437.203     1871.594      612.883        0.895        0.246      113.144       20.235        0.032      339.131       12.256      856.992
10/10/2013  12:04:00      -41.806      -43.210       14.488       64.431       37.655       29.960     4151.292     1417.929      897.607        0.514        0.323       60.124       28.909        0.231      339.399       12.705      856.985
10/10/2013  12:05:00      -19.032       -6.046       16.261       31.677       33.032       28.834     1003.417     1091.143      831.425        0.179        0.146       19.969       14.612        0.535      339.606       13.056      856.962
10/10/2013  12:06:00       -7.098      -13.620       22.922       33.395       44.967       43.106     1115.242     2022.057     1858.163        0.288        0.250       15.358       40.700        7.023      339.767       13.326      856.934
10/10/2013  12:07:00      -11.605      -23.373       17.478       24.870       26.530       31.169      618.493      703.817      971.510        0.164        0.115       26.095       15.328        0.345      339.973       13.675      856.917
10/10/2013  12:08:00      -34.547      -17.743       19.610       37.221       45.102       29.018     1385.410     2034.235      842.045        0.308        0.213       38.837       25.952        0.447      340.092       13.875      856.909
10/10/2013  12:09:00       56.201      -47.775       28.975       78.015       68.754       51.267     6086.303     4727.172     2628.289        0.986        0.672       73.763       49.683        0.454      339.825       13.423      856.890
10/10/2013  12:10:00       70.747      -96.664       -2.464       55.219       66.008       47.683     3049.083     4357.056     2273.686        1.202        0.484      119.787       42.307        0.125      339.712       13.232      856.900
10/10/2013  12:11:00       90.129      -94.297       -2.879       54.957       82.973       52.821     3020.246     6884.465     2790.098        1.486        0.635      130.442       54.690        0.176      339.744       13.287      856.920
10/10/2013  12:12:00       36.333       33.331       63.990       45.549       43.923       32.106     2074.681     1929.224     1030.800        0.578        0.252       49.306       26.533        0.290      339.940       13.619      856.933
10/10/2013  12:13:00        2.395      -10.121       50.866       26.669       46.741       36.545      711.223     2184.687     1335.525        0.346        0.212       10.400       34.350       10.908      340.197       14.052      856.938
10/10/2013  12:14:00       60.842      -64.526       27.335       60.773       84.126       50.413     3693.398     7077.131     2541.495        1.096        0.666       88.687       58.853        0.440      339.751       13.300      856.941
10/10/2013  12:15:00       35.616      -38.186       39.087       57.391      101.727       62.241     3293.722    10348.377     3873.929        1.088        0.876       52.218       54.563        1.092      340.134       13.946      856.926
10/10/2013  12:16:00      142.090     -133.892      -21.826       78.937      111.760       65.415     6231.127    12490.247     4279.064        3.079        1.150      195.235       70.572        0.131      339.506       12.884      856.925
10/10/2013  12:17:00       91.177     -104.334       11.167       97.518      108.345       66.650     9509.762    11738.624     4442.156        2.250        1.285      138.560       65.998        0.227      339.644       13.116      856.926
10/10/2013  12:18:00      190.439     -187.584      -29.380       64.672       87.780       52.465     4182.524     7705.289     2752.577        4.348        0.732      267.310       54.656        0.042      339.143       12.271      856.932
10/10/2013  12:19:00       49.542      -30.800       50.424       59.782       72.065       52.565     3573.933     5193.345     2763.044        0.874        0.577       58.336       45.253        0.602      339.910       13.567      856.932
10/10/2013  12:20:00       97.980      -23.072       27.181       56.262       87.600       66.759     3165.384     7673.724     4456.827        1.308        0.765      100.660       68.412        0.462      339.684       13.186      856.944
10/10/2013  12:21:00       86.895      -24.794       23.968       59.781       55.970       45.106     3573.805     3132.596     2034.594        0.874        0.437       90.363       43.838        0.235      339.611       13.062      856.946
10/10/2013  12:22:00        4.824      -41.353       17.794      107.217       54.645       41.514    11495.534     2986.037     1723.445        0.912        0.810       41.634       44.324        1.133      339.823       13.420      856.935
10/10/2013  12:23:00        5.338      -37.149        4.332       39.449       38.060       26.913     1556.261     1448.594      724.292        0.258        0.186       37.530       18.241        0.236      340.144       13.962      856.926
10/10/2013  12:24:00       58.122     -115.229        0.104       70.298      100.879       57.585     4941.858    10176.499     3316.055        1.754        0.922      129.058       59.436        0.212      340.115       13.911      856.912
10/10/2013  12:25:00       47.019     -117.825       12.815       54.237       86.897       70.078     2941.676     7551.111     4910.955        1.583        0.770      126.860       62.393        0.242      339.766       13.323      856.886
10/10/2013  12:26:00       57.094       26.905       79.837       61.003       58.852       50.338     3721.366     3463.565     2533.912        1.004        0.486       63.116       38.744        0.377      340.045       13.796      856.854
10/10/2013  12:27:00       70.056     -118.639       24.898       79.729      119.163       56.645     6356.647    14199.702     3208.658        2.168        1.188      137.779       65.436        0.226      339.718       13.243      856.840
10/10/2013  12:28:00       30.581       -9.840       64.408       63.706      123.917       64.475     4058.427    15355.480     4156.970        1.437        1.179       32.125       82.149        6.539      339.882       13.520      856.815
10/10/2013  12:29:00      148.007     -140.380      -42.273       74.754       92.974       65.537     5588.205     8644.072     4295.122        3.096        0.926      203.992       62.160        0.093      339.729       13.259      856.794
10/10/2013  12:30:00       27.637      -37.086       66.177       61.039       94.439       51.406     3725.765     8918.779     2642.526        1.090        0.764       46.251       59.636        1.663      340.237       14.119      856.791
10/10/2013  12:31:00      -25.710       -2.685       38.026       31.653       57.787       42.252     1001.909     3339.322     1785.250        0.412        0.306       25.850       27.084        1.098      340.601       14.736      856.787
10/10/2013  12:32:00        4.824     -151.416      -12.940       91.755       89.383       63.059     8418.918     7989.397     3976.477        2.175        1.019      151.492       48.803        0.104      340.133       13.941      856.800
10/10/2013  12:33:00       86.807     -175.069      -23.275       82.649       84.232       47.427     6830.909     7094.980     2249.339        2.745        0.809      195.409       44.116        0.051      339.766       13.321      856.826
10/10/2013  12:34:00       33.836       48.771       77.845       45.096       69.153       30.505     2033.609     4782.127      930.544        0.866        0.387       59.359       21.362        0.130      339.874       13.507      856.846
10/10/2013  12:35:00       17.700        0.469       34.667       38.433       58.095       31.039     1477.075     3375.068      963.412        0.366        0.291       17.707       31.108        3.087      339.760       13.315      856.856
10/10/2013  12:36:00        6.308        7.043       11.357       36.518       30.600       44.000     1333.538      936.349     1936.004        0.221        0.210        9.455       22.755        5.792      339.905       13.558      856.853
10/10/2013  12:37:00       42.069       44.374       11.412       26.822       26.238       28.547      719.424      688.444      814.920        0.305        0.111       61.147       15.244        0.062      339.769       13.329      856.845
10/10/2013  12:38:00       64.082        9.963        3.729       44.634       41.967       30.738     1992.202     1761.270      944.846        0.446        0.235       64.852       31.111        0.230      339.580       13.011      856.832
10/10/2013  12:39:00       39.842       41.770      -12.677       19.096       29.880       23.361      364.640      892.836      545.751        0.265        0.090       57.725       16.198        0.079      339.720       13.247      856.815
10/10/2013  12:40:00       44.572       48.433      -16.279       27.383       34.529       26.140      749.833     1192.235      683.322        0.361        0.131       65.821       17.161        0.068      339.836       13.443      856.810
10/10/2013  12:41:00      -75.047       29.487       -0.759       43.895       35.700       25.676     1926.776     1274.499      659.255        0.518        0.193       80.632       22.698        0.079      340.002       13.724      856.788
10/10/2013  12:42:00       28.327      109.073        0.799       38.016       96.834       38.344     1445.207     9376.911     1470.262        1.249        0.615      112.691       51.928        0.212      340.321       14.260      856.796
10/10/2013  12:43:00       76.125      129.271      -12.215       50.069       72.713       50.414     2506.882     5287.171     2541.526        1.649        0.517      150.020       40.793        0.074      339.972       13.669      856.798
10/10/2013  12:44:00       25.601       44.993       17.302       31.881       33.743       41.873     1016.388     1138.613     1753.382        0.344        0.195       51.767       30.250        0.341      340.198       14.054      856.796
10/10/2013  12:45:00       39.437      -75.909        3.472       44.773       51.387       26.156     2004.598     2640.624      684.123        0.633        0.266       85.542       24.325        0.081      339.981       13.687      856.792
10/10/2013  12:46:00       61.209      -21.164       29.645       58.652       64.703       47.947     3440.083     4186.488     2298.932        0.750        0.496       64.764       54.036        0.696      340.345       14.301      856.784
10/10/2013  12:47:00       28.875       86.529       95.445       53.687       90.959       73.261     2882.296     8273.540     5367.159        1.697        0.826       91.220       69.429        0.579      340.283       14.195      856.772
10/10/2013  12:48:00      139.274      109.950      109.243      102.837       77.170       62.884    10575.351     5955.271     3954.357        3.195        1.024      177.444       39.922        0.051      340.055       13.809      856.778
10/10/2013  12:49:00      103.214      -27.149       38.704       77.347       75.051       56.914     5982.528     5632.674     3239.168        1.387        0.743      106.725       50.690        0.226      339.802       13.383      856.793
10/10/2013  12:50:00       33.305      -21.338       22.377       45.761       38.293       31.329     2094.060     1466.385      981.487        0.330        0.227       39.554       18.985        0.230      340.007       13.731      856.789
10/10/2013  12:51:00       28.453       24.080       39.680       36.239       39.160       41.506     1313.242     1533.499     1722.785        0.377        0.228       37.275       15.211        0.167      340.359       14.326      856.794
10/10/2013  12:52:00       36.468      -13.451        3.029       52.595       44.280       34.074     2766.230     1960.680     1161.047        0.370        0.294       38.870       16.703        0.185      340.024       13.760      856.789
10/10/2013  12:53:00       87.742      -83.147       -8.591       49.227       58.784       30.191     2423.296     3455.541      911.512        1.074        0.340      120.880       32.795        0.074      339.980       13.685      856.780
10/10/2013  12:54:00       39.094     -125.401       -9.114       46.346       41.822       33.189     2147.990     1749.110     1101.536        1.117        0.250      131.353       24.139        0.034      339.934       13.608      856.763
10/10/2013  12:55:00       79.209      -54.729       11.335       61.364       61.402       38.140     3765.578     3770.163     1454.661        0.919        0.450       96.277       42.395        0.194      340.313       14.248      856.744
10/10/2013  12:56:00       27.906       -6.581       50.513       43.705       84.945       43.221     1910.094     7215.623     1868.041        0.718        0.550       28.671       42.557        2.203      340.544       14.638      856.735
10/10/2013  12:57:00       32.571      -34.903       33.351       61.857       97.433       49.092     3826.260     9493.270     2410.050        0.956        0.786       47.740       50.981        1.140      340.722       14.939      856.721
10/10/2013  12:58:00       47.871       -6.806       29.172       50.778       89.868       45.353     2578.367     8076.220     2056.874        0.795        0.636       48.353       19.780        0.167      340.740       14.970      856.730
10/10/2013  12:59:00       63.121       57.183       36.642       78.443       43.426       39.525     6153.252     1885.801     1562.203        0.910        0.480       85.171       38.633        0.206      340.852       15.159      856.724
10/10/2013  13:00:00       12.894      -32.792       40.110       41.386       79.946       42.824     1712.789     6391.408     1833.881        0.639        0.497       35.235       40.132        1.297      340.805       15.079      856.700
10/10/2013  13:01:00       88.613       35.036       10.547       50.574      101.749       46.586     2557.751    10352.955     2170.273        1.213        0.754       95.288        8.387        0.008      340.688       14.881      856.705
10/10/2013  13:02:00      105.875       75.666       13.691       65.409       42.203       41.499     4278.314     1781.060     1722.203        1.245        0.389      130.133       23.729        0.033      340.425       14.436      856.705
10/10/2013  13:03:00       66.140       59.674        9.471       84.568       51.974       41.584     7151.705     2701.252     1729.210        0.980        0.579       89.081       15.858        0.032      340.394       14.383      856.698
10/10/2013  13:04:00       33.232       22.579       53.424       95.809       58.280       45.800     9179.425     3396.534     2097.621        0.957        0.734       40.177       43.240        1.158      340.675       14.858      856.692
10/10/2013  13:05:00       93.670       55.511       32.085       86.790       62.012       45.120     7532.447     3845.434     2035.817        1.315        0.671      108.884       45.757        0.177      340.866       15.182      856.684
10/10/2013  13:06:00      184.206      117.524       20.646      107.774       70.861       63.623    11615.138     5021.306     4047.939        3.442        1.034      218.503       44.854        0.042      340.677       14.860      856.668
10/10/2013  13:07:00      150.935       94.798        9.149       81.538       54.194       43.208     6648.487     2936.977     1866.922        2.165        0.573      178.236       27.516        0.024      340.639       14.797      856.681
10/10/2013  13:08:00       46.050       41.716       42.570       83.613       67.446       70.114     6991.132     4548.933     4915.936        1.106        0.823       62.136       54.227        0.762      340.867       15.184      856.680
10/10/2013  13:09:00       41.544       38.580        6.976       57.250       50.228       35.499     3277.552     2522.802     1260.203        0.516        0.353       56.695       27.529        0.236      340.789       15.052      856.674
10/10/2013  13:10:00       -7.253      113.054      -13.832       43.627       64.605       32.644     1903.338     4173.818     1065.641        1.008        0.357      113.287       34.622        0.093      340.896       15.235      856.664
10/10/2013  13:11:00      -37.988      120.453        2.539       61.429       58.608       42.244     3773.570     3434.940     1784.529        1.247        0.450      126.301       35.066        0.077      340.810       15.087      856.656
10/10/2013  13:12:00     -117.787       92.357      -18.864       45.676       39.470       27.627     2086.299     1557.856      763.250        1.358        0.220      149.679       25.620        0.029      340.682       14.871      856.652
10/10/2013  13:13:00      -50.726       46.821       -8.632       64.600       61.736       32.917     4173.117     3811.320     1083.538        0.695        0.453       69.031       38.246        0.307      341.011       15.428      856.655
10/10/2013  13:14:00        6.238       73.320        7.180       49.880       62.379       48.984     2487.972     3891.179     2399.397        0.712        0.439       73.584       46.224        0.395      340.977       15.370      856.647
10/10/2013  13:15:00      -75.428        4.110        8.922       51.927       69.226       41.990     2696.395     4792.264     1763.182        0.752        0.463       75.540       26.180        0.120      340.951       15.327      856.622
10/10/2013  13:16:00      -57.997       60.966        2.925       67.552       51.411       37.065     4563.206     2643.133     1373.783        0.783        0.429       84.146       37.071        0.194      341.310       15.934      856.622
10/10/2013  13:17:00     -125.465       78.928      -13.776       65.588       67.816       34.008     4301.810     4598.986     1156.514        1.611        0.503      148.226       26.108        0.031      341.016       15.435      856.610
10/10/2013  13:18:00      -49.454       61.969        1.226       59.146       46.055       33.246     3498.256     2121.039     1105.297        0.650        0.336       79.283       33.746        0.181      341.216       15.775      856.590
10/10/2013  13:19:00       -8.698        1.539       17.776       42.614       85.012       25.943     1815.929     7226.968      673.026        0.505        0.486        8.833       27.012        9.351      341.684       16.568      856.585
10/10/2013  13:20:00      -17.785     -133.507       -4.521       46.749       59.588       29.389     2185.514     3550.698      863.731        1.238        0.330      134.686       25.957        0.037      340.533       14.618      856.570
10/10/2013  13:21:00      -58.987     -132.781        7.048       57.764       76.631       49.673     3336.717     5872.243     2467.368        1.642        0.584      145.294       45.787        0.099      340.800       15.069      856.529
10/10/2013  13:22:00     -181.147      -88.503       -0.917       84.613       61.675       42.816     7159.348     3803.780     1833.200        2.672        0.640      201.610       40.182        0.040      340.822       15.105      856.535
10/10/2013  13:23:00      -67.045      -38.122       -6.609       55.167       33.101       20.960     3043.445     1095.689      439.328        0.528        0.229       77.126       10.544        0.019      341.146       15.657      856.532
10/10/2013  13:24:00      -19.640       19.207      -14.398       31.925       30.678       24.105     1019.192      941.157      581.041        0.175        0.127       27.471       10.789        0.154      341.285       15.892      856.504
10/10/2013  13:25:00      -26.297      -23.759      -12.694       44.930       39.625       45.301     2018.719     1570.165     2052.198        0.353        0.282       35.441       13.014        0.135      341.204       15.755      856.500
10/10/2013  13:26:00       59.288      -20.195       22.993       55.279       48.152       58.528     3055.791     2318.620     3425.497        0.662        0.440       62.633       36.165        0.333      340.896       15.232      856.501
10/10/2013  13:27:00       46.875       34.087        2.865       25.140       27.430       25.923      632.008      752.401      672.025        0.271        0.103       57.958        7.477        0.017      340.866       15.182      856.480
10/10/2013  13:28:00       79.360       59.735       11.301       45.250       40.881       30.097     2047.580     1671.253      905.854        0.731        0.231       99.329       19.972        0.040      341.150       15.663      856.475
10/10/2013  13:29:00      113.287       90.347       17.331       40.996       55.975       29.685     1680.661     3133.245      881.177        1.349        0.285      144.901       18.616        0.017      340.734       14.958      856.474
10/10/2013  13:30:00       68.421       37.276       39.808      120.110       76.246       51.702    14426.395     5813.412     2673.056        1.528        1.146       77.917       30.310        0.151      341.074       15.533      856.443
10/10/2013  13:31:00      241.583      154.833       17.562       89.414       63.484       75.373     7994.859     4030.196     5681.065        5.017        0.885      286.942       27.153        0.009      340.779       15.031      856.457
10/10/2013  13:32:00       60.504      209.373      -16.936       64.910       94.009       61.138     4213.273     8837.654     3737.828        3.228        0.839      217.940       58.269        0.071      340.830       15.119      856.440
10/10/2013  13:33:00      127.254      139.260       10.953      102.587       85.545       86.939    10524.139     7318.017     7558.375        3.055        1.270      188.645       65.560        0.121      340.818       15.098      856.431
10/10/2013  13:34:00      120.891      123.890        6.205       96.524       85.962       82.854     9316.894     7389.477     6864.709        2.678        1.179      173.099       49.365        0.081      340.927       15.283      856.417
10/10/2013  13:35:00      172.093      142.138       62.682      107.101       90.574       77.321    11470.604     8203.639     5978.599        3.970        1.283      223.202       47.790        0.046      341.097       15.571      856.407
10/10/2013  13:36:00       82.390      135.795      146.312       85.633       99.686       71.294     7332.937     9937.319     5082.828        3.449        1.118      158.835       66.941        0.178      340.733       14.956      856.435
10/10/2013  13:37:00       45.515       71.132       89.004       66.050       95.230       58.433     4362.647     9068.659     3414.431        1.595        0.842       84.447       64.382        0.581      340.934       15.296      856.404
10/10/2013  13:38:00       61.922     -105.406       18.968       86.961       96.749       60.195     7562.210     9360.394     3623.379        1.792        1.027      122.249       70.756        0.335      341.113       15.599      856.364
10/10/2013  13:39:00       59.153      -81.288       20.882       89.152      118.610       52.974     7948.156    14068.308     2806.207        1.768        1.241      100.532       69.589        0.479      341.296       15.908      856.330
10/10/2013  13:40:00       67.325     -127.694       17.332       78.408      117.342       59.458     6147.771    13769.240     3535.287        2.229        1.173      144.355       71.813        0.247      341.343       15.987      856.326
10/10/2013  13:41:00       97.595     -116.431       21.585       95.689      103.617       63.291     9156.471    10736.518     4005.725        2.372        1.195      151.924       72.503        0.228      341.301       15.916      856.318
10/10/2013  13:42:00       29.121      -75.450       36.480       72.252       85.852       66.460     5220.420     7370.556     4416.933        1.244        0.850       80.875       47.096        0.339      341.340       15.984      856.297
10/10/2013  13:43:00       40.253     -121.733       -5.143      104.369      109.984       54.373    10892.860    12096.387     2956.404        2.120        1.297      128.216       68.190        0.283      341.318       15.945      856.306
10/10/2013  13:44:00       36.982      -46.553       17.627       52.320       96.888       47.362     2737.361     9387.298     2243.135        0.910        0.718       59.455       55.643        0.876      341.411       16.104      856.316
10/10/2013  13:45:00      103.974      -83.465       14.087       89.516       97.958       71.258     8013.061     9595.852     5077.725        2.033        1.134      133.330       75.957        0.325      341.294       15.906      856.278
10/10/2013  13:46:00       97.861     -148.574      -10.399       98.991      120.874       67.155     9799.257    14610.565     4509.827        3.033        1.446      177.907       79.057        0.197      341.291       15.900      856.259
10/10/2013  13:47:00       -4.458       -1.391       73.374       28.882       67.979       33.301      834.168     4621.186     1108.951        0.598        0.328        4.670       31.288       44.886      341.774       16.720      856.252
10/10/2013  13:48:00       32.334       23.113       52.330       47.875       50.365       34.584     2292.058     2536.613     1196.073        0.517        0.301       39.745       31.511        0.629      341.342       15.989      856.249
10/10/2013  13:49:00       48.692      -13.554       24.854       59.686       63.693       36.724     3562.364     4056.760     1348.682        0.607        0.448       50.543       29.427        0.339      341.442       16.159      856.247
10/10/2013  13:50:00       92.558      -90.204       -6.364       61.447       79.785       51.156     3775.750     6365.609     2616.899        1.475        0.638      129.243       48.917        0.143      341.104       15.585      856.268
10/10/2013  13:51:00       53.396      -44.574       14.194       55.092       60.127       49.171     3035.139     3615.234     2417.821        0.705        0.453       69.556       43.626        0.393      341.512       16.276      856.272
10/10/2013  13:52:00       37.701        7.600       34.742       52.332       62.245       32.358     2738.625     3874.462     1047.033        0.517        0.383       38.459       30.693        0.637      341.404       16.093      856.272
10/10/2013  13:53:00      148.008       63.660       14.939       71.899       76.918       54.567     5169.437     5916.375     2977.555        2.012        0.703      161.117       34.636        0.046      341.298       15.911      856.251
10/10/2013  13:54:00      185.992      128.591       17.639       85.561       53.598       46.005     7320.761     2872.725     2116.496        3.187        0.615      226.117       27.647        0.015      341.214       15.768      856.247
10/10/2013  13:55:00      127.629       94.017       25.708       78.837       48.249       38.085     6215.338     2327.947     1450.502        1.789        0.500      158.519       12.625        0.006      341.218       15.776      856.267
10/10/2013  13:56:00       19.837      146.811       10.393       68.649      105.957       45.889     4712.689    11226.874     2105.774        2.005        0.902      148.145       52.148        0.124      341.249       15.830      856.268
10/10/2013  13:57:00       76.197       39.872       30.884       76.252       55.632       47.542     5814.335     3094.897     2260.288        0.976        0.558       85.998       20.703        0.058      341.277       15.878      856.254
10/10/2013  13:58:00      101.552      -32.127       11.104       59.265       48.214       39.119     3512.375     2324.608     1530.268        0.942        0.368      106.512       33.327        0.098      341.058       15.506      856.258
10/10/2013  13:59:00       22.133       28.619       -7.299       41.823       33.681       22.901     1749.163     1134.442      524.473        0.238        0.170       36.179       16.096        0.198      341.168       15.693      856.254
10/10/2013  14:00:00       53.523     -112.540       -7.605       53.951       36.043       28.432     2910.665     1299.100      808.402        1.030        0.251      124.620       19.852        0.025      341.283       15.887      856.230
10/10/2013  14:01:00       75.758      -78.919      -11.033       43.149       51.592       33.463     1861.849     2661.709     1119.771        0.887        0.282      109.396       25.173        0.053      341.389       16.067      856.213
10/10/2013  14:02:00       14.752       18.600       18.123       23.857       27.870       29.467      569.133      776.714      868.310        0.155        0.111       23.740       21.297        0.805      341.614       16.449      856.207
10/10/2013  14:03:00       53.044       34.718       25.885       34.070       27.859       27.236     1160.756      776.131      741.773        0.368        0.134       63.396       10.445        0.027      341.751       16.681      856.220
10/10/2013  14:04:00      161.762      117.646       54.351       86.175       71.975       52.416     7426.152     5180.388     2747.390        2.915        0.768      200.019       29.393        0.022      341.690       16.575      856.216
10/10/2013  14:05:00      164.668       81.597       34.557      116.250       95.579       58.303    13514.007     9135.411     3399.193        3.050        1.302      183.776       38.779        0.045      341.650       16.507      856.200
10/10/2013  14:06:00      193.231      119.948       17.419       76.470       83.028       63.541     5847.707     6893.716     4037.430        3.440        0.839      227.433       21.407        0.009      341.517       16.280      856.215
10/10/2013  14:07:00       94.672       74.943       73.979       73.039       68.877       40.052     5334.696     4744.019     1604.161        1.587        0.584      120.745       25.245        0.044      341.843       16.837      856.226
10/10/2013  14:08:00       34.234      -83.404        1.706       78.943       88.943       34.518     6232.056     7910.835     1191.504        1.173        0.767       90.157       25.973        0.083      341.301       15.919      856.253
10/10/2013  14:09:00       63.830     -146.340       10.194       47.018       59.586       39.205     2210.658     3550.530     1537.017        1.644        0.365      159.655       29.785        0.035      341.536       16.316      856.228
10/10/2013  14:10:00       34.291       11.568        0.059       38.158       79.953       40.324     1456.054     6392.448     1626.046        0.539        0.474       36.190       22.295        0.380      341.707       16.606      856.228
10/10/2013  14:11:00        0.326       50.598       19.618       35.609       43.267       23.539     1268.020     1872.050      554.094        0.332        0.185       50.599       20.808        0.169      342.009       17.120      856.231
10/10/2013  14:12:00      -10.336       74.776       10.945       49.391       55.102       29.999     2439.424     3036.207      899.914        0.610        0.319       75.487       32.988        0.191      341.991       17.089      856.225
10/10/2013  14:13:00       63.333       47.016       15.682       38.628       30.706       32.543     1492.084      942.886     1059.078        0.498        0.175       78.877       22.232        0.079      341.670       16.544      856.230
10/10/2013  14:14:00       66.316       27.756        9.016       25.735       43.392       39.545      662.272     1882.902     1563.840        0.468        0.205       71.890       17.945        0.062      341.636       16.487      856.220
10/10/2013  14:15:00       95.425       29.884       43.052       69.417       79.792       65.752     4818.735     6366.707     4323.270        1.368        0.775       99.995       63.063        0.398      341.714       16.617      856.161
10/10/2013  14:16:00      110.060      121.521      101.335       96.740       94.578       87.407     9358.705     8945.080     7639.969        3.154        1.297      163.953       83.551        0.260      341.595       16.413      856.129
10/10/2013  14:17:00      185.963      161.821      135.226      120.003       91.630       85.311    14400.815     8396.037     7277.917        5.456        1.504      246.512       74.491        0.091      341.512       16.271      856.127
10/10/2013  14:18:00      108.604      120.969       98.993      106.976       70.363       62.114    11443.787     4950.884     3858.188        2.824        1.013      162.568       53.749        0.109      341.749       16.675      856.126
10/10/2013  14:19:00      124.572      146.880      139.262      104.397       89.090       67.816    10898.781     7937.051     4598.973        3.996        1.172      192.593       56.628        0.086      341.485       16.228      856.100
10/10/2013  14:20:00       88.290        1.674       73.842       95.223      162.956       90.092     9067.349    26554.553     8116.482        2.849        2.187       88.306      103.166        1.365      341.694       16.584      856.026
10/10/2013  14:21:00      142.434       36.207      101.857      112.472       95.718       82.360    12649.884     9161.944     6783.107        3.028        1.430      146.964       66.348        0.204      341.818       16.793      856.028
10/10/2013  14:22:00      111.690      -41.118       42.289      129.449      154.878       83.298    16756.926    23987.224     6938.618        3.181        2.384      119.018      102.799        0.746      341.898       16.928      856.050
10/10/2013  14:23:00      122.784     -188.951        4.359       71.891      128.505       59.646     5168.331    16513.460     3557.602        3.801        1.262      225.340       75.584        0.113      341.638       16.487      856.086
10/10/2013  14:24:00      -14.929      -49.252       27.395      100.741      100.182       66.647    10148.696    10036.453     4441.833        1.401        1.231       51.465       60.373        1.376      341.963       17.040      856.066
10/10/2013  14:25:00       43.687     -143.122       21.030       93.203       94.632       73.379     8686.775     8955.209     5384.423        2.293        1.151      149.642       63.205        0.178      341.969       17.049      856.067
10/10/2013  14:26:00       16.887     -112.812        6.853       90.752       91.716       48.565     8235.900     8411.776     2358.544        1.603        0.950      114.069       38.772        0.116      342.005       17.112      856.079
10/10/2013  14:27:00      -34.892      -89.070        8.043      107.428       88.637       46.950    11540.686     7856.599     2204.340        1.540        1.080       95.661       46.399        0.235      342.057       17.201      856.084
10/10/2013  14:28:00      -54.205      -71.283       -1.191       68.111       67.778       39.370     4639.102     4593.808     1550.022        0.940        0.539       89.551       26.671        0.089      342.233       17.499      856.077
10/10/2013  14:29:00      -72.731      -78.586       -8.881       89.250       63.438       43.287     7965.545     4024.412     1873.767        1.270        0.693      107.077       31.367        0.086      342.128       17.320      856.065
10/10/2013  14:30:00     -108.402      -73.823       20.361      105.640       83.162       55.640    11159.736     6915.913     3095.769        1.939        1.059      131.152       53.397        0.166      342.101       17.274      856.055
10/10/2013  14:31:00      -43.123     -104.420       13.382       88.120       96.643       46.121     7765.075     9339.776     2127.161        1.608        0.962      112.974       36.780        0.106      342.006       17.113      856.085
10/10/2013  14:32:00     -272.271     -151.138        9.015      142.308       93.913       57.145    20251.653     8819.657     3265.534        6.469        1.617      311.407       61.884        0.039      341.905       16.939      856.084
10/10/2013  14:33:00     -260.806      -16.182      -15.519       64.356       65.688       32.681     4141.681     4314.932     1068.050        3.902        0.476      261.308       28.872        0.012      341.776       16.720      856.137
10/10/2013  14:34:00     -160.450        9.204      -11.817       81.475       59.910       40.121     6638.174     3589.204     1609.731        1.890        0.592      160.713       31.697        0.039      342.320       17.646      856.174
10/10/2013  14:35:00     -116.131       10.050        8.466       84.882       79.398       44.576     7204.943     6304.038     1987.046        1.457        0.775      116.565       46.247        0.157      342.374       17.738      856.201
10/10/2013  14:36:00     -103.144       80.744       -1.311       79.201       77.171       47.028     6272.724     5955.433     2211.649        1.580        0.722      130.989       50.372        0.148      342.288       17.592      856.203
10/10/2013  14:37:00     -179.097      -50.227      -19.662       83.286       50.408       37.600     6936.487     2540.963     1413.740        2.294        0.545      186.007       26.342        0.020      342.112       17.290      856.243
10/10/2013  14:38:00     -208.453      -71.997        0.182       57.997       63.024       32.937     3363.665     3972.002     1084.836        2.853        0.421      220.536       20.520        0.009      342.122       17.308      856.283
10/10/2013  14:39:00     -218.919      -72.910      -18.286       93.621       88.907       40.296     8764.804     7904.543     1623.737        3.593        0.915      230.742       39.072        0.029      342.391       17.764      856.304
10/10/2013  14:40:00     -149.670      -51.475       -1.225      107.538       85.251       48.704    11564.502     7267.742     2372.086        2.312        1.060      158.275       49.420        0.097      342.320       17.645      856.303
10/10/2013  14:41:00     -146.939       -0.212      -14.716      123.920      102.950       45.912    15356.290    10598.715     2107.915        2.493        1.403      146.939       43.602        0.088      342.281       17.579      856.303
10/10/2013  14:42:00       36.947       96.467       -8.370      101.731       75.536       47.381    10349.220     5705.755     2244.989        1.452        0.915      103.300       23.731        0.053      342.244       17.519      856.286
10/10/2013  14:43:00       92.875      163.741        1.669      187.039      190.063       91.730    34983.693    36124.097     8414.377        5.746        3.976      188.247       73.168        0.151      342.318       17.641      856.221
10/10/2013  14:44:00       71.573      289.128      -22.060      257.685      205.102      127.181    66401.566    42066.650    16174.959       10.690        6.232      297.855      135.127        0.206      342.273       17.564      856.098
10/10/2013  14:45:00     -125.754      352.657      -49.892       94.138      146.800       64.004     8861.874    21550.129     4096.490        8.858        1.725      374.408       50.785        0.018      342.379       17.744      856.170
10/10/2013  14:46:00     -112.304      455.029      -34.126      111.191      184.184       74.119    12363.401    33923.741     5493.665       13.629        2.589      468.683       78.639        0.028      342.125       17.312      856.158
10/10/2013  14:47:00     -147.667      413.375      -64.282      103.285      152.554       74.633    10667.890    23272.616     5570.041       11.816        1.976      438.958       88.224        0.040      342.194       17.430      856.122
10/10/2013  14:48:00       45.427      441.431      -38.489      203.598      243.870      122.590    41452.012    59472.356    15028.364       15.716        5.798      443.762      121.645        0.075      342.405       17.789      855.918
10/10/2013  14:49:00     -404.235      339.598      -68.702      202.016      433.606      100.623    40810.608   188014.009    10125.040       26.115       11.947      527.951      117.169        0.049      342.623       18.160      855.943
10/10/2013  14:50:00     -329.340        2.620      -36.824      182.960      196.180       79.661    33474.237    38486.749     6345.800        9.405        3.915      329.350       83.723        0.065      342.533       18.005      856.174
10/10/2013  14:51:00     -298.284        4.378      -50.959      215.823      173.677       90.315    46579.710    30163.549     8156.801        8.823        4.245      298.316       88.157        0.087      342.377       17.742      856.231
10/10/2013  14:52:00     -535.073      -91.062      -52.854      166.124      148.774       82.236    27597.312    22133.703     6762.698       17.693        2.825      542.766       74.194        0.019      342.031       17.152      856.260
10/10/2013  14:53:00     -143.772       21.701       -0.094      120.085       92.790       53.144    14420.383     8609.935     2824.276        2.349        1.293      145.400       57.178        0.155      342.309       17.628      856.263
10/10/2013  14:54:00      -90.715        7.222        1.681      179.071      141.833       87.874    32066.541    20116.682     7721.795        3.408        2.995       91.002       86.592        0.905      342.555       18.045      856.225
10/10/2013  14:55:00     -336.029      323.776      -13.210      348.578      210.273      131.820   121506.651    44214.887    17376.445       20.047        9.155      466.633      136.433        0.085      342.426       17.825      856.157
10/10/2013  14:56:00     -689.433      -90.912      -64.991      292.778      253.469       84.007    85719.115    64246.341     7057.259       32.238        7.851      695.401       92.610        0.018      342.224       17.480      856.307
10/10/2013  14:57:00     -356.544      -61.964      -23.698      149.560      156.055       83.545    22368.186    24353.209     6979.813        9.260        2.685      361.889       77.700        0.046      342.174       17.396      856.394
10/10/2013  14:58:00     -418.014      -12.942      -28.090      133.319      179.652       72.657    17773.824    32274.872     5279.023       11.550        2.766      418.214       62.008        0.022      342.168       17.386      856.435
10/10/2013  14:59:00      -87.811       54.483       42.728      125.076      115.509       85.694    15643.898    13342.400     7343.427        2.441        1.816      103.340       90.209        0.762      342.353       17.700      856.428
10/10/2013  15:00:00     -238.359      -47.092        8.642      175.284      153.543       86.401    30724.621    23575.391     7465.078        6.042        3.088      242.967       81.359        0.112      342.306       17.621      856.431
10/10/2013  15:01:00     -237.685       95.146      -26.798      130.588      146.042       82.178    17053.191    21328.277     6753.179        5.569        2.257      256.021       69.223        0.073      342.196       17.433      856.444
10/10/2013  15:02:00     -302.384      222.140      -33.351      164.229      190.896       98.315    26971.102    36441.204     9665.902       10.747        3.654      375.210       99.390        0.070      342.085       17.244      856.417
10/10/2013  15:03:00     -310.385      358.756      -59.373      158.393      190.295       88.282    25088.204    36212.143     7793.676       14.882        3.455      474.388       97.018        0.042      342.027       17.146      856.380
10/10/2013  15:04:00     -163.739      118.029      -12.255      145.639      180.105       86.975    21210.668    32437.959     7564.734        5.104        3.061      201.845       62.343        0.095      342.170       17.388      856.353
10/10/2013  15:05:00     -173.426       64.149       -2.476      109.626      107.114       68.324    12017.807    11473.340     4668.124        3.117        1.408      184.910       58.470        0.100      342.230       17.492      856.348
10/10/2013  15:06:00     -242.833      279.273      -66.878      129.252      173.395       81.965    16706.196    30065.832     6718.182        9.745        2.675      370.083       71.105        0.037      342.125       17.312      856.353
10/10/2013  15:07:00     -195.734      157.209       -9.092      137.133       94.120       62.405    18805.584     8858.535     3894.421        4.733        1.578      251.051       61.616        0.060      342.318       17.640      856.366
10/10/2013  15:08:00     -139.176      110.797      -14.078      135.379      122.614       69.861    18327.445    15034.174     4880.493        3.504        1.912      177.893       75.769        0.181      342.298       17.608      856.358
10/10/2013  15:09:00     -194.366      293.975      -36.329      113.007      164.922       74.682    12770.674    27199.136     5577.338        8.552        2.277      352.420       76.942        0.048      342.267       17.552      856.379
10/10/2013  15:10:00     -213.732      313.361      -42.975      143.011      178.669       82.465    20452.062    31922.726     6800.523       10.244        2.959      379.311       96.198        0.064      342.215       17.467      856.413
10/10/2013  15:11:00     -244.580      304.576      -50.796      131.537      201.979       77.114    17302.056    40795.473     5946.609       10.959        3.202      390.622       90.295        0.053      342.189       17.421      856.428
10/10/2013  15:12:00     -110.484      198.402       -7.421       83.765      101.048       55.511     7016.612    10210.630     3081.494        3.596        1.015      227.091       54.895        0.058      342.331       17.661      856.406
10/10/2013  15:13:00     -132.958      159.031      -11.601      142.173      108.656       55.235    20213.239    11806.220     3050.934        3.908        1.754      207.289       53.760        0.067      342.341       17.680      856.386
10/10/2013  15:14:00     -106.361      224.721      -25.174       64.798      122.070       47.622     4198.728    14900.984     2267.853        4.190        1.068      248.620       22.371        0.008      342.268       17.556      856.381
10/10/2013  15:15:00     -197.026      253.256      -50.010       98.868      114.377       63.310     9774.909    13082.195     4008.139        6.616        1.343      320.871       63.819        0.040      342.314       17.635      856.387
10/10/2013  15:16:00     -143.921       85.523       -6.576      120.854      129.156       69.314    14605.711    16681.184     4804.487        3.207        1.805      167.414       59.273        0.125      342.479       17.916      856.394
10/10/2013  15:17:00     -169.363      201.457      -30.281      145.382      164.625       80.442    21135.799    27101.483     6470.982        6.244        2.735      263.190       75.106        0.081      342.375       17.738      856.395
10/10/2013  15:18:00     -262.858      199.143      -37.456      158.092      102.737       71.945    24993.186    10554.990     5176.025        7.543        2.036      329.776       51.932        0.025      342.305       17.618      856.393
10/10/2013  15:19:00     -323.189      143.627      -57.102      155.189      184.196       84.125    24083.591    33927.995     7076.963        9.670        3.254      353.666       81.682        0.053      342.138       17.334      856.369
10/10/2013  15:20:00     -190.511       99.159      -34.254       96.613      119.991       61.825     9334.069    14397.847     3822.384        3.742        1.378      214.772       55.753        0.067      342.312       17.630      856.329
10/10/2013  15:21:00     -219.648      245.997      -38.257       95.495      129.693       78.376     9119.280    16820.211     6142.873        7.115        1.604      329.787       55.106        0.028      342.433       17.835      856.358
10/10/2013  15:22:00     -114.587      140.831      -16.459      102.403      114.761       72.139    10486.294    13169.985     5204.084        3.104        1.443      181.558       52.225        0.083      342.498       17.947      856.358
10/10/2013  15:23:00     -278.734       95.007      -40.805      149.579      148.703       81.949    22373.792    22112.570     6715.710        6.978        2.560      294.481       93.574        0.101      342.278       17.571      856.372
10/10/2013  15:24:00     -207.355       25.040      -40.037      155.224      135.252      101.483    24094.394    18293.123    10298.849        4.895        2.634      208.861      100.917        0.233      342.517       17.978      856.360
10/10/2013  15:25:00     -346.897      -34.450      -42.221      159.634      128.781       78.803    25483.148    16584.525     6209.979        8.578        2.414      348.603       81.426        0.055      342.353       17.700      856.357
10/10/2013  15:26:00     -292.969       -8.433      -20.024      159.018      127.444       86.663    25286.850    16241.909     7510.531        6.766        2.452      293.090       69.528        0.056      342.402       17.784      856.366
10/10/2013  15:27:00     -410.288      -35.098      -31.987      160.839      132.170       74.699    25869.170    17468.873     5579.915       10.974        2.446      411.786       74.165        0.032      342.366       17.723      856.355
10/10/2013  15:28:00     -271.548        8.866      -26.692      160.034      139.958       67.493    25611.025    19588.375     4555.357        6.213        2.488      271.693       56.544        0.043      342.485       17.925      856.333
10/10/2013  15:29:00     -105.913       97.329      -14.327      112.008      114.877       51.076    12545.851    13196.726     2608.767        2.462        1.418      143.842       42.339        0.087      342.739       18.359      856.353
10/10/2013  15:30:00     -133.126      280.998      -38.080       86.875      209.073       64.424     7547.228    43711.624     4150.495        7.676        2.770      310.938       63.341        0.041      342.518       17.980      856.341
10/10/2013  15:31:00     -209.042      209.224      -45.053      138.788      108.190       61.834    19261.984    11704.979     3823.488        6.214        1.740      295.758       62.650        0.045      342.484       17.921      856.354
10/10/2013  15:32:00     -152.951      119.096      -26.392      123.051       93.262       66.246    15141.663     8697.854     4388.596        3.325        1.411      193.850       62.916        0.105      342.654       18.213      856.356
10/10/2013  15:33:00     -138.581      201.201      -10.604       98.941      144.349       69.002     9789.350    20836.529     4761.268        4.759        1.769      244.308       59.346        0.059      342.569       18.067      856.380
10/10/2013  15:34:00     -194.687      174.646      -43.524      103.785      136.082       70.338    10771.366    18518.347     4947.387        5.226        1.712      261.542       80.781        0.095      342.495       17.942      856.371
10/10/2013  15:35:00      -77.112       71.881       11.173       95.611      155.903       81.210     9141.380    24305.619     6595.048        2.563        2.002      105.419       70.582        0.448      342.686       18.268      856.345
10/10/2013  15:36:00     -151.317      164.770      -24.073       90.273      114.560       48.353     8149.297    13124.034     2337.969        3.711        1.181      223.710       46.783        0.044      342.625       18.163      856.336
10/10/2013  15:37:00     -132.031      138.702      -22.569       86.237       92.250       50.088     7436.856     8509.979     2508.785        2.781        0.923      191.495       33.883        0.031      342.777       18.421      856.340
10/10/2013  15:38:00     -167.570      193.784      -17.758       92.847      135.505       59.658     8620.530    18361.705     3559.106        4.824        1.527      256.187       42.894        0.028      342.651       18.207      856.330
10/10/2013  15:39:00     -247.277      173.101      -23.862      163.406      185.695       75.148    26701.549    34482.634     5647.294        7.924        3.342      301.845       81.081        0.072      342.539       18.015      856.325
10/10/2013  15:40:00     -215.490      268.978      -49.650      116.412      145.981       70.447    13551.853    21310.467     4962.749        8.053        1.991      344.652       76.416        0.049      342.502       17.954      856.340
10/10/2013  15:41:00     -197.420       90.412      -37.375      101.596      158.379       73.108    10321.710    25083.884     5344.791        4.464        2.038      217.138       58.688        0.073      342.713       18.313      856.324
10/10/2013  15:42:00     -168.140       43.375       -8.940      117.585      174.933       80.263    13826.268    30601.526     6442.156        4.054        2.543      173.644       42.153        0.059      342.849       18.545      856.322
10/10/2013  15:43:00     -311.560      307.791      -42.927      188.839      168.728       97.314    35660.048    28469.086     9470.015       13.361        3.680      437.955       94.710        0.047      342.399       17.779      856.375
10/10/2013  15:44:00     -284.035      301.437      -36.440      202.679      146.850      100.131    41078.760    21564.888    10026.211       12.275        3.633      414.174       72.167        0.030      342.282       17.580      856.365
10/10/2013  15:45:00     -308.736      322.474      -50.889      157.747      146.122       86.699    24884.045    21351.568     7516.638       12.781        2.688      446.439       80.624        0.033      342.282       17.579      856.358
10/10/2013  15:46:00     -269.540      337.078      -62.904      192.372      206.487       95.359    37006.944    42636.985     9093.279       13.947        4.437      431.594      103.700        0.058      342.364       17.721      856.343
10/10/2013  15:47:00     -293.449      326.830      -38.103      167.295      172.940       94.056    27987.640    29908.383     8846.516       13.055        3.337      439.238       77.421        0.031      342.329       17.659      856.359
10/10/2013  15:48:00     -155.100       48.865      -21.933      137.964      164.556       81.864    19033.994    27078.766     6701.655        3.986        2.641      162.616       80.735        0.246      342.496       17.943      856.346
10/10/2013  15:49:00     -187.246      160.520      -25.681      129.398      107.742       60.207    16743.780    11608.299     3624.924        4.673        1.599      246.633       28.700        0.014      342.529       17.998      856.386
10/10/2013  15:50:00     -152.545      158.899      -17.442       66.007      107.706       59.125     4356.932    11600.606     3495.715        3.413        0.973      220.270       49.934        0.051      342.556       18.044      856.406
10/10/2013  15:51:00     -253.981      240.637      -47.379      113.127      208.726       73.972    12797.715    43566.487     5471.892        9.323        3.092      349.875       84.810        0.059      342.387       17.757      856.424
10/10/2013  15:52:00     -146.812      331.613      -37.184       93.521      166.037       70.679     8746.203    27568.373     4995.459        8.710        2.066      362.658       73.521        0.041      342.434       17.837      856.421
10/10/2013  15:53:00     -235.259      137.945      -33.644      104.494      115.839       58.783    10918.988    13418.775     3455.411        5.164        1.390      272.719       53.277        0.038      342.533       18.006      856.465
10/10/2013  15:54:00     -129.731       47.647       -8.238      107.885      131.244       59.708    11639.076    17224.972     3565.105        2.579        1.621      138.204       46.003        0.111      342.710       18.308      856.488
10/10/2013  15:55:00     -189.852      158.494      -39.723      118.169       94.282       51.295    13963.982     8889.030     2631.185        4.411        1.274      247.314       42.777        0.030      342.525       17.992      856.515
10/10/2013  15:56:00     -196.632      108.425      -24.161      127.076      125.383       59.809    16148.370    15720.823     3577.162        4.322        1.772      224.544       58.609        0.068      342.766       18.403      856.499
10/10/2013  15:57:00     -328.215       98.496      -48.239      262.991      192.733      108.015    69164.447    37145.858    11667.320       11.884        5.899      342.676      139.579        0.166      342.538       18.015      856.513
10/10/2013  15:58:00     -199.683       -0.287      -10.706      156.417      185.022       87.041    24466.366    34233.147     7576.185        5.312        3.314      199.683       74.108        0.138      342.465       17.890      856.542
10/10/2013  15:59:00     -244.335      151.397      -33.375      177.948      151.102       75.665    31665.337    22831.892     5725.241        7.197        3.011      287.438       89.565        0.097      342.406       17.791      856.558
10/10/2013  16:00:00     -287.735       -3.532      -24.595      129.044      217.054       76.626    16652.351    47112.408     5871.551        7.651        3.482      287.756       75.589        0.069      342.432       17.834      856.531
10/10/2013  16:01:00     -189.337       98.097      -28.793      172.930      225.178       94.978    29904.732    50704.930     9020.798        6.795        4.482      213.240       86.505        0.165      342.391       17.767      856.548
10/10/2013  16:02:00     -191.049      123.282      -29.843      125.690      135.579       64.216    15798.005    18381.700     4123.680        4.544        1.915      227.373       68.127        0.090      342.393       17.769      856.556
10/10/2013  16:03:00     -153.649       37.471       -8.753       81.108       91.478       55.100     6578.463     8368.165     3036.062        2.153        0.899      158.152       51.576        0.106      342.481       17.918      856.550
10/10/2013  16:04:00     -139.595       60.272       -4.452      141.736      141.752       70.532    20089.107    20093.637     4974.694        3.414        2.258      152.051       69.405        0.208      342.445       17.857      856.536
10/10/2013  16:05:00     -105.906       78.673        3.804       94.498      134.009       62.581     8929.831    17958.443     3916.415        2.411        1.540      131.930       65.988        0.250      342.566       18.065      856.534
10/10/2013  16:06:00     -195.717       98.458      -19.129      128.199      166.266       73.151    16434.963    27644.373     5351.095        4.889        2.472      219.087       81.554        0.139      342.514       17.975      856.541
10/10/2013  16:07:00     -253.430       67.920      -42.544      119.802      171.307       81.420    14352.590    29346.096     6629.208        6.048        2.516      262.374       67.319        0.066      342.476       17.910      856.523
10/10/2013  16:08:00     -147.132      -12.623      -34.504      124.577       74.738       83.536    15519.341     5585.736     6978.340        2.553        1.404      147.672       71.916        0.237      342.424       17.823      856.506
10/10/2013  16:09:00     -123.364      107.791       -4.973      120.008      101.379       61.278    14401.818    10277.745     3755.027        2.764        1.422      163.822       42.041        0.066      342.483       17.923      856.522
10/10/2013  16:10:00     -158.092       84.592      -12.873      110.593      107.357       78.955    12230.751    11525.429     6233.859        3.115        1.500      179.301       61.608        0.118      342.569       18.068      856.514
10/10/2013  16:11:00     -177.989      -46.161      -24.226      126.587      141.441       66.250    16024.205    20005.565     4389.029        3.740        2.021      183.878       58.568        0.101      342.468       17.897      856.484
10/10/2013  16:12:00     -160.076      104.275      -19.269      134.958       94.707       59.904    18213.588     8969.358     3588.450        3.381        1.539      191.043       63.299        0.110      342.610       18.139      856.506
10/10/2013  16:13:00     -298.911       77.996      -45.742      178.266      154.903       96.202    31778.807    23994.964     9254.832        8.126        3.251      308.920      106.111        0.118      342.260       17.542      856.526
10/10/2013  16:14:00     -238.841        1.976      -62.664      124.280      102.258       58.314    15445.622    10456.774     3400.549        4.513        1.465      238.849       38.173        0.026      342.454       17.872      856.521
10/10/2013  16:15:00     -188.428       81.383       -9.343      114.550      173.235       74.120    13121.761    30010.397     5493.838        4.541        2.431      205.252       67.079        0.107      342.454       17.872      856.551
10/10/2013  16:16:00     -278.276      113.897      -35.670      163.328      198.466       73.779    26676.194    39388.809     5443.360        8.158        3.575      300.683       84.670        0.079      342.330       17.661      856.539
10/10/2013  16:17:00     -191.930      111.107      -27.426      146.373      121.717       60.470    21425.119    14814.948     3656.637        4.491        1.995      221.770       47.076        0.045      342.438       17.843      856.533
10/10/2013  16:18:00     -292.276       63.162      -54.207      119.908      140.123       72.421    14377.934    19634.410     5244.770        6.580        1.963      299.023       60.604        0.041      342.322       17.647      856.510
10/10/2013  16:19:00     -156.718       67.208      -28.871      105.757      108.640       53.319    11184.623    11802.563     2842.865        2.787        1.292      170.521       43.898        0.066      342.512       17.971      856.503
10/10/2013  16:20:00     -188.844      -49.075       -7.522      146.944      146.549       63.121    21592.444    21476.470     3984.201        4.258        2.353      195.116       53.348        0.075      342.578       18.081      856.500
10/10/2013  16:21:00     -399.060     -132.341      -24.382      142.729      115.684       77.777    20371.461    13382.709     6049.320       10.857        1.990      420.432       62.823        0.022      342.266       17.552      856.463
10/10/2013  16:22:00     -359.204     -112.537       -6.705      141.685      129.068       70.632    20074.717    16658.583     4988.895        9.172        2.086      376.420       67.115        0.032      342.330       17.662      856.490
10/10/2013  16:23:00     -426.116      -28.602      -39.788      158.692      164.110       89.172    25183.030    26932.181     7951.718       12.201        3.003      427.075       83.073        0.038      342.301       17.613      856.509
10/10/2013  16:24:00     -205.288      -90.179        0.837      149.198       96.171       76.947    22259.920     9248.885     5920.802        4.385        1.871      224.222       76.051        0.115      342.307       17.622      856.507
10/10/2013  16:25:00     -182.879      -20.209      -12.838      164.872       96.924       70.148    27182.889     9394.226     4920.772        3.775        2.075      183.992       79.363        0.186      342.363       17.717      856.511
10/10/2013  16:26:00     -159.280       41.970      -24.961      110.006       90.989       52.573    12101.381     8279.039     2763.944        2.544        1.157      164.717       61.395        0.139      342.236       17.503      856.525
10/10/2013  16:27:00      -89.451       35.039       -8.782       70.523       91.133       36.356     4973.442     8305.300     1321.786        1.195        0.730       96.069       21.930        0.052      342.404       17.787      856.518
10/10/2013  16:28:00     -102.373      139.200      -19.328       69.822      106.436       47.632     4875.162    11328.698     2268.795        2.435        0.924      172.791       39.500        0.052      342.265       17.551      856.504
10/10/2013  16:29:00     -101.611       16.010        5.242       74.312       91.313       47.355     5522.255     8337.974     2242.483        1.335        0.805      102.864       40.159        0.152      342.374       17.738      856.475
10/10/2013  16:30:00     -120.637      -53.059       17.707       64.481       68.811       43.591     4157.780     4734.890     1900.189        1.424        0.540      131.790       37.870        0.083      342.517       17.981      856.457
10/10/2013  16:31:00     -263.026     -129.112      -20.870       69.305       59.946       48.510     4803.220     3593.488     2353.243        4.852        0.537      293.007       32.783        0.013      342.372       17.731      856.442
10/10/2013  16:32:00     -135.268      -87.082       10.980      125.605       93.863       56.959    15776.600     8810.279     3244.313        2.691        1.392      160.875       68.151        0.179      342.311       17.630      856.429
10/10/2013  16:33:00     -109.516      104.350      -17.995       66.647       93.866       42.208     4441.828     8810.807     1781.528        1.912        0.752      151.270       30.614        0.041      342.508       17.966      856.446
10/10/2013  16:34:00     -101.278      174.218      -28.323      118.997      222.484       62.745    14160.280    49499.310     3936.985        5.449        3.380      201.517       61.292        0.093      342.502       17.952      856.418
10/10/2013  16:35:00     -167.091      -42.807       -2.926       96.908       92.193       42.955     9391.082     8499.566     1845.102        2.474        0.987      172.487       37.007        0.046      342.739       18.357      856.431
10/10/2013  16:36:00     -210.023       -8.209      -21.523       79.005       65.181       47.034     6241.838     4248.570     2212.218        2.867        0.635      210.183       49.060        0.054      342.663       18.226      856.419
10/10/2013  16:37:00     -344.667      -82.572      -29.870      124.771      115.274       60.321    15567.799    13288.048     3638.638        7.949        1.625      354.420       61.188        0.030      342.597       18.116      856.421
10/10/2013  16:38:00     -141.164       75.274        7.519      120.617      162.552       64.664    14548.436    26423.094     4181.414        3.539        2.258      159.979       59.469        0.138      342.432       17.834      856.427
10/10/2013  16:39:00     -216.953      125.768      -34.293      110.352      104.147       52.031    12177.585    10846.701     2707.205        4.489        1.287      250.771       45.186        0.032      342.479       17.915      856.429
10/10/2013  16:40:00     -163.887       68.808      -16.359       75.624      121.379       69.484     5718.980    14732.776     4828.003        2.857        1.264      177.745       62.443        0.123      342.524       17.993      856.437
10/10/2013  16:41:00     -209.347      104.682       -7.271      145.679      124.360       65.049    21222.312    15465.300     4231.400        4.787        2.046      234.061       72.464        0.096      342.458       17.878      856.470
10/10/2013  16:42:00     -226.839       54.531      -28.679      114.543      108.421       65.238    13120.007    11755.147     4256.002        4.219        1.457      233.301       63.370        0.074      342.386       17.755      856.491
10/10/2013  16:43:00     -143.217      112.794      -27.248       95.931      108.449       53.316     9202.697    11761.289     2842.624        2.889        1.190      182.301       39.752        0.048      342.388       17.760      856.500
10/10/2013  16:44:00     -162.300       71.036      -22.213       80.210      106.580       46.791     6433.693    11359.194     2189.353        2.593        0.999      177.165       43.895        0.061      342.317       17.640      856.516
10/10/2013  16:45:00     -102.582       73.865       -0.170       63.825       81.629       48.649     4073.673     6663.317     2366.770        1.454        0.655      126.408       25.747        0.041      342.492       17.938      856.515
10/10/2013  16:46:00     -141.823       89.736      -21.538      102.672      103.195       57.111    10541.560    10649.123     3261.635        2.654        1.223      167.828       32.320        0.037      342.448       17.862      856.533
10/10/2013  16:47:00      -85.299       79.933        1.889       84.488      108.433       50.578     7138.283    11757.623     2558.180        1.756        1.073      116.898       52.718        0.203      342.443       17.855      856.527
10/10/2013  16:48:00      -45.460       60.178       21.476       48.988       69.269       35.854     2399.780     4798.198     1285.535        0.731        0.424       75.419       21.129        0.078      342.618       18.155      856.514
10/10/2013  16:49:00     -140.990      133.292      -12.638       96.926      103.047       62.403     9394.687    10618.755     3894.097        3.085        1.195      194.024       47.762        0.061      342.379       17.747      856.516
10/10/2013  16:50:00      -99.449       65.233      -11.606       74.543      106.530       58.705     5556.635    11348.736     3446.273        1.731        1.018      118.935       52.347        0.194      342.464       17.891      856.495
10/10/2013  16:51:00     -203.214      186.673      -38.783      141.627       97.889       60.004    20058.261     9582.324     3600.429        5.544        1.662      275.940       49.470        0.032      342.267       17.554      856.497
10/10/2013  16:52:00      -93.094      153.586      -10.067       84.630       76.920       53.027     7162.222     5916.756     2811.867        2.412        0.795      179.598       48.848        0.074      342.349       17.694      856.489
10/10/2013  16:53:00      -64.388       62.203       -6.190       50.411      122.255       47.508     2541.317    14946.336     2257.035        1.390        0.987       89.527       32.596        0.133      342.438       17.846      856.489
10/10/2013  16:54:00     -164.933      198.207      -29.124       78.033       97.927       54.006     6089.198     9589.743     2916.685        4.296        0.930      257.854       51.784        0.040      342.365       17.721      856.490
10/10/2013  16:55:00     -169.963      192.179      -20.702      128.806       88.844       64.182    16590.983     7893.285     4119.352        4.742        1.430      256.554       51.551        0.040      342.418       17.809      856.487
10/10/2013  16:56:00     -138.911      120.940      -29.704       65.568       70.697       40.120     4299.196     4998.047     1609.607        2.285        0.545      184.181       29.878        0.026      342.621       18.158      856.500
10/10/2013  16:57:00     -216.207      187.759      -46.105       94.405      110.240       52.365     8912.276    12152.760     2742.067        5.396        1.190      286.354       56.384        0.039      342.407       17.793      856.516
10/10/2013  16:58:00     -212.718      260.508      -43.108      117.942      110.033       62.970    13910.306    12107.228     3965.264        7.247        1.499      336.323       69.082        0.042      342.166       17.381      856.517
10/10/2013  16:59:00     -114.474       94.124       -3.305       70.108      134.723       54.287     4915.069    18150.362     2947.127        2.399        1.301      148.201       43.195        0.085      342.487       17.929      856.485
10/10/2013  17:00:00     -128.450       73.205      -16.930       95.777       77.799       48.229     9173.301     6052.665     2326.051        1.985        0.878      147.846       47.568        0.104      342.471       17.902      856.484
10/10/2013  17:01:00      -35.034      269.796      -28.843       91.624      123.345       51.048     8394.873    15213.885     2605.906        5.053        1.311      272.061       51.791        0.036      342.319       17.642      856.500
10/10/2013  17:02:00      -69.936      271.522      -35.456       67.309      122.703       43.650     4530.567    15056.108     1905.335        5.068        1.075      280.384       51.641        0.034      342.249       17.523      856.505
10/10/2013  17:03:00      -56.817      218.922      -33.416       65.391       61.478       30.772     4276.034     3779.572      946.930        3.064        0.450      226.175       25.422        0.013      342.262       17.546      856.526
10/10/2013  17:04:00      -27.260      125.580        7.280       57.521       84.394       47.892     3308.625     7122.415     2293.597        1.464        0.636      128.504       48.911        0.145      342.395       17.774      856.536
10/10/2013  17:05:00      -38.195      265.805      -43.702       74.480       73.620       33.061     5547.342     5419.950     1093.033        4.304        0.603      268.535       22.229        0.007      342.166       17.381      856.536
10/10/2013  17:06:00      -11.482      200.995      -33.631       46.737       68.832       29.799     2184.364     4737.807      887.952        2.473        0.391      201.322       32.749        0.026      342.172       17.395      856.552
10/10/2013  17:07:00      -67.113       86.143       -5.843       81.198      126.707       35.858     6593.191    16054.613     1285.768        1.794        1.197      109.200       46.225        0.179      342.485       17.927      856.559
10/10/2013  17:08:00      -39.966       65.782       -8.363       67.676       58.741       30.717     4580.040     3450.550      943.539        0.748        0.449       76.971       23.145        0.090      342.304       17.620      856.556
10/10/2013  17:09:00      -19.128       50.136       15.145       25.220       56.685       31.729      636.031     3213.168     1006.748        0.398        0.243       53.662       31.724        0.350      342.406       17.794      856.551
10/10/2013  17:10:00      -58.103      112.156       -6.501       54.416       50.735       34.884     2961.125     2574.058     1216.885        1.137        0.338      126.313       35.243        0.078      342.428       17.830      856.555
10/10/2013  17:11:00     -111.056      139.618      -12.657       76.248       83.950       53.817     5813.713     7047.564     2896.233        2.387        0.788      178.400       50.144        0.079      342.446       17.859      856.565
10/10/2013  17:12:00     -138.844      115.218      -20.965      108.587      139.180       61.295    11791.186    19371.142     3757.071        3.395        1.746      180.424       55.599        0.095      342.373       17.733      856.562
10/10/2013  17:13:00     -122.055      154.035      -20.803       87.355      141.010       52.118     7630.950    19883.764     2716.252        3.464        1.512      196.530       55.591        0.080      342.448       17.861      856.570
10/10/2013  17:14:00     -162.704      177.883      -29.294       83.108      114.631       52.097     6906.964    13140.216     2714.073        4.086        1.138      241.070       49.212        0.042      342.360       17.712      856.577
10/10/2013  17:15:00     -205.875      185.950      -45.725       78.997      116.725       45.990     6240.517    13624.711     2115.046        5.051        1.099      277.420       52.131        0.035      342.215       17.465      856.585
10/10/2013  17:16:00     -105.938       70.686       -8.342       67.173       68.721       37.228     4512.162     4722.536     1385.904        1.345        0.531      127.355       14.945        0.014      342.438       17.847      856.577
10/10/2013  17:17:00      -92.768      170.333      -11.875       83.562       81.846       54.839     6982.562     6698.757     3007.267        2.722        0.834      193.957       58.366        0.091      342.401       17.782      856.576
10/10/2013  17:18:00     -115.235      303.030      -28.434       72.290      161.311       70.638     5225.821    26021.255     4989.773        7.107        1.812      324.201       70.201        0.047      342.188       17.420      856.572
10/10/2013  17:19:00     -128.660      171.022       -4.253       80.457       94.915       62.582     6473.295     9008.764     3916.541        3.261        0.970      214.013       60.971        0.081      342.359       17.711      856.552
10/10/2013  17:20:00     -162.308      249.050      -32.137       86.680      112.968       62.177     7513.390    12761.875     3865.962        5.677        1.207      297.270       63.138        0.045      342.199       17.437      856.559
10/10/2013  17:21:00     -130.000      167.467      -23.173       95.020       84.209       48.893     9028.708     7091.165     2390.560        3.199        0.926      212.002       36.159        0.029      342.301       17.613      856.547
10/10/2013  17:22:00      -99.677      231.177      -30.145       59.468       87.547       47.623     3536.432     7664.391     2267.993        3.888        0.673      251.751       41.531        0.027      342.196       17.431      856.537
10/10/2013  17:23:00      -77.381      111.554      -19.613       62.718       74.981       37.036     3933.601     5622.169     1371.669        1.487        0.546      135.765       34.506        0.065      342.392       17.769      856.531
10/10/2013  17:24:00     -143.745      287.865      -39.760       62.827       73.806       46.691     3947.243     5447.275     2180.090        5.834        0.579      321.759       32.677        0.010      342.167       17.383      856.532
10/10/2013  17:25:00      -99.999      223.006      -28.552       67.591       72.663       48.238     4568.608     5279.960     2326.869        3.636        0.609      244.400       40.835        0.028      342.239       17.507      856.540
10/10/2013  17:26:00     -116.806       88.764      -23.331       56.704       82.608       34.557     3215.390     6824.000     1194.168        1.665        0.562      146.706       38.793        0.070      342.458       17.881      856.555
10/10/2013  17:27:00      -99.145      163.312      -24.119       59.518       97.743       42.897     3542.414     9553.685     1840.152        2.601        0.747      191.052       49.035        0.066      342.239       17.507      856.560
10/10/2013  17:28:00     -134.764      189.537      -40.768       76.698       72.481       39.716     5882.640     5253.425     1577.337        3.423        0.636      232.564       39.860        0.029      342.263       17.548      856.575
10/10/2013  17:29:00     -182.796      236.679      -43.361       98.007       96.034       52.818     9605.388     9222.492     2789.715        5.646        1.081      299.050       58.153        0.038      342.200       17.440      856.592
10/10/2013  17:30:00     -107.692      255.907      -29.825       78.509      152.493       56.792     6163.717    23254.162     3225.299        5.530        1.632      277.644       74.701        0.072      342.132       17.325      856.607
10/10/2013  17:31:00      -82.031      294.290      -34.343       54.740      113.954       46.122     2996.509    12985.487     2127.195        5.631        0.905      305.509       45.528        0.022      342.148       17.352      856.619
10/10/2013  17:32:00     -116.750      247.258      -25.302       93.957      108.934       59.674     8827.921    11866.631     3561.005        4.983        1.213      273.435       56.995        0.043      342.187       17.417      856.647
10/10/2013  17:33:00     -153.931      226.810      -30.628      101.610      108.894       64.304    10324.607    11857.823     4134.975        5.119        1.316      274.112       60.883        0.049      342.199       17.438      856.659
10/10/2013  17:34:00     -207.314      208.036      -38.192       79.117       94.859       53.895     6259.462     8998.309     2904.641        5.294        0.908      293.697       48.169        0.027      342.192       17.426      856.672
10/10/2013  17:35:00     -178.907      190.490      -31.606       92.562      114.844       58.065     8567.720    13189.160     3371.544        4.721        1.256      261.332       66.771        0.065      342.191       17.424      856.680
10/10/2013  17:36:00     -183.791      224.543      -50.513       81.526       84.093       54.127     6646.507     7071.647     2929.743        5.170        0.832      290.170       53.488        0.034      342.161       17.374      856.673
10/10/2013  17:37:00     -165.786      153.293      -28.230       88.365       72.704       53.358     7808.357     5285.920     2847.112        3.386        0.797      225.796       39.177        0.030      342.214       17.463      856.677
10/10/2013  17:38:00      -52.673      186.444      -26.901       63.378       77.262       37.141     4016.738     5969.414     1379.481        2.481        0.568      193.742       35.588        0.034      342.149       17.355      856.678
10/10/2013  17:39:00      -87.545      194.135      -23.508       60.673       64.109       36.290     3681.259     4109.937     1316.963        2.750        0.455      212.961       29.091        0.019      342.173       17.394      856.676
10/10/2013  17:40:00     -135.900      174.008      -30.872       83.918       90.367       54.390     7042.239     8166.243     2958.284        3.393        0.908      220.789       66.067        0.090      342.190       17.423      856.678
10/10/2013  17:41:00      -79.281      155.613      -17.920       96.236      100.573       53.539     9261.345    10114.943     2866.401        2.653        1.112      174.645       65.099        0.139      342.195       17.432      856.678
10/10/2013  17:42:00     -136.990      220.833      -46.541       83.913      114.856       51.037     7041.350    13191.798     2604.779        4.626        1.142      259.873       51.968        0.040      342.192       17.427      856.690
10/10/2013  17:43:00     -140.882      192.387      -28.640       98.976       92.400       56.417     9796.240     8537.738     3182.881        3.959        1.076      238.454       58.381        0.060      342.165       17.381      856.689
10/10/2013  17:44:00      -68.542      221.440      -26.011       63.255       94.973       46.503     4001.237     9019.845     2162.535        3.479        0.759      231.805       50.513        0.047      342.113       17.294      856.699
10/10/2013  17:45:00     -137.156      167.361      -41.040       72.662       89.226       34.111     5279.772     7961.317     1163.545        3.145        0.720      216.382       26.422        0.015      342.169       17.386      856.703
10/10/2013  17:46:00     -111.336       80.646      -20.668       44.439       88.821       31.973     1974.802     7889.118     1022.255        1.510        0.544      137.476       32.929        0.057      342.231       17.495      856.717
10/10/2013  17:47:00     -115.840       93.065      -14.130       63.875       81.770       35.191     4079.955     6686.329     1238.436        1.714        0.600      148.594       27.705        0.035      342.242       17.513      856.724
10/10/2013  17:48:00     -111.218      107.145      -30.612       77.014       98.515       37.666     5931.204     9705.236     1418.764        2.092        0.853      154.433       50.543        0.107      342.238       17.506      856.728
10/10/2013  17:49:00      -89.709      146.118       -3.716       54.450       70.559       44.017     2964.797     4978.603     1937.462        1.964        0.494      171.459       38.602        0.051      342.122       17.310      856.736
10/10/2013  17:50:00      -49.942      130.365      -23.225       82.350       41.725       24.511     6781.543     1740.979      600.790        1.457        0.456      139.604       29.649        0.045      342.121       17.306      856.748
10/10/2013  17:51:00      -34.076      183.672      -27.589       42.523       75.734       27.287     1808.240     5735.585      744.582        2.197        0.414      186.806       36.258        0.038      342.062       17.206      856.750
10/10/2013  17:52:00     -117.409      116.954      -10.365       97.898      131.495       49.625     9584.038    17290.848     2462.667        2.845        1.467      165.720       49.585        0.090      342.194       17.430      856.759
10/10/2013  17:53:00     -153.262      158.546      -29.129       83.242       86.573       46.515     6929.265     7494.908     2163.618        3.303        0.829      220.513       40.713        0.034      342.078       17.232      856.766
10/10/2013  17:54:00      -83.260      187.491      -13.081       76.233       86.513       44.345     5811.417     7484.490     1966.455        2.876        0.763      205.147       48.532        0.056      341.979       17.065      856.772
10/10/2013  17:55:00      -82.026      122.487      -21.258       45.387       44.640       27.763     2059.953     1992.741      770.803        1.350        0.241      147.416       17.787        0.015      342.094       17.263      856.789
10/10/2013  17:56:00     -106.352      208.229      -23.470       61.800       89.461       46.374     3819.211     8003.219     2150.579        3.459        0.699      233.816       52.245        0.050      341.957       17.028      856.797
10/10/2013  17:57:00     -171.710      156.611      -19.145       89.380       72.151       49.821     7988.836     5205.804     2482.118        3.502        0.784      232.403       45.091        0.038      341.987       17.078      856.787
10/10/2013  17:58:00     -115.294      136.311       -9.175      108.446       99.296       51.728    11760.590     9859.690     2675.739        2.812        1.215      178.531       53.105        0.088      341.914       16.955      856.780
10/10/2013  17:59:00     -149.298      126.687      -15.133       98.945       72.476       45.675     9790.055     5252.711     2086.185        2.785        0.856      195.804       51.198        0.068      341.956       17.026      856.775
10/10/2013  18:00:00     -107.745      143.073      -11.979       99.922       73.592       57.156     9984.459     5415.826     3266.808        2.544        0.933      179.105       51.671        0.083      341.890       16.914      856.780
10/10/2013  18:01:00     -153.912      169.347      -23.622       75.537       76.350       43.296     5705.770     5829.397     1874.528        3.316        0.670      228.839       42.552        0.035      341.897       16.926      856.769
10/10/2013  18:02:00     -123.618      169.328      -12.253       70.130       83.837       50.414     4918.166     7028.619     2541.553        2.929        0.724      209.651       38.106        0.033      341.867       16.875      856.778
10/10/2013  18:03:00     -120.548      183.851      -31.069       64.183       97.540       44.645     4119.425     9514.065     1993.146        3.246        0.781      219.848       39.873        0.033      341.868       16.877      856.780
10/10/2013  18:04:00     -105.832      150.557      -16.125       35.022       72.319       32.594     1226.550     5230.041     1062.376        2.082        0.376      184.032       13.430        0.005      341.821       16.798      856.794
10/10/2013  18:05:00     -129.169      143.789      -30.290       86.334       87.810       43.184     7453.533     7710.655     1864.888        2.765        0.851      193.287       50.719        0.069      341.849       16.844      856.799
10/10/2013  18:06:00     -108.093      145.666      -14.858       52.831       84.458       38.781     2791.079     7133.211     1503.966        2.227        0.571      181.391       34.241        0.036      341.811       16.782      856.809
10/10/2013  18:07:00     -159.217      149.922      -12.714      108.013       72.186       50.345    11666.771     5210.814     2534.641        3.370        0.971      218.693       52.554        0.058      341.784       16.734      856.830
10/10/2013  18:08:00     -119.657      174.330      -16.890       46.629       62.767       40.055     2174.308     3939.740     1604.382        2.635        0.386      211.444       23.795        0.013      341.769       16.709      856.833
10/10/2013  18:09:00     -104.858      130.879      -16.245       46.062       72.049       35.893     2121.727     5191.118     1288.278        1.849        0.430      167.703       21.978        0.017      341.785       16.737      856.843
10/10/2013  18:10:00     -105.904      113.167      -12.533       40.585       86.204       28.291     1647.122     7431.124      800.376        1.703        0.494      154.992       28.075        0.033      341.775       16.720      856.852
10/10/2013  18:11:00      -79.984       42.038       -0.428       69.162       31.842       34.877     4783.350     1013.921     1216.377        0.759        0.351       90.359       30.948        0.117      341.786       16.741      856.860
10/10/2013  18:12:00      -85.729       19.331      -11.868       30.217       52.260       19.850      913.054     2731.086      394.022        0.595        0.202       87.882       17.796        0.041      341.773       16.718      856.873
10/10/2013  18:13:00      -33.147       40.319       -2.969       47.253       43.081       40.269     2232.831     1855.936     1621.624        0.422        0.286       52.195       24.367        0.218      341.718       16.625      856.891
10/10/2013  18:14:00      -74.738        6.401        3.047       70.579       60.395       35.963     4981.354     3647.586     1293.331        0.778        0.496       75.011       40.612        0.293      341.708       16.607      856.907
10/10/2013  18:15:00      -63.192       10.401        2.309       46.837       53.525       26.753     2193.735     2864.966      715.741        0.494        0.289       64.042       18.381        0.082      341.696       16.588      856.910
10/10/2013  18:16:00      -27.126       41.953       -1.929       38.084       42.179       18.919     1450.392     1779.071      357.939        0.304        0.179       49.959       19.293        0.149      341.650       16.510      856.916
10/10/2013  18:17:00      -39.113       49.794       -2.029       27.817       28.507       22.856      773.789      812.664      522.376        0.306        0.105       63.319       15.092        0.057      341.621       16.460      856.924
10/10/2013  18:18:00      -68.969        4.426      -17.684       46.119       38.874       20.528     2126.934     1511.225      421.395        0.457        0.203       69.111       15.314        0.049      341.662       16.532      856.919
10/10/2013  18:19:00      -67.729       20.740      -18.770       50.435       52.992       23.525     2543.727     2808.105      553.449        0.564        0.295       70.833       15.585        0.048      341.660       16.527      856.937
10/10/2013  18:20:00      -74.179        7.462       -3.764       51.556       38.550       24.106     2657.970     1486.086      581.099        0.515        0.236       74.554       17.176        0.053      341.703       16.599      856.957
10/10/2013  18:21:00     -115.940       29.183       -9.157       70.518       59.020       39.381     4972.734     3483.303     1550.864        1.219        0.500      119.557       32.677        0.075      341.653       16.515      856.969
10/10/2013  18:22:00     -168.909       18.085      -13.882       60.544       67.183       36.865     3665.537     4513.614     1358.998        1.929        0.477      169.875       38.268        0.051      341.457       16.180      856.985
10/10/2013  18:23:00     -168.953      -76.540      -21.678       64.534       48.130       34.270     4164.652     2316.542     1174.402        2.126        0.383      185.482       30.715        0.027      341.435       16.145      856.997
10/10/2013  18:24:00     -188.473      -66.237      -14.423       56.835       46.678       31.898     3230.232     2178.828     1017.452        2.327        0.321      199.773       26.199        0.017      341.294       15.904      857.021
10/10/2013  18:25:00     -190.051      -81.671        0.718       88.055       60.639       36.706     7753.744     3677.079     1347.295        2.778        0.639      206.856       45.454        0.048      341.206       15.755      857.048
10/10/2013  18:26:00     -193.438      -63.584      -11.202       60.644       73.114       41.438     3677.707     5345.693     1717.082        2.616        0.537      203.621       33.889        0.028      341.147       15.656      857.072
10/10/2013  18:27:00     -211.938      -30.849       -8.247       88.785       76.457       39.743     7882.853     5845.691     1579.537        3.062        0.765      214.172       27.217        0.016      341.210       15.763      857.074
10/10/2013  18:28:00     -333.992      -21.906      -33.804      131.654       89.124       48.144    17332.866     7943.115     2317.812        7.038        1.380      334.710       55.895        0.028      341.429       16.132      857.062
10/10/2013  18:29:00     -273.052      -19.520      -25.891      149.753       88.356       57.390    22425.812     7806.816     3293.650        5.456        1.676      273.749       71.886        0.069      341.392       16.070      857.054
10/10/2013  18:30:00     -203.730      -62.477       -8.245       88.926       76.882       45.490     7907.914     5910.814     2069.323        3.068        0.794      213.094       36.733        0.030      341.342       15.985      857.058
10/10/2013  18:31:00     -252.836      -51.875       -3.323      121.131       86.800       64.837    14672.663     7534.289     4203.853        4.651        1.321      258.103       67.219        0.068      341.351       15.999      857.067
10/10/2013  18:32:00     -258.609      -82.329       -1.648      106.711      114.512       59.653    11387.220    13112.994     3558.501        5.085        1.403      271.398       57.370        0.045      341.338       15.979      857.088
10/10/2013  18:33:00     -162.273      -91.808       -4.489      103.019      114.532       50.686    10613.003    13117.522     2569.044        3.054        1.315      186.444       50.399        0.073      341.317       15.943      857.102
10/10/2013  18:34:00     -187.192      -91.199        1.661      110.607       95.989       54.297    12233.807     9213.962     2948.142        3.387        1.220      208.226       62.115        0.089      341.297       15.911      857.126
10/10/2013  18:35:00     -302.478      -98.931      -20.948      136.525       88.402       64.716    18639.060     7814.885     4188.100        6.617        1.532      318.245       68.215        0.046      341.278       15.877      857.111
10/10/2013  18:36:00     -202.667      -92.562        2.648       75.006      118.988       47.677     5625.833    14158.133     2273.073        3.585        1.103      222.804       41.393        0.035      341.252       15.833      857.129
10/10/2013  18:37:00     -320.196     -118.688      -15.239      106.327      109.395       55.243    11305.505    11967.178     3051.805        7.158        1.316      341.485       50.238        0.022      341.242       15.814      857.146
10/10/2013  18:38:00     -236.167      -67.863        5.669      132.103      135.159       57.190    17451.145    18267.941     3270.742        4.969        1.949      245.724       62.753        0.065      341.225       15.787      857.162
10/10/2013  18:39:00     -320.984      -90.635       -8.024      112.111      103.574       51.287    12568.959    10727.537     2630.356        6.861        1.296      333.535       53.695        0.026      341.193       15.734      857.192
10/10/2013  18:40:00     -216.025     -114.727       -6.466       92.223      115.880       42.487     8505.020    13428.239     1805.144        4.180        1.187      244.600       46.129        0.036      341.155       15.670      857.209
10/10/2013  18:41:00     -260.410      -38.699       -6.987       81.968       75.900       47.401     6718.784     5760.811     2246.885        4.204        0.736      263.269       42.244        0.026      341.146       15.652      857.224
10/10/2013  18:42:00     -267.224      -27.759       -0.714      108.737       82.679       57.107    11823.757     6835.871     3261.266        4.705        1.096      268.662       51.060        0.036      341.172       15.696      857.229
10/10/2013  18:43:00     -325.646      -89.291      -16.833      105.178      110.955       59.290    11062.344    12311.084     3515.286        7.059        1.344      337.666       52.589        0.024      341.127       15.620      857.237
10/10/2013  18:44:00     -342.639      -27.827      -13.579      133.913       93.113       60.448    17932.687     8670.061     3653.901        7.430        1.513      343.767       65.014        0.036      341.129       15.622      857.246
10/10/2013  18:45:00     -399.462     -101.866       -9.351       94.870       80.504       50.786     9000.351     6480.897     2579.193        9.404        0.903      412.246       51.376        0.016      341.048       15.487      857.261
10/10/2013  18:46:00     -351.360     -141.183       -9.500      156.784      134.685       81.441    24581.073    18140.038     6632.683        9.641        2.468      378.664       84.324        0.050      341.087       15.553      857.264
10/10/2013  18:47:00     -194.869      -91.621       -9.162      122.276      114.951       53.748    14951.404    13213.759     2888.852        3.875        1.553      215.333       54.285        0.064      341.067       15.519      857.283
10/10/2013  18:48:00     -237.179     -115.704      -12.772      136.096      108.082       55.041    18522.211    11681.745     3029.493        5.151        1.662      263.897       60.269        0.052      341.031       15.458      857.294
10/10/2013  18:49:00      -92.336      -29.251       41.524      106.982      111.816       69.133    11445.154    12502.790     4779.403        1.991        1.436       96.858       69.951        0.522      340.984       15.381      857.295
10/10/2013  18:50:00     -131.961      -32.819       -7.928       70.064       87.376       44.030     4908.972     7634.635     1938.603        1.651        0.724      135.981       31.457        0.054      341.042       15.481      857.302
10/10/2013  18:51:00     -228.396     -132.764        0.627      156.548      105.462       65.557    24507.145    11122.189     4297.708        5.485        1.996      264.180       61.423        0.054      340.997       15.402      857.294
10/10/2013  18:52:00     -142.009      -88.768       13.312      114.643      100.180       49.061    13142.974    10035.990     2406.990        2.690        1.279      167.470       54.173        0.105      340.931       15.293      857.309
10/10/2013  18:53:00     -252.384      -23.133       -0.732       97.514       68.307       46.363     9508.983     4665.890     2149.571        4.028        0.816      253.442       48.039        0.036      340.909       15.250      857.320
10/10/2013  18:54:00     -235.544      -49.063       -5.469       92.905       83.826       50.652     8631.409     7026.868     2565.584        3.807        0.911      240.600       53.456        0.049      340.889       15.217      857.334
10/10/2013  18:55:00     -262.945      -89.002       -1.943      165.714      137.852       64.459    27461.093    19003.214     4155.018        6.383        2.531      277.600       71.634        0.067      340.867       15.181      857.344
10/10/2013  18:56:00     -327.449     -113.653      -21.792      124.429      125.636       65.149    15482.645    15784.311     4244.387        7.806        1.776      346.612       54.747        0.025      340.907       15.248      857.354
10/10/2013  18:57:00     -285.799      -27.504      -12.741      182.316      100.807       57.926    33239.213    10162.040     3355.369        6.467        2.338      287.119       74.098        0.067      340.882       15.207      857.370
10/10/2013  18:58:00     -197.154      -19.129       10.614      107.137       96.451       50.845    11478.415     9302.856     2585.196        3.135        1.168      198.080       45.849        0.054      340.854       15.158      857.382
10/10/2013  18:59:00     -232.226       -3.785       -9.763       87.485       93.158       46.767     7653.710     8678.484     2187.188        3.628        0.926      232.257       27.670        0.014      340.866       15.178      857.398
10/10/2013  19:00:00     -221.718      -93.159      -11.288       92.475       82.187       48.841     8551.619     6754.770     2385.456        3.782        0.885      240.495       32.706        0.018      340.845       15.143      857.410
10/10/2013  19:01:00     -166.598      -23.219        2.208      104.940       73.140       45.089    11012.457     5349.401     2033.041        2.334        0.920      168.208       45.752        0.074      340.812       15.089      857.435
10/10/2013  19:02:00     -176.189        1.790        6.100       90.762       71.633       46.201     8237.782     5131.308     2134.531        2.329        0.775      176.198       46.836        0.071      340.744       14.974      857.470
10/10/2013  19:03:00     -337.601     -128.631      -11.668      129.217       98.282       67.575    16697.161     9659.337     4566.319        8.078        1.546      361.276       64.401        0.032      340.798       15.063      857.459
10/10/2013  19:04:00     -211.608      -14.403       -7.081      116.050       74.834       53.591    13467.576     5600.200     2871.965        3.348        1.097      212.098       60.856        0.082      340.741       14.969      857.484
10/10/2013  19:05:00     -214.091      -21.021       -0.297      127.553       85.652       56.346    16269.795     7336.287     3174.828        3.652        1.339      215.121       50.390        0.055      340.717       14.929      857.489
10/10/2013  19:06:00     -282.710      -59.700      -12.801      167.948      121.611       63.977    28206.663    14789.149     4093.000        6.536        2.354      288.945       72.773        0.063      340.724       14.939      857.482
10/10/2013  19:07:00     -379.575      -14.431      -33.748      160.163      124.816       59.875    25652.052    15578.932     3585.008        9.511        2.241      379.849       57.672        0.023      340.724       14.939      857.456
10/10/2013  19:08:00     -250.046     -103.215       -8.882      152.630      108.148       62.936    23295.799    11695.925     3960.892        5.610        1.948      270.511       68.699        0.064      340.684       14.872      857.454
10/10/2013  19:09:00     -273.079      -42.091       -1.415      171.559      123.733       77.384    29432.377    15309.972     5988.231        6.353        2.537      276.303       79.973        0.084      340.689       14.881      857.454
10/10/2013  19:10:00     -255.688      -81.435        1.810      159.121      114.710       59.556    25319.496    13158.365     3546.902        5.701        2.101      268.343       63.096        0.055      340.690       14.882      857.477
10/10/2013  19:11:00     -312.062     -131.430       -2.373      175.809      142.288       71.924    30908.675    20245.903     5173.119        8.548        2.816      338.610       74.575        0.049      340.696       14.892      857.498
10/10/2013  19:12:00     -289.321      -19.842       -6.049      216.891      148.106       71.551    47041.627    21935.402     5119.591        7.910        3.705      290.001       87.339        0.091      340.715       14.926      857.541
10/10/2013  19:13:00     -214.243      -62.138       -5.228      138.777      105.744       59.069    19259.075    11181.781     3489.165        4.185        1.697      223.072       68.741        0.095      340.718       14.930      857.576
10/10/2013  19:14:00     -425.428     -116.140      -35.546      148.722      140.595       68.835    22118.180    19766.880     4738.234       12.117        2.331      440.996       59.120        0.018      340.735       14.957      857.600
10/10/2013  19:15:00     -310.741      -21.037      -15.739      141.473      103.116       59.976    20014.732    10632.891     3597.067        6.574        1.712      311.452       57.686        0.034      340.697       14.891      857.612
10/10/2013  19:16:00     -434.631      -49.992      -37.197      130.296      111.745       67.499    16977.143    12486.936     4556.101       11.340        1.701      437.497       64.667        0.022      340.729       14.949      857.596
10/10/2013  19:17:00     -367.635      -40.332      -23.706      131.814      133.236       72.320    17374.971    17751.718     5230.249        8.884        2.018      369.840       70.240        0.036      340.705       14.906      857.606
10/10/2013  19:18:00     -259.604      -25.955      -13.895      174.564      127.243       74.974    30472.662    16190.862     5621.059        6.026        2.614      260.898       82.590        0.100      340.675       14.857      857.618
10/10/2013  19:19:00     -269.383      -97.674        2.297      148.023      117.114       62.957    21910.885    13715.680     3963.642        6.084        1.980      286.544       71.157        0.062      340.665       14.840      857.624
10/10/2013  19:20:00     -366.755      -66.369       -2.964      184.302      127.777       78.739    33967.318    16327.021     6199.810        9.770        2.825      372.712       79.781        0.046      340.684       14.871      857.627
10/10/2013  19:21:00     -216.070     -132.102        8.915      201.156      135.938       86.392    40463.715    18479.263     7463.541        6.530        3.320      253.253      100.174        0.156      340.665       14.839      857.651
10/10/2013  19:22:00     -345.149     -115.568      -16.556      158.364      128.631       78.327    25079.077    16545.966     6135.076        9.025        2.388      363.984       81.378        0.050      340.651       14.815      857.700
10/10/2013  19:23:00     -465.380       -0.787      -25.852      196.090      109.192       77.549    38451.422    11922.825     6013.853       13.681        2.819      465.380       89.433        0.037      340.639       14.794      857.709
10/10/2013  19:24:00     -444.419      -77.996      -33.601      178.280      119.919       70.282    31783.888    14380.671     4939.502       12.790        2.555      451.211       83.105        0.034      340.604       14.735      857.713
10/10/2013  19:25:00     -281.465      -25.340      -11.420      177.858      111.890       74.322    31633.440    12519.357     5523.767        6.483        2.484      282.604       85.155        0.091      340.532       14.615      857.695
10/10/2013  19:26:00     -375.184      -42.061      -20.090      218.994      147.625       79.397    47958.513    21793.230     6303.948       10.948        3.803      377.534       86.727        0.053      340.541       14.630      857.690
10/10/2013  19:27:00     -373.581      -45.402      -10.935      146.583      130.062       73.627    21486.715    16916.038     5420.893        9.277        2.191      376.330       80.328        0.046      340.513       14.584      857.722
10/10/2013  19:28:00     -384.838     -140.353       -9.989      181.085      131.304       82.684    32791.724    17240.767     6836.569       11.237        2.843      409.633       90.287        0.049      340.522       14.600      857.742
10/10/2013  19:29:00     -479.833     -120.078      -27.032      201.524      154.507       84.031    40611.912    23872.385     7061.278       15.845        3.577      494.630       85.915        0.030      340.516       14.588      857.754
10/10/2013  19:30:00     -477.954      -83.791      -38.815      154.108      145.177       69.605    23749.339    21076.291     4844.877       14.331        2.484      485.243       50.058        0.011      340.522       14.598      857.773
10/10/2013  19:31:00     -326.877      -69.785      -20.840      142.125      102.766       58.092    20199.646    10560.857     3374.623        7.314        1.707      334.243       51.489        0.024      340.496       14.554      857.784
10/10/2013  19:32:00     -319.361     -119.300      -18.568       99.093       94.364       49.067     9819.422     8904.526     2407.581        6.885        1.057      340.917       36.997        0.012      340.459       14.490      857.811
10/10/2013  19:33:00     -271.922      -62.365       -3.287      154.745      120.092       61.596    23946.034    14422.199     3794.090        5.999        2.108      278.982       68.729        0.061      340.406       14.401      857.826
10/10/2013  19:34:00     -450.880       -1.144      -29.243      233.504      136.365       63.624    54524.185    18595.542     4048.035       14.064        3.858      450.881       82.047        0.033      340.430       14.442      857.839
10/10/2013  19:35:00     -314.360      -52.700      -20.221      196.755       94.122       62.366    38712.427     8858.869     3889.556        7.672        2.573      318.746       75.323        0.056      340.400       14.391      857.855
10/10/2013  19:36:00     -481.925     -151.482      -23.998      150.825      167.036       74.841    22748.099    27901.071     5601.193       15.600        2.813      505.171       70.932        0.020      340.415       14.417      857.841
10/10/2013  19:37:00     -274.883      -59.861       -2.308      155.794      161.627       78.397    24271.658    26123.176     6146.159        6.783        2.827      281.326       92.389        0.108      340.396       14.384      857.854
10/10/2013  19:38:00     -507.001      -91.449      -28.534      205.588      156.791       83.453    42266.420    24583.470     6964.421       17.001        3.691      515.183       82.761        0.026      340.394       14.381      857.868
10/10/2013  19:39:00     -388.184      -73.288      -22.567      171.778      121.776       71.433    29507.789    14829.311     5102.613       10.299        2.472      395.042       71.146        0.032      340.394       14.382      857.899
10/10/2013  19:40:00     -516.952      -58.012      -36.935      161.061      144.004       75.934    25940.686    20737.052     5765.986       16.220        2.622      520.197       74.579        0.021      340.402       14.395      857.913
10/10/2013  19:41:00     -451.544      -96.274      -32.120      233.282      159.272       84.021    54420.298    25367.635     7059.486       15.050        4.342      461.693       94.279        0.042      340.388       14.369      857.928
10/10/2013  19:42:00     -374.806      -78.020      -18.150      144.443       91.642       64.573    20863.864     8398.299     4169.651        9.016        1.672      382.840       70.349        0.034      340.363       14.329      857.932
10/10/2013  19:43:00     -249.678      -68.497        4.001      150.103      119.919       62.735    22530.771    14380.567     3935.695        5.394        2.042      258.903       71.823        0.077      340.287       14.201      857.931
10/10/2013  19:44:00     -376.091      -51.578       -9.548      159.599      139.222       68.017    25471.957    19382.882     4626.300        9.683        2.474      379.611       63.855        0.028      340.319       14.253      857.938
10/10/2013  19:45:00     -420.235      -41.700      -20.338      157.261      142.520       69.293    24731.042    20311.866     4801.554       11.429        2.492      422.299       76.995        0.033      340.292       14.209      857.946
10/10/2013  19:46:00     -406.788     -143.781       -5.861      234.195      148.046       95.849    54847.128    21917.624     9187.118       13.605        4.298      431.451      113.839        0.070      340.280       14.188      857.941
10/10/2013  19:47:00     -210.650      -30.178       -1.739      157.943       73.830       63.622    24945.952     5450.869     4047.697        3.986        1.722      212.801       75.157        0.125      340.262       14.157      857.964
10/10/2013  19:48:00     -264.620     -101.085       -2.452      163.898      160.078       77.612    26862.620    25625.006     6023.618        6.937        2.926      283.270       84.775        0.090      340.251       14.141      857.970
10/10/2013  19:49:00     -291.307      -85.937       -0.941      158.872      116.560       80.115    25240.420    13586.166     6418.423        6.874        2.262      303.718       94.152        0.096      340.248       14.133      857.966
10/10/2013  19:50:00     -274.077      -92.522       -6.683      141.638      108.490       62.905    20061.190    11770.071     3956.986        5.975        1.789      289.272       66.619        0.053      340.227       14.099      857.978
10/10/2013  19:51:00     -492.395     -108.776      -17.930      179.791      159.235       72.647    32324.864    25355.791     5277.570       15.877        3.148      504.267       73.838        0.021      340.225       14.094      857.998
10/10/2013  19:52:00     -464.779     -132.984      -25.493      129.714      141.516       68.524    16825.804    20026.917     4695.587       13.794        2.077      483.430       61.664        0.016      340.243       14.126      858.017
10/10/2013  19:53:00     -326.767      -28.853       -7.109      190.773      131.379       76.391    36394.488    17260.413     5835.525        8.356        2.975      328.038       86.152        0.069      340.190       14.034      858.025
10/10/2013  19:54:00     -395.859     -155.430      -11.884      158.630      131.815       72.920    25163.375    17375.100     5317.327       11.442        2.393      425.279       61.216        0.021      340.174       14.010      858.027
10/10/2013  19:55:00     -357.140     -157.266       -5.630      184.698      162.409       75.671    34113.502    26376.656     5726.066       10.925        3.311      390.233       84.041        0.046      340.172       14.007      858.033
10/10/2013  19:56:00     -518.925     -154.681      -28.849      173.167      132.171       67.435    29986.693    17469.106     4547.427       17.301        2.600      541.488       54.561        0.010      340.154       13.976      858.052
10/10/2013  19:57:00     -424.409      -73.786      -13.243      166.260      122.685       68.388    27642.260    15051.704     4676.867       11.655        2.369      430.775       67.396        0.024      340.123       13.923      858.077
10/10/2013  19:58:00     -426.289      -69.813      -13.996      151.739      126.189       70.269    23024.652    15923.641     4937.737       11.533        2.194      431.968       74.754        0.030      340.130       13.934      858.091
10/10/2013  19:59:00     -354.034      -62.860      -15.641      157.691      152.862       66.414    24866.440    23366.851     4410.801        9.108        2.632      359.571       76.605        0.045      340.135       13.943      858.101
10/10/2013  20:00:00     -425.176     -116.872        1.942      187.958      143.485       74.384    35328.294    20587.833     5533.009       12.793        3.072      440.946       82.143        0.035      340.131       13.936      858.115
10/10/2013  20:01:00     -379.270      -52.816      -17.801      166.805      101.781       72.773    27823.755    10359.365     5295.895        9.521        2.174      382.930       68.033        0.032      340.139       13.949      858.136
10/10/2013  20:02:00     -471.334     -126.758      -20.777      172.987      158.226       74.592    29924.406    25035.479     5564.027       14.958        3.026      488.081       72.888        0.022      340.126       13.929      858.154
10/10/2013  20:03:00     -303.488      -26.944       -3.769      157.358      121.289       71.455    24761.669    14711.102     5105.819        6.870        2.229      304.682       74.992        0.061      340.089       13.866      858.180
10/10/2013  20:04:00     -398.362      -17.035      -28.609      170.697      114.304       80.455    29137.615    13065.437     6473.076       10.423        2.434      398.726       74.755        0.035      340.096       13.878      858.198
10/10/2013  20:05:00     -423.880     -115.965      -17.939      170.489       97.057       71.792    29066.579     9420.123     5154.108       11.853        2.182      439.457       64.709        0.022      340.077       13.844      858.210
10/10/2013  20:06:00     -394.565      -39.018      -10.459      185.248      120.415       77.343    34316.844    14499.863     5981.886       10.605        2.740      396.490       83.030        0.044      340.055       13.809      858.243
10/10/2013  20:07:00     -543.499      -35.565      -51.990      169.697      145.873       74.227    28797.236    21278.995     5509.605       17.746        2.779      544.661       85.062        0.024      340.061       13.818      858.274
10/10/2013  20:08:00     -313.240      -41.958      -12.819      162.369      125.975       76.235    26363.610    15869.705     5811.756        7.403        2.402      316.037       84.057        0.071      340.010       13.733      858.308
10/10/2013  20:09:00     -349.556      -51.841      -28.084      112.823      138.947       57.249    12729.002    19306.284     3277.432        8.048        1.766      353.379       42.543        0.014      340.023       13.754      858.304
10/10/2013  20:10:00     -500.565       -9.162      -27.830      201.149      127.696       82.557    40460.819    16306.212     6815.621       15.749        3.179      500.649       88.396        0.031      340.015       13.740      858.332
10/10/2013  20:11:00     -393.950      -61.599      -13.624      220.664      144.949       80.031    48692.596    21010.083     6405.031       11.763        3.805      398.737       99.801        0.063      339.996       13.708      858.352
10/10/2013  20:12:00     -338.818      -65.205      -14.692      230.759      144.400       99.478    53249.813    20851.309     9895.792       10.161        4.200      345.036      129.026        0.140      339.993       13.704      858.366
10/10/2013  20:13:00     -345.169      -38.162       -1.002      176.941      119.961       75.652    31308.098    14390.744     5723.281        8.600        2.571      347.272       82.516        0.056      339.997       13.710      858.384
10/10/2013  20:14:00     -434.468      -60.917       -7.745      208.947      127.979       78.629    43658.796    16378.726     6182.569       12.936        3.311      438.718       79.345        0.033      340.013       13.738      858.390
10/10/2013  20:15:00     -378.333       43.329      -12.110      190.752      127.449       71.469    36386.253    16243.133     5107.885       10.144        2.887      380.806       70.401        0.034      339.988       13.696      858.421
10/10/2013  20:16:00     -443.085     -106.350       -9.653      223.292      160.012       80.140    49859.455    25603.827     6422.461       14.479        4.094      455.670       89.137        0.038      339.983       13.687      858.430
10/10/2013  20:17:00     -379.610      -72.533        4.977      189.366      170.594       83.269    35859.516    29102.420     6933.703       11.063        3.595      386.477       93.728        0.059      339.973       13.671      858.467
10/10/2013  20:18:00     -441.646     -142.918      -11.137      260.734      196.584      100.797    67982.066    38645.381    10160.112       16.617        5.839      464.194      117.969        0.065      339.952       13.635      858.477
10/10/2013  20:19:00     -429.305       -2.216      -25.032      160.760      132.260       68.775    25843.727    17492.806     4729.943       11.649        2.403      429.310       71.844        0.028      339.926       13.590      858.502
10/10/2013  20:20:00     -451.473     -116.743      -23.273      201.293      113.242       81.499    40519.005    12823.665     6642.123       13.898        2.999      466.323       99.200        0.045      339.927       13.593      858.511
10/10/2013  20:21:00     -303.595      -47.472        6.611      166.184      146.695       71.612    27616.956    21519.318     5128.257        7.435        2.713      307.284       74.106        0.058      339.861       13.481      858.516
10/10/2013  20:22:00     -442.985      -94.814      -23.787      156.372      227.025       87.898    24452.087    51540.558     7726.054       14.474        4.186      453.018       81.406        0.032      339.893       13.535      858.543
10/10/2013  20:23:00     -331.264     -107.105        3.168      176.154      143.638       73.380    31030.113    20631.861     5384.625        8.912        2.852      348.148       84.126        0.058      339.879       13.510      858.535
10/10/2013  20:24:00     -455.115     -110.998      -22.058      206.962      167.797       90.027    42833.245    28155.812     8104.940       14.950        3.955      468.455       89.298        0.036      339.874       13.503      858.549
10/10/2013  20:25:00     -404.703      -55.270      -13.927      196.904      125.141       80.009    38771.344    15660.159     6401.497       11.392        3.042      408.460       83.611        0.042      339.839       13.443      858.594
10/10/2013  20:26:00     -498.515      -80.401      -32.934      223.816      152.743       83.067    50093.678    23330.430     6900.103       16.818        4.016      504.957       98.911        0.038      339.877       13.507      858.633
10/10/2013  20:27:00     -475.201      -70.523      -20.920      224.431      118.584       69.725    50369.123    14062.128     4861.641       15.025        3.465      480.406       94.128        0.038      339.842       13.450      858.646
10/10/2013  20:28:00     -399.107      -51.078      -30.437      165.465      128.397       72.417    27378.694    16485.687     5244.234       10.596        2.455      402.363       79.376        0.039      339.856       13.471      858.683
10/10/2013  20:29:00     -388.888      -36.055      -25.267      192.362      117.693       67.839    37003.170    13851.675     4602.181       10.430        2.773      390.556       88.531        0.051      339.839       13.444      858.703
10/10/2013  20:30:00     -444.584     -127.572      -21.252      165.947      153.465       77.274    27538.516    23551.360     5971.287       13.571        2.853      462.525       73.721        0.025      339.828       13.426      858.709
10/10/2013  20:31:00     -456.801     -132.832      -20.803      174.878      155.177       74.176    30582.409    24079.989     5502.027       14.344        3.008      475.722       58.056        0.015      339.842       13.449      858.729
10/10/2013  20:32:00     -317.656      -80.456        1.513      163.026      136.594       73.251    26577.517    18657.954     5365.736        7.898        2.530      327.687       71.373        0.047      339.815       13.405      858.751
10/10/2013  20:33:00     -502.903      -67.865      -30.017      166.219      127.946       74.680    27628.767    16370.200     5577.124       15.399        2.479      507.462       81.925        0.026      339.817       13.406      858.760
10/10/2013  20:34:00     -356.248     -102.861      -18.754      179.405      140.974       70.022    32186.175    19873.728     4903.083        9.739        2.848      370.801       73.823        0.040      339.782       13.349      858.759
10/10/2013  20:35:00     -359.658      -85.486      -13.735      137.879       98.930       62.986    19010.527     9787.190     3967.226        8.480        1.638      369.678       65.726        0.032      339.771       13.331      858.759
10/10/2013  20:36:00     -431.272       16.696      -34.904      144.938      122.088       62.049    21007.094    14905.398     3850.081       11.362        1.988      431.595       60.107        0.019      339.754       13.301      858.772
10/10/2013  20:37:00     -223.950      -67.577       -5.665      169.887      114.707       71.121    28861.657    13157.658     5058.189        5.091        2.354      233.923       80.564        0.119      339.732       13.265      858.775
10/10/2013  20:38:00     -447.490      -30.138      -21.367      204.605      141.059       74.167    41863.289    19897.669     5500.722       13.442        3.363      448.504       82.526        0.034      339.738       13.274      858.772
10/10/2013  20:39:00     -393.287      -52.842      -11.115      182.497      144.122       78.639    33305.313    20771.133     6184.140       10.891        3.013      396.821       81.527        0.042      339.704       13.216      858.775
10/10/2013  20:40:00     -331.492     -110.169        0.947      192.943      136.366       76.941    37226.809    18595.719     5919.948        9.187        3.087      349.319       88.149        0.064      339.698       13.208      858.789
10/10/2013  20:41:00     -339.412      -56.967       -6.938      184.375      132.123       71.277    33994.174    17456.457     5080.393        8.750        2.827      344.159       68.793        0.040      339.707       13.223      858.779
10/10/2013  20:42:00     -511.379      -71.246      -29.545      169.758      162.297       88.936    28817.942    26340.337     7909.623       16.525        3.153      516.318       95.383        0.034      339.738       13.274      858.789
10/10/2013  20:43:00     -405.593      -59.524      -33.339      223.280      139.807       88.722    49854.103    19545.917     7871.623       12.320        3.864      409.937      104.227        0.065      339.718       13.242      858.778
10/10/2013  20:44:00     -476.881      -39.095      -27.476      193.903      133.847       78.778    37598.180    17915.029     6205.942       14.570        3.086      478.481       78.297        0.027      339.701       13.211      858.781
10/10/2013  20:45:00     -367.414      -36.701      -17.576      146.280      136.761       76.453    21397.698    18703.675     5845.028        9.129        2.297      369.243       69.174        0.035      339.689       13.193      858.787
10/10/2013  20:46:00     -432.017     -127.073       -3.364      184.616      132.516       77.616    34083.195    17560.364     6024.307       13.022        2.883      450.318       79.706        0.031      339.683       13.181      858.783
10/10/2013  20:47:00     -437.630      -73.545      -31.816      142.163      141.894       83.552    20210.443    20133.897     6980.931       12.262        2.366      443.767       77.047        0.030      339.662       13.145      858.802
10/10/2013  20:48:00     -406.438      -49.384      -22.754      150.313      140.948       71.120    22594.129    19866.371     5058.075       10.782        2.376      409.427       59.193        0.021      339.666       13.152      858.812
10/10/2013  20:49:00     -383.797      -83.243      -25.481      149.803      143.328       61.981    22440.921    20542.982     3841.705       10.084        2.341      392.721       56.058        0.020      339.631       13.095      858.812
10/10/2013  20:50:00     -362.374     -100.685       -8.077      166.918      128.214       60.992    27861.584    16438.738     3720.023        9.476        2.401      376.101       55.600        0.022      339.637       13.103      858.798
10/10/2013  20:51:00     -385.379      -59.722      -10.725      187.769      143.495       80.168    35257.132    20590.747     6426.940       10.722        3.114      389.979       98.360        0.064      339.632       13.096      858.841
10/10/2013  20:52:00     -495.603       -7.400      -22.973      144.192      140.037       67.445    20791.426    19610.338     4548.803       14.557        2.248      495.659       65.536        0.017      339.651       13.128      858.864
10/10/2013  20:53:00     -456.491      -29.282      -26.658      152.117      114.889       67.064    23139.466    13199.563     4497.573       12.539        2.042      457.429       74.201        0.026      339.640       13.108      858.890
10/10/2013  20:54:00     -431.603     -110.544      -21.043      140.760      110.976       68.543    19813.393    12315.571     4698.148       11.788        1.841      445.534       62.510        0.020      339.637       13.104      858.903
10/10/2013  20:55:00     -376.206     -100.405       -6.985      149.793      126.032       71.551    22438.069    15883.943     5119.494        9.754        2.172      389.374       50.135        0.017      339.593       13.030      858.919
10/10/2013  20:56:00     -319.264      -28.454      -17.599      168.646      133.081       63.057    28441.398    17710.568     3976.162        7.658        2.506      320.530       62.238        0.038      339.573       12.997      858.947
10/10/2013  20:57:00     -472.274      -54.181      -38.194      157.762      145.448       60.935    24888.955    21155.195     3713.135       13.859        2.488      475.372       55.214        0.013      339.582       13.012      858.940
10/10/2013  20:58:00     -349.282        7.112      -32.316      134.282       99.774       69.776    18031.598     9954.810     4868.624        7.797        1.643      349.354       70.956        0.041      339.557       12.969      858.956
10/10/2013  20:59:00     -368.210      -92.456      -12.210      213.291      102.447       59.281    45493.178    10495.453     3514.279       10.188        2.975      379.640       69.876        0.034      339.550       12.956      858.963
10/10/2013  21:00:00     -304.117      -67.097        4.765      198.037      130.336       82.072    39218.751    16987.388     6735.780        7.996        3.147      311.431       97.515        0.098      339.531       12.926      858.970
10/10/2013  21:01:00     -370.860      -41.234      -16.782      149.427      114.391       74.217    22328.329    13085.238     5508.234        9.021        2.046      373.145       69.965        0.035      339.543       12.945      859.001
10/10/2013  21:02:00     -396.404      -56.326      -18.489      142.919      121.379       67.029    20425.809    14732.939     4492.953       10.014        1.983      400.386       79.019        0.039      339.543       12.944      859.005
10/10/2013  21:03:00     -380.216      -57.920      -17.266      206.841      135.729       72.990    42783.038    18422.466     5327.552       10.736        3.327      384.602       87.283        0.052      339.541       12.942      859.005
10/10/2013  21:04:00     -270.039      -56.202       -4.328      151.398      118.637       67.151    22921.301    14074.808     4509.233        5.879        2.075      275.826       67.448        0.060      339.542       12.944      859.011
10/10/2013  21:05:00     -393.475      -46.490      -31.620      154.700      129.889       79.402    23932.227    16871.237     6304.631       10.254        2.355      396.212       77.960        0.039      339.552       12.960      859.012
10/10/2013  21:06:00     -415.712      -40.355      -27.542      158.343      129.188       66.924    25072.397    16689.500     4478.879       11.071        2.312      417.666       65.236        0.024      339.553       12.961      859.020
10/10/2013  21:07:00     -407.534     -110.091      -13.534      157.949      111.649       75.732    24947.770    12465.577     5735.261       11.076        2.157      422.142       78.814        0.035      339.543       12.944      859.057
10/10/2013  21:08:00     -457.841      -91.645      -36.426      182.047      137.096       65.334    33141.145    18795.410     4268.499       13.776        2.810      466.923       79.265        0.029      339.535       12.930      859.069
10/10/2013  21:09:00     -370.921     -109.198       -6.743      154.175      121.041       64.438    23770.079    14650.821     4152.193        9.605        2.129      386.661       69.551        0.032      339.535       12.932      859.072
10/10/2013  21:10:00     -417.100      -43.698      -41.045      196.120      154.158       80.705    38462.951    23764.576     6513.321       12.314        3.437      419.383       85.574        0.042      339.531       12.925      859.083
10/10/2013  21:11:00     -406.505      -62.887      -15.481      140.511      127.205       73.089    19743.333    16181.102     5342.000       10.535        2.063      411.341       74.197        0.033      339.516       12.900      859.108
10/10/2013  21:12:00     -470.381      -53.473      -14.531      163.091      125.158       90.615    26598.532    15664.534     8211.065       13.739        2.524      473.411       98.967        0.044      339.520       12.905      859.122
10/10/2013  21:13:00     -381.488      -89.289      -18.557      200.628      127.024       68.125    40251.726    16135.048     4640.951       10.743        3.051      391.798       64.952        0.027      339.527       12.919      859.126
10/10/2013  21:14:00     -307.817      -97.825       -2.136      182.842      113.256       74.315    33431.210    12826.895     5522.737        7.804        2.589      322.988       89.177        0.076      339.482       12.842      859.142
10/10/2013  21:15:00     -375.249       33.824      -29.220      160.349      144.143       79.066    25711.946    20777.124     6251.478        9.776        2.637      376.770       72.842        0.037      339.496       12.865      859.140
10/10/2013  21:16:00     -432.287     -119.601      -36.991      212.996      142.000       64.441    45367.400    20164.094     4152.686       13.610        3.484      448.527       76.397        0.029      339.493       12.861      859.136
10/10/2013  21:17:00     -381.652      -71.266      -13.568      143.901      123.987       66.544    20707.369    15372.706     4428.099        9.571        2.025      388.248       74.273        0.037      339.485       12.846      859.164
10/10/2013  21:18:00     -457.757     -112.014      -30.184      132.124      154.819       70.984    17456.644    23968.794     5038.783       13.472        2.323      471.263       62.127        0.017      339.528       12.920      859.167
10/10/2013  21:19:00     -395.379     -109.275       -0.185      191.296      114.662       66.996    36593.979    13147.436     4488.506       11.124        2.711      410.202       74.926        0.033      339.506       12.883      859.167
10/10/2013  21:20:00     -251.287      -95.492       -2.802      152.409      136.992       80.952    23228.377    18766.891     6553.160        6.040        2.427      268.819       75.089        0.078      339.461       12.807      859.173
10/10/2013  21:21:00     -332.209      -50.185      -26.752      149.828      116.528       52.888    22448.363    13578.802     2797.112        7.620        1.941      335.978       56.002        0.028      339.480       12.838      859.191
10/10/2013  21:22:00     -326.508      -90.604       -6.081      167.876      114.704       65.214    28182.202    13157.048     4252.923        8.021        2.280      338.846       78.271        0.053      339.464       12.811      859.194
10/10/2013  21:23:00     -453.381       -4.520      -50.399      111.325      101.953       55.350    12393.249    10394.353     3063.586       11.698        1.293      453.404       51.804        0.013      339.465       12.814      859.229
10/10/2013  21:24:00     -358.189     -102.938      -17.874      135.461       99.005       70.933    18349.701     9801.908     5031.421        8.619        1.659      372.687       72.577        0.038      339.460       12.804      859.244
10/10/2013  21:25:00     -263.610      -73.154      -18.087      129.771      103.632       55.686    16840.404    10739.538     3100.962        5.292        1.534      273.573       57.384        0.044      339.461       12.807      859.246
10/10/2013  21:26:00     -327.043      -68.203      -17.364      122.684       90.141       58.565    15051.342     8125.475     3429.819        6.925        1.330      334.079       60.209        0.032      339.448       12.785      859.259
10/10/2013  21:27:00     -327.964      -92.625       -5.884      172.949       80.602       56.696    29911.267     6496.621     3214.404        7.789        1.981      340.793       71.453        0.044      339.443       12.778      859.273
10/10/2013  21:28:00     -348.124     -125.781      -16.846      114.390       90.431       53.703    13085.130     8177.716     2883.984        8.072        1.207      370.150       48.428        0.017      339.453       12.792      859.295
10/10/2013  21:29:00     -322.229      -48.178      -27.363      137.532      108.212       52.015    18915.153    11709.801     2705.595        7.011        1.667      325.811       56.386        0.030      339.475       12.833      859.298
10/10/2013  21:30:00     -309.682     -102.218      -21.296      114.982       84.516       60.651    13220.802     7143.019     3678.508        6.542        1.202      326.116       64.256        0.039      339.449       12.786      859.298
10/10/2013  21:31:00     -342.179      -66.239      -15.595      135.200      108.923       65.527    18279.010    11864.151     4293.759        7.807        1.722      348.531       65.537        0.035      339.445       12.779      859.295
10/10/2013  21:32:00     -210.357      -46.460      -18.396      111.352       95.158       45.553    12399.195     9055.012     2075.106        3.513        1.176      215.427       43.352        0.040      339.412       12.725      859.314
10/10/2013  21:33:00     -423.433      -63.943      -26.539      171.494      118.697       57.735    29410.135    14088.955     3333.299       11.545        2.342      428.234       61.391        0.021      339.461       12.807      859.324
10/10/2013  21:34:00     -303.285      -99.358      -10.241      110.459      119.504       69.017    12201.146    14281.160     4763.331        6.660        1.562      319.146       65.523        0.042      339.450       12.787      859.323
10/10/2013  21:35:00     -310.352     -107.947      -13.137       98.375       97.608       50.467     9677.660     9527.353     2546.941        6.494        1.088      328.589       51.379        0.024      339.442       12.774      859.333
10/10/2013  21:36:00     -248.441     -102.845      -16.148       92.532       95.551       55.276     8562.143     9130.045     3055.430        4.665        1.037      268.887       54.630        0.041      339.438       12.769      859.323
10/10/2013  21:37:00     -272.683      -24.500      -23.607       97.667       85.373       45.759     9538.912     7288.588     2093.918        4.721        0.946      273.781       38.402        0.020      339.412       12.725      859.341
10/10/2013  21:38:00     -306.347      -34.372      -17.240      120.647       98.413       51.670    14555.602     9685.070     2669.832        6.111        1.346      308.270       61.672        0.040      339.434       12.759      859.361
10/10/2013  21:39:00     -299.920      -86.767      -18.801      106.589       96.600       48.050    11361.206     9331.602     2308.838        6.041        1.150      312.219       53.002        0.029      339.385       12.678      859.377
10/10/2013  21:40:00     -147.966      -70.050        7.560      107.617      129.790       61.963    11581.334    16845.469     3839.423        2.956        1.613      163.710       49.792        0.093      339.349       12.619      859.365
10/10/2013  21:41:00     -277.895      -82.438       -7.103      109.610      120.393       59.219    12014.458    14494.426     3506.898        5.704        1.501      289.865       57.547        0.039      339.350       12.620      859.359
10/10/2013  21:42:00     -267.809      -25.382      -30.513       81.376      131.120       48.678     6622.050    17192.332     2369.556        4.974        1.309      269.009       32.373        0.014      339.346       12.613      859.371
10/10/2013  21:43:00     -231.045      -77.567      -13.089       94.527       85.406       52.294     8935.288     7294.118     2734.676        3.926        0.948      243.718       43.063        0.031      339.357       12.632      859.396
10/10/2013  21:44:00     -276.248      -81.588      -19.719      137.238      115.094       62.615    18834.386    13246.708     3920.607        5.967        1.800      288.044       71.850        0.062      339.374       12.659      859.394
10/10/2013  21:45:00     -360.075      -51.837      -31.434      116.041      123.872       59.240    13465.527    15344.394     3509.435        8.282        1.616      363.787       52.305        0.021      339.392       12.691      859.419
10/10/2013  21:46:00     -255.988      -76.575      -17.686      107.988       96.613       50.233    11661.333     9334.131     2523.333        4.761        1.176      267.195       42.798        0.026      339.403       12.709      859.413
10/10/2013  21:47:00     -323.047     -123.148      -11.946      113.251      140.656       71.742    12825.844    19784.028     5146.944        7.870        1.888      345.724       66.818        0.037      339.381       12.670      859.431
10/10/2013  21:48:00     -402.950        6.777      -27.444      166.366      141.156       61.781    27677.548    19925.016     3816.848       10.728        2.571      403.007       72.922        0.033      339.444       12.779      859.473
10/10/2013  21:49:00     -234.471      -87.414       -6.979      107.509      103.173       53.701    11558.130    10644.577     2883.793        4.387        1.254      250.236       33.590        0.018      339.404       12.711      859.481
10/10/2013  21:50:00     -423.190      -93.024      -33.024      119.765       81.711       51.878    14343.686     6676.749     2691.334       10.627        1.186      433.293       50.929        0.014      339.409       12.719      859.487
10/10/2013  21:51:00     -335.735       42.837      -14.140      170.346      102.611       59.978    29017.762    10529.013     3597.337        7.894        2.157      338.457       74.673        0.049      339.401       12.706      859.524
10/10/2013  21:52:00     -228.489       -4.152      -16.062      113.484       62.764       49.568    12878.528     3939.336     2456.969        3.587        0.964      228.526       45.943        0.040      339.417       12.733      859.541
10/10/2013  21:53:00     -150.053      -30.059      -13.340       59.935       81.433       43.295     3592.175     6631.291     1874.478        1.785        0.605      153.034       32.480        0.045      339.349       12.620      859.551
10/10/2013  21:54:00     -254.795      -64.862      -24.596       88.802       93.148       52.584     7885.789     8676.600     2765.025        4.453        0.966      262.921       45.702        0.030      339.325       12.576      859.587
10/10/2013  21:55:00     -195.785      -77.589       -8.912       66.294       60.595       38.351     4394.892     3671.801     1470.788        2.698        0.477      210.599       29.394        0.019      339.253       12.458      859.609
10/10/2013  21:56:00     -113.983      -47.768       -6.973       63.527       55.568       44.612     4035.620     3087.822     1990.246        1.222        0.456      123.587       33.788        0.075      339.260       12.471      859.619
10/10/2013  21:57:00     -131.971      -64.481      -10.105       91.786       74.829       49.983     8424.610     5599.446     2498.330        1.910        0.826      146.881       52.091        0.126      339.260       12.470      859.626
10/10/2013  21:58:00     -226.478      -47.242      -18.616       84.108       82.022       46.906     7074.194     6727.676     2200.182        3.493        0.800      231.353       32.937        0.020      339.285       12.510      859.638
10/10/2013  21:59:00     -149.905      -27.747       -6.097      125.122       88.779       47.133    15655.492     7881.789     2221.517        2.451        1.288      152.451       55.638        0.133      339.263       12.475      859.654
10/10/2013  22:00:00     -273.232      -39.333      -20.483       86.065       82.043       47.333     7407.132     6730.976     2240.405        4.650        0.819      276.049       40.312        0.021      339.306       12.546      859.672
10/10/2013  22:01:00     -283.999      -51.124      -35.596       63.894       80.634       40.930     4082.402     6501.789     1675.291        4.840        0.613      288.564       27.961        0.009      339.315       12.559      859.677
10/10/2013  22:02:00     -300.383      -34.176      -32.436       72.449       62.595       43.029     5248.873     3918.108     1851.461        5.173        0.551      302.321       37.695        0.016      339.284       12.509      859.692
10/10/2013  22:03:00     -284.976      -11.570      -32.682      115.445       69.253       40.521    13327.505     4795.981     1641.934        5.109        0.988      285.211       39.715        0.019      339.362       12.640      859.702
10/10/2013  22:04:00     -215.762       -7.857      -16.496      114.346       83.135       60.260    13075.080     6911.498     3631.324        3.525        1.181      215.905       62.161        0.083      339.414       12.729      859.698
10/10/2013  22:05:00     -177.824       50.745      -19.812       84.279       87.524       43.231     7102.885     7660.493     1868.916        2.561        0.832      184.923       45.962        0.062      339.469       12.821      859.703
10/10/2013  22:06:00     -168.780      -96.877       -6.931      106.882       66.616       44.424    11423.861     4437.685     1973.465        2.787        0.892      194.607       34.697        0.032      339.378       12.667      859.704
10/10/2013  22:07:00     -227.473      -58.554      -14.011       78.691       69.548       46.540     6192.341     4836.863     2165.986        3.428        0.660      234.889       35.170        0.022      339.384       12.675      859.703
10/10/2013  22:08:00     -181.127      -55.486      -14.189       59.408       54.726       34.413     3529.265     2994.937     1184.275        2.190        0.385      189.436       33.884        0.032      339.368       12.651      859.708
10/10/2013  22:09:00     -154.388      -67.126        0.993       59.267       62.137       31.692     3512.529     3860.980     1004.399        1.836        0.419      168.349       30.089        0.032      339.388       12.685      859.707
10/10/2013  22:10:00      -85.174      -31.397        7.541       46.992       54.944       31.890     2208.256     3018.807     1016.993        0.727        0.312       90.777       29.467        0.105      339.365       12.647      859.701
10/10/2013  22:11:00     -202.882     -105.566       -4.162      111.283       69.506       39.461    12383.983     4831.097     1557.142        3.554        0.939      228.704       40.198        0.031      339.359       12.636      859.713
10/10/2013  22:12:00     -178.469     -151.122        8.853       94.586       89.996       52.626     8946.418     8099.250     2769.504        3.729        0.991      233.857       52.193        0.050      339.342       12.606      859.719
10/10/2013  22:13:00     -257.933     -119.996        5.200      129.115       74.888       56.326    16670.665     5608.170     3172.576        5.320        1.273      284.479       58.258        0.042      339.356       12.629      859.721
10/10/2013  22:14:00     -192.944     -138.248        1.769      111.644       81.774       65.259    12464.374     6687.060     4258.748        3.987        1.171      237.361       60.690        0.065      339.341       12.603      859.726
10/10/2013  22:15:00     -249.135      -64.261      -11.279       91.058       60.805       46.924     8291.475     3697.249     2201.883        4.025        0.710      257.290       49.801        0.037      339.373       12.657      859.737
10/10/2013  22:16:00     -188.364        2.032      -15.031       46.259       58.858       32.012     2139.938     3464.225     1024.764        2.117        0.331      188.375       27.951        0.022      339.299       12.536      859.760
10/10/2013  22:17:00     -227.990       24.463      -17.675       58.876       76.132       31.233     3466.390     5796.047      975.531        3.156        0.512      229.298       27.493        0.014      339.427       12.748      859.782
10/10/2013  22:18:00     -133.861       21.754        5.260       75.526       53.796       53.623     5704.110     2894.043     2875.451        1.494        0.574      135.617       44.763        0.109      339.376       12.664      859.786
10/10/2013  22:19:00     -181.290       20.102      -19.891       49.915       44.727       28.979     2491.496     2000.515      839.779        1.950        0.267      182.402       25.791        0.020      339.418       12.736      859.794
10/10/2013  22:20:00     -115.688       15.255       -8.069       61.516       62.372       26.011     3784.242     3890.249      676.575        1.101        0.418      116.690       18.580        0.025      339.367       12.652      859.810
10/10/2013  22:21:00     -207.065      -27.929      -15.999       45.755       40.939       29.159     2093.537     1675.974      850.257        2.426        0.231      208.940       22.480        0.012      339.319       12.567      859.830
10/10/2013  22:22:00     -128.887      -41.707       -3.655       76.798       64.822       35.559     5897.942     4201.947     1264.467        1.486        0.568      135.467       34.976        0.067      339.356       12.631      859.840
10/10/2013  22:23:00     -170.778       12.996      -10.834       78.975       78.853       35.493     6237.114     6217.790     1259.772        2.158        0.686      171.272       33.761        0.039      339.334       12.595      859.858
10/10/2013  22:24:00     -111.509       47.061      -18.161       70.670       98.641       39.620     4994.245     9729.999     1569.748        1.563        0.815      121.033       36.120        0.089      339.358       12.635      859.867
10/10/2013  22:25:00      -77.349       59.069      -20.565       22.584       58.641       19.248      510.034     3438.798      370.484        0.711        0.216       97.324       24.792        0.065      339.335       12.598      859.869
10/10/2013  22:26:00      -70.548       27.114      -13.726       20.563       30.414       19.670      422.848      924.985      386.894        0.382        0.087       75.579       15.455        0.042      339.312       12.558      859.872
10/10/2013  22:27:00      -98.362       80.094      -24.490       31.845       35.436       19.970     1014.129     1255.677      398.814        0.968        0.133      126.847       17.727        0.020      339.227       12.415      859.879
10/10/2013  22:28:00     -100.187       49.388      -16.234       50.944       40.466       24.711     2595.285     1637.470      610.658        0.879        0.242      111.698       25.091        0.050      339.249       12.452      859.877
10/10/2013  22:29:00     -138.192        3.915      -23.568       51.010       71.677       26.744     2602.026     5137.539      715.221        1.406        0.423      138.247       27.637        0.040      339.225       12.410      859.878
10/10/2013  22:30:00     -195.003      -46.924       -7.553       59.281       49.425       33.283     3514.230     2442.856     1107.738        2.367        0.353      200.569       27.413        0.019      338.980       11.998      859.886
10/10/2013  22:31:00     -137.878       -4.795      -16.447       48.219       42.660       20.649     2325.092     1819.906      426.380        1.194        0.229      137.962       18.341        0.018      338.950       11.950      859.891
10/10/2013  22:32:00     -154.880      -39.457       -5.128       72.711       35.808       26.295     5286.939     1282.186      691.425        1.641        0.363      159.827       31.111        0.038      338.858       11.795      859.884
10/10/2013  22:33:00     -107.433      -39.050       -5.713       41.933       30.957       20.859     1758.358      958.329      435.114        0.812        0.158      114.310       19.253        0.028      338.817       11.727      859.885
10/10/2013  22:34:00     -117.161        6.561       -6.122       35.099       51.111       27.785     1231.948     2612.305      771.982        0.921        0.231      117.344       22.188        0.036      338.859       11.798      859.894
10/10/2013  22:35:00     -142.419        9.564      -16.490       41.689       23.994       17.561     1738.008      575.706      308.387        1.163        0.131      142.740       20.666        0.021      338.851       11.784      859.902
10/10/2013  22:36:00     -132.191      -14.536       -6.247       44.562       41.178       23.771     1985.769     1695.653      565.061        1.098        0.212      132.988       19.312        0.021      338.943       11.938      859.922
10/10/2013  22:37:00     -149.660      -20.761      -12.039       28.455       40.477       23.044      809.677     1638.353      531.032        1.298        0.149      151.093       17.595        0.014      338.873       11.821      859.938
10/10/2013  22:38:00     -118.433      -45.814       -9.607       30.680       39.850       21.683      941.276     1587.988      470.133        0.961        0.150      126.985       14.557        0.013      338.850       11.781      859.951
10/10/2013  22:39:00     -159.497      -18.947      -14.691       52.971       20.116       19.607     2805.891      404.647      384.440        1.480        0.180      160.618       25.427        0.025      338.823       11.735      859.961
10/10/2013  22:40:00     -151.552      -16.213       -7.766       64.352       41.078       33.886     4141.193     1687.390     1148.262        1.513        0.349      152.417       36.427        0.057      338.792       11.684      859.974
10/10/2013  22:41:00     -195.418     -102.404       -2.771       83.620       69.385       32.904     6992.270     4814.223     1082.678        3.078        0.644      220.623       32.834        0.022      339.111       12.217      859.963
10/10/2013  22:42:00     -118.830       -1.472      -19.589       42.062       45.318       18.820     1769.249     2053.696      354.181        0.934        0.209      118.839       15.593        0.017      339.177       12.332      859.961
10/10/2013  22:43:00      -83.991        2.143       -2.987       41.213       41.793       23.009     1698.499     1746.658      529.411        0.552        0.199       84.018       18.829        0.050      339.004       12.041      859.970
10/10/2013  22:44:00      -67.310       77.375      -16.477       28.664       42.351       17.477      821.597     1793.605      305.444        0.685        0.146      102.555       15.167        0.022      338.979       11.997      859.977
10/10/2013  22:45:00      -75.427       61.152      -14.279       52.298       32.078       18.959     2735.096     1028.990      359.462        0.688        0.206       97.102       22.370        0.053      339.173       12.325      859.994
10/10/2013  22:46:00      -65.401       18.155      -13.019       25.764       23.379       17.958      663.778      546.598      322.483        0.315        0.077       67.874       11.818        0.030      338.992       12.020      860.018
10/10/2013  22:47:00      -62.462       35.969      -17.706       21.807       37.284       12.197      475.539     1390.076      148.773        0.376        0.101       72.078        9.376        0.017      338.993       12.023      860.025
10/10/2013  22:48:00      -87.108        7.675       -6.714       30.476       36.537       18.590      928.811     1334.965      345.591        0.515        0.130       87.446       12.721        0.021      339.020       12.067      860.041
10/10/2013  22:49:00     -121.299       59.144      -12.143       75.911       34.440       21.028     5762.473     1186.121      442.182        1.287        0.370      134.950       25.983        0.037      339.100       12.202      860.050
10/10/2013  22:50:00      -57.407       40.724       -9.216       25.087       24.697       15.424      629.365      609.942      237.904        0.326        0.074       70.384        9.404        0.018      339.070       12.151      860.064
10/10/2013  22:51:00      -82.410       38.582       -8.867       23.228       23.414       15.678      539.517      548.232      245.814        0.485        0.067       90.994        8.298        0.008      339.034       12.090      860.073
10/10/2013  22:52:00      -91.555       77.594      -15.218       51.285       46.574       23.182     2630.102     2169.144      537.428        0.998        0.267      120.013       25.395        0.045      339.039       12.100      860.065
10/10/2013  22:53:00     -116.164       71.299      -21.244       44.251       45.102       27.349     1958.127     2034.179      747.975        1.188        0.237      136.300       27.356        0.040      338.986       12.010      860.076
10/10/2013  22:54:00      -64.278       24.780       -6.020       30.056       57.163       19.159      903.381     3267.602      367.083        0.466        0.227       68.889       16.428        0.057      338.850       11.781      860.083
10/10/2013  22:55:00      -73.879       68.225      -19.748       24.385       55.850       19.709      594.640     3119.243      388.442        0.730        0.205      100.562        7.944        0.006      338.901       11.866      860.085
10/10/2013  22:56:00      -69.360        2.429      -11.297       26.727       35.882       16.902      714.357     1287.527      285.674        0.362        0.114       69.402       10.518        0.023      338.886       11.842      860.093
10/10/2013  22:57:00      -80.338       11.355      -15.633       25.516       29.401       14.883      651.061      864.422      221.501        0.428        0.087       81.136       11.865        0.021      338.882       11.836      860.109
10/10/2013  22:58:00      -41.682      -15.780      -13.865       44.666       31.490       20.867     1995.031      991.597      435.449        0.280        0.171       44.569       22.678        0.259      338.868       11.813      860.109
10/10/2013  22:59:00     -131.076      -35.816      -15.437       52.384       52.376       15.874     2744.070     2743.248      251.969        1.222        0.287      135.881       15.307        0.013      338.877       11.827      860.093
10/10/2013  23:00:00     -226.123     -106.061      -21.376       59.692       68.168       30.182     3563.179     4646.861      910.950        3.598        0.456      249.761       30.525        0.015      339.035       12.089      860.071
10/10/2013  23:01:00     -170.514      -61.742       -6.669       87.579      109.678       41.752     7670.011    12029.257     1743.209        2.718        1.072      181.348       39.349        0.047      339.023       12.071      860.060
10/10/2013  23:02:00     -122.690      181.861      -30.136       73.672       75.080       40.805     5427.551     5636.970     1665.087        3.088        0.636      219.377       41.484        0.036      339.083       12.171      860.062
10/10/2013  23:03:00     -106.428      105.263      -18.314       72.287       61.377       38.686     5225.444     3767.096     1496.584        1.661        0.524      149.690       34.378        0.053      339.130       12.251      860.059
10/10/2013  23:04:00     -171.747      131.797      -31.047       81.761       75.976       40.074     6684.832     5772.336     1605.901        3.094        0.703      216.489       33.703        0.024      339.127       12.244      860.068
10/10/2013  23:05:00     -130.035      166.923      -37.650       40.184       53.698       30.324     1614.772     2883.516      919.558        2.580        0.271      211.595       19.593        0.009      339.178       12.331      860.072
10/10/2013  23:06:00     -125.841       58.779      -20.351       44.167       52.086       23.663     1950.687     2712.973      559.941        1.246        0.261      138.892       21.678        0.024      339.123       12.240      860.085
10/10/2013  23:07:00      -79.916      -10.127       -7.264       47.306       34.252       23.872     2237.888     1173.191      569.877        0.526        0.199       80.555       20.559        0.065      338.987       12.013      860.083
10/10/2013  23:08:00     -238.220        3.490      -25.425       80.415       52.615       30.155     6466.628     2768.381      909.310        3.377        0.507      238.245       34.828        0.021      338.985       12.007      860.093
10/10/2013  23:09:00     -260.988      -48.166      -23.206       68.473       63.433       36.882     4688.566     4023.694     1360.312        4.052        0.504      265.395       34.829        0.017      338.921       11.897      860.105
10/10/2013  23:10:00     -221.092       -1.386      -25.336       61.418       63.273       37.878     3772.183     4003.516     1434.777        2.937        0.461      221.096       36.503        0.027      338.879       11.827      860.105
10/10/2013  23:11:00     -150.766      -66.090      -17.372       41.285       56.161       29.581     1704.434     3154.004      875.038        1.657        0.287      164.616       16.626        0.010      338.778       11.660      860.107
10/10/2013  23:12:00     -188.509      -59.099      -21.174       36.625       39.034       26.092     1341.364     1523.660      680.803        2.151        0.177      197.556       18.518        0.009      338.764       11.635      860.101
10/10/2013  23:13:00     -144.681      -50.190       -3.437       62.217       58.722       36.967     3870.996     3448.304     1366.575        1.607        0.434      153.139       29.752        0.038      338.716       11.556      860.104
10/10/2013  23:14:00     -193.718      -35.131      -10.833       75.328       65.438       38.027     5674.267     4282.123     1446.053        2.514        0.570      196.878       37.940        0.037      338.734       11.585      860.101
10/10/2013  23:15:00     -203.452       -4.247      -21.907       48.473       62.962       29.514     2349.642     3964.226      871.088        2.454        0.359      203.496       26.621        0.017      338.703       11.533      860.120
10/10/2013  23:16:00     -130.181      -26.842       -4.266       54.153       45.044       24.979     2932.589     2028.979      623.964        1.163        0.279      132.920       15.407        0.013      338.598       11.360      860.131
10/10/2013  23:17:00     -123.417      -53.496      -16.598       52.042       68.980       33.087     2708.410     4758.175     1094.720        1.346        0.428      134.512       23.338        0.030      338.532       11.247      860.133
10/10/2013  23:18:00     -163.593      -31.998      -12.173       60.727       67.150       34.716     3687.820     4509.069     1205.192        1.867        0.470      166.692       27.990        0.028      338.541       11.260      860.137
10/10/2013  23:19:00     -123.585      -25.404       -6.334       51.782       44.308       27.841     2681.345     1963.173      775.123        1.069        0.271      126.169       26.394        0.044      338.519       11.226      860.140
10/10/2013  23:20:00     -149.526       41.255      -22.611       82.039       73.091       50.502     6730.391     5342.248     2550.467        1.959        0.731      155.113       44.110        0.081      338.597       11.355      860.146
10/10/2013  23:21:00     -105.471       59.214      -11.218       51.789       64.131       30.520     2682.050     4112.814      931.488        1.124        0.386      120.956       13.660        0.013      338.507       11.205      860.149
10/10/2013  23:22:00     -169.994       -6.445      -25.570       33.911       58.917       29.365     1149.983     3471.197      862.324        1.754        0.274      170.116       14.930        0.008      338.568       11.310      860.166
10/10/2013  23:23:00      -49.185        2.600      -20.199       54.055       38.036       29.150     2921.985     1446.772      849.738        0.403        0.261       49.253       15.301        0.097      338.603       11.365      860.171
10/10/2013  23:24:00      -96.846       33.458      -22.799       39.124       81.586       28.743     1530.694     6656.343      826.183        1.001        0.451      102.463       15.870        0.024      338.703       11.533      860.171
10/10/2013  23:25:00     -134.775      -11.933       -8.606       49.860       56.705       34.614     2486.018     3215.485     1198.111        1.264        0.345      135.302       32.781        0.059      338.744       11.603      860.186
10/10/2013  23:26:00     -149.755      -32.234      -10.339       67.687       40.224       28.636     4581.556     1617.996      820.008        1.529        0.351      153.185       28.936        0.036      338.711       11.546      860.204
10/10/2013  23:27:00      -66.605       15.388       -1.196       43.781       43.737       21.570     1916.800     1912.925      465.274        0.448        0.215       68.360       20.215        0.087      338.649       11.442      860.220
10/10/2013  23:28:00      -65.268       25.797        0.867       56.593       56.691       26.197     3202.823     3213.869      686.282        0.601        0.355       70.181       28.143        0.161      338.667       11.474      860.222
10/10/2013  23:29:00     -102.788      132.757      -17.851       38.879       53.715       30.627     1511.609     2885.310      937.994        1.692        0.267      167.898       23.831        0.020      338.763       11.634      860.237
10/10/2013  23:30:00      -58.854       81.925       -0.101       54.380       82.491       36.326     2957.201     6804.692     1319.589        1.063        0.554      100.874       29.102        0.083      338.747       11.608      860.262
10/10/2013  23:31:00      -91.165       50.481       -4.428       59.019       59.016       36.296     3483.261     3482.901     1317.422        0.958        0.414      104.208       36.251        0.121      338.726       11.573      860.277
10/10/2013  23:32:00      -74.470      130.620      -17.347       48.093       54.541       39.154     2312.954     2974.774     1533.052        1.486        0.341      150.357       36.195        0.058      338.906       11.875      860.283
10/10/2013  23:33:00      -90.097      130.794      -19.280       33.305       45.616       28.525     1109.253     2080.794      813.664        1.480        0.200      158.822       16.147        0.010      338.942       11.936      860.281
10/10/2013  23:34:00     -112.864       54.073      -13.228       64.751       49.399       30.137     4192.712     2440.234      908.225        1.169        0.377      125.148       35.984        0.083      338.976       11.993      860.300
10/10/2013  23:35:00      -50.416      113.605      -15.241       39.826       58.141       29.125     1586.148     3380.415      848.283        1.075        0.291      124.289       27.948        0.051      338.983       12.004      860.302
10/10/2013  23:36:00      -84.131      140.315      -23.755       50.446       55.528       35.118     2544.785     3083.376     1233.293        1.709        0.343      163.605       28.313        0.030      339.078       12.164      860.299
10/10/2013  23:37:00      -57.790       81.592      -18.363       36.665       56.299       23.321     1344.298     3169.521      543.862        0.769        0.253       99.984       21.560        0.046      339.050       12.117      860.292
10/10/2013  23:38:00       -8.933      152.960      -14.472       40.428       41.267       25.704     1634.461     1702.951      660.680        1.384        0.200      153.221       21.784        0.020      339.024       12.073      860.290
10/10/2013  23:39:00      -25.068      148.481      -18.527       37.724       43.553       24.501     1423.106     1896.859      600.302        1.347        0.196      150.583       18.475        0.015      339.011       12.051      860.289
10/10/2013  23:40:00      -25.936      158.318      -23.130       69.564       51.231       27.312     4839.219     2624.572      745.969        1.724        0.410      160.429       18.657        0.014      339.049       12.114      860.278
10/10/2013  23:41:00      -41.838      105.951      -19.796       42.690       73.116       25.898     1822.471     5345.941      670.685        1.060        0.392      113.912       30.532        0.072      339.055       12.127      860.290
10/10/2013  23:42:00      -13.660      129.983      -12.654       27.007       52.549       29.052      729.378     2761.374      844.034        1.079        0.217      130.699       22.545        0.030      338.979       11.999      860.303
10/10/2013  23:43:00      -15.395      165.521      -28.139       48.174       43.441       22.771     2320.711     1887.095      518.518        1.658        0.236      166.235       17.250        0.011      338.969       11.981      860.311
10/10/2013  23:44:00      -69.861       75.594      -16.731       25.134       37.436       21.470      631.737     1401.475      460.947        0.668        0.125      102.932        7.510        0.005      339.039       12.100      860.322
10/10/2013  23:45:00      -76.534       32.259      -18.373       55.915       74.348       24.194     3126.538     5527.614      585.368        0.824        0.462       83.055       21.163        0.065      338.959       11.966      860.329
10/10/2013  23:46:00      -70.221       22.374      -16.156       31.838       24.330       13.391     1013.689      591.937      179.325        0.374        0.089       73.699       10.051        0.019      338.967       11.979      860.321
10/10/2013  23:47:00      -86.169       22.117      -11.377       31.626       40.121       22.602     1000.235     1609.725      510.873        0.558        0.156       88.962       22.910        0.066      338.923       11.904      860.324
10/10/2013  23:48:00      -89.126      168.667      -24.213       58.554       81.730       36.059     3428.587     6679.828     1300.280        2.419        0.570      190.767       32.285        0.029      338.931       11.915      860.326
10/10/2013  23:49:00     -145.013      222.148      -33.759       73.863       63.234       30.147     5455.809     3998.492      908.823        4.094        0.518      265.289       23.644        0.008      339.057       12.125      860.327
10/10/2013  23:50:00      -43.862      131.648      -26.001       91.394       65.870       33.001     8352.819     4338.792     1089.044        1.685        0.689      138.763       25.145        0.033      339.076       12.162      860.336
10/10/2013  23:51:00        3.827       76.029      -11.465       23.530       27.187       19.776      553.679      739.133      391.080        0.380        0.084       76.126       11.906        0.024      339.060       12.135      860.335
10/10/2013  23:52:00      -84.189      -30.759       -1.779       78.591       77.840       27.318     6176.530     6059.032      746.257        1.051        0.649       89.632       31.165        0.121      338.977       11.994      860.346
10/10/2013  23:53:00      -79.718      -25.977        3.671       51.068       39.394       26.645     2607.980     1551.899      709.937        0.596        0.243       83.843       25.719        0.094      338.962       11.971      860.342
10/10/2013  23:54:00      -66.399       -7.029      -22.574       37.254       21.053       27.285     1387.895      443.228      744.470        0.377        0.129       66.770        9.821        0.022      339.009       12.048      860.326
10/10/2013  23:55:00     -148.991       31.720      -13.750       67.321       38.282       20.064     4532.112     1465.490      402.572        1.490        0.320      152.330       25.443        0.028      338.940       11.933      860.326
10/10/2013  23:56:00     -147.039       41.031      -11.747       33.951       32.024       19.544     1152.651     1025.544      381.961        1.300        0.128      152.656       17.151        0.013      338.877       11.827      860.325
10/10/2013  23:57:00      -98.734      -15.637       -6.432       30.054       34.206       17.148      903.271     1170.058      294.065        0.620        0.118       99.965       13.198        0.017      338.878       11.831      860.319
10/10/2013  23:58:00      -62.096       -9.229        3.799       39.537       32.295       15.877     1563.144     1042.992      252.093        0.341        0.143       62.778       15.493        0.061      338.832       11.750      860.314
10/10/2013  23:59:00      -38.115       29.076       -9.559       23.585       12.657       10.604      556.271      160.202      112.444        0.161        0.041       47.939        6.130        0.016      338.836       11.758      860.323
